<?xml version='1.0' encoding='UTF-8'?><gpx version="1.1" creator="JPX - https://github.com/jenetics/jpx" xmlns="http://www.topografix.com/GPX/1/1"><trk><trkseg><trkpt lat="50.65738778926887" lon="5.648042987915166"><ele>60.99999999999999</ele><time>2026-04-29T10:26:34Z</time></trkpt><trkpt lat="50.65732617818949" lon="5.647999957796246"><ele>61.0</ele><time>2026-04-29T10:26:59.001Z</time></trkpt><trkpt lat="50.657248605444934" lon="5.647947352664849"><ele>61.0</ele><time>2026-04-29T10:27:03.001Z</time></trkpt><trkpt lat="50.65720270195338" lon="5.647844724757461"><ele>61.0</ele><time>2026-04-29T10:27:06.001Z</time></trkpt><trkpt lat="50.657200817383526" lon="5.647723511189404"><ele>60.99999999999999</ele><time>2026-04-29T10:27:09.001Z</time></trkpt><trkpt lat="50.65722508389712" lon="5.647626073789866"><ele>61.0</ele><time>2026-04-29T10:27:12.001Z</time></trkpt><trkpt lat="50.65728195627619" lon="5.647540615843582"><ele>61.599999999999994</ele><time>2026-04-29T10:27:16.001Z</time></trkpt><trkpt lat="50.65738296329153" lon="5.647573178347927"><ele>62.199999999999996</ele><time>2026-04-29T10:27:18.001Z</time></trkpt><trkpt lat="50.65745603733392" lon="5.647602701131382"><ele>62.800000000000004</ele><time>2026-04-29T10:27:19.001Z</time></trkpt><trkpt lat="50.65754168294683" lon="5.647634748868364"><ele>63.400000000000006</ele><time>2026-04-29T10:27:20.001Z</time></trkpt><trkpt lat="50.6576332649721" lon="5.647668805485597"><ele>64.0</ele><time>2026-04-29T10:27:21.001Z</time></trkpt><trkpt lat="50.657727456023345" lon="5.647703601193658"><ele>63.0</ele><time>2026-04-29T10:27:22.001Z</time></trkpt><trkpt lat="50.6578339948634" lon="5.647739724473632"><ele>62.0</ele><time>2026-04-29T10:27:23.001Z</time></trkpt><trkpt lat="50.65795137443406" lon="5.647778851578414"><ele>61.0</ele><time>2026-04-29T10:27:24.001Z</time></trkpt><trkpt lat="50.65807038056579" lon="5.647815201364058"><ele>60.0</ele><time>2026-04-29T10:27:25.001Z</time></trkpt><trkpt lat="50.65818842190736" lon="5.647847468324976"><ele>60.0</ele><time>2026-04-29T10:27:26.001Z</time></trkpt><trkpt lat="50.65830280808055" lon="5.647875977469068"><ele>60.0</ele><time>2026-04-29T10:27:27.001Z</time></trkpt><trkpt lat="50.65841719376305" lon="5.647902474697668"><ele>60.0</ele><time>2026-04-29T10:27:28.001Z</time></trkpt><trkpt lat="50.65853341063214" lon="5.647926139202565"><ele>60.0</ele><time>2026-04-29T10:27:29.001Z</time></trkpt><trkpt lat="50.65865213507188" lon="5.6479516009808455"><ele>60.25</ele><time>2026-04-29T10:27:30.001Z</time></trkpt><trkpt lat="50.658771130889065" lon="5.647973996719499"><ele>60.5</ele><time>2026-04-29T10:27:31.001Z</time></trkpt><trkpt lat="50.658891851121666" lon="5.6479997320419795"><ele>60.75</ele><time>2026-04-29T10:27:32.001Z</time></trkpt><trkpt lat="50.65901169454778" lon="5.648023673226085"><ele>61.0</ele><time>2026-04-29T10:27:33.001Z</time></trkpt><trkpt lat="50.659134200140855" lon="5.648044792617224"><ele>61.0</ele><time>2026-04-29T10:27:34.001Z</time></trkpt><trkpt lat="50.65925210053299" lon="5.648062423185287"><ele>60.99999999999999</ele><time>2026-04-29T10:27:35.001Z</time></trkpt><trkpt lat="50.65935430681903" lon="5.6480734149044665"><ele>60.99999999999999</ele><time>2026-04-29T10:27:36.001Z</time></trkpt><trkpt lat="50.65944431767267" lon="5.6480857779873155"><ele>61.0</ele><time>2026-04-29T10:27:37.001Z</time></trkpt><trkpt lat="50.65952068343851" lon="5.648093891512634"><ele>61.0</ele><time>2026-04-29T10:27:38.001Z</time></trkpt><trkpt lat="50.6595877240778" lon="5.648100487715919"><ele>60.83333333333333</ele><time>2026-04-29T10:27:39.001Z</time></trkpt><trkpt lat="50.659694454613025" lon="5.648106882388368"><ele>60.666666666666664</ele><time>2026-04-29T10:27:41.001Z</time></trkpt><trkpt lat="50.6597727553376" lon="5.648151084589552"><ele>60.5</ele><time>2026-04-29T10:27:43.001Z</time></trkpt><trkpt lat="50.659792334018626" lon="5.64827298781073"><ele>60.33333333333333</ele><time>2026-04-29T10:27:45.001Z</time></trkpt><trkpt lat="50.65977903506989" lon="5.648442293091061"><ele>60.166666666666664</ele><time>2026-04-29T10:27:47.001Z</time></trkpt><trkpt lat="50.65976143159894" lon="5.648541937586327"><ele>60.0</ele><time>2026-04-29T10:27:48.001Z</time></trkpt><trkpt lat="50.65972756890021" lon="5.648642428198598"><ele>60.333333333333336</ele><time>2026-04-29T10:27:49.001Z</time></trkpt><trkpt lat="50.659684747902176" lon="5.648747105029949"><ele>60.66666666666667</ele><time>2026-04-29T10:27:50.001Z</time></trkpt><trkpt lat="50.65964699118154" lon="5.648844118819307"><ele>61.0</ele><time>2026-04-29T10:27:51.001Z</time></trkpt><trkpt lat="50.659585399058734" lon="5.64901337808119"><ele>61.333333333333336</ele><time>2026-04-29T10:27:53.001Z</time></trkpt><trkpt lat="50.65954863051685" lon="5.6491121513886124"><ele>61.66666666666667</ele><time>2026-04-29T10:27:54.001Z</time></trkpt><trkpt lat="50.65951409358398" lon="5.6492087268857984"><ele>62.0</ele><time>2026-04-29T10:27:55.001Z</time></trkpt><trkpt lat="50.659482033834344" lon="5.649298681149994"><ele>61.833333333333336</ele><time>2026-04-29T10:27:56Z</time></trkpt><trkpt lat="50.659435860858885" lon="5.649367039202562"><ele>61.66666666666667</ele><time>2026-04-29T10:27:57Z</time></trkpt><trkpt lat="50.659376978972446" lon="5.6495341446810485"><ele>61.5</ele><time>2026-04-29T10:27:59Z</time></trkpt><trkpt lat="50.65934214960696" lon="5.649695217266484"><ele>61.33333333333333</ele><time>2026-04-29T10:28:01Z</time></trkpt><trkpt lat="50.65930635254374" lon="5.649801697966764"><ele>61.166666666666664</ele><time>2026-04-29T10:28:03Z</time></trkpt><trkpt lat="50.659269917856406" lon="5.64988521549167"><ele>61.0</ele><time>2026-04-29T10:28:05Z</time></trkpt><trkpt lat="50.65924424385641" lon="5.6499846672894725"><ele>60.99999999999999</ele><time>2026-04-29T10:28:08Z</time></trkpt><trkpt lat="50.65922330729841" lon="5.650100706047532"><ele>61.0</ele><time>2026-04-29T10:28:11Z</time></trkpt><trkpt lat="50.65925759224136" lon="5.6501963670763455"><ele>60.99999999999999</ele><time>2026-04-29T10:33:02Z</time></trkpt><trkpt lat="50.65928134966016" lon="5.650296674854124"><ele>60.99999999999999</ele><time>2026-04-29T10:33:08Z</time></trkpt><trkpt lat="50.659318086727005" lon="5.65039588274018"><ele>61.0</ele><time>2026-04-29T10:33:14Z</time></trkpt><trkpt lat="50.65935605390164" lon="5.650479352725883"><ele>60.99999999999999</ele><time>2026-04-29T10:33:20Z</time></trkpt><trkpt lat="50.659419440733096" lon="5.6505250908458295"><ele>60.99999999999999</ele><time>2026-04-29T10:34:05.001Z</time></trkpt><trkpt lat="50.65948573231674" lon="5.650540845233574"><ele>60.85714285714285</ele><time>2026-04-29T10:34:10.001Z</time></trkpt><trkpt lat="50.65955509176806" lon="5.650550918046959"><ele>60.71428571428571</ele><time>2026-04-29T10:34:15Z</time></trkpt><trkpt lat="50.65962740926" lon="5.650572700447654"><ele>60.57142857142857</ele><time>2026-04-29T10:34:21Z</time></trkpt><trkpt lat="50.65969260468657" lon="5.650585789281406"><ele>60.42857142857142</ele><time>2026-04-29T10:34:26Z</time></trkpt><trkpt lat="50.65976247050584" lon="5.650598099338299"><ele>60.28571428571428</ele><time>2026-04-29T10:34:32Z</time></trkpt><trkpt lat="50.65982723691873" lon="5.650603894901594"><ele>60.142857142857146</ele><time>2026-04-29T10:34:38Z</time></trkpt><trkpt lat="50.65974900808421" lon="5.650584511801746"><ele>60.0</ele><time>2026-04-29T10:35:26Z</time></trkpt><trkpt lat="50.65968595445637" lon="5.650564232419983"><ele>60.0</ele><time>2026-04-29T10:35:32Z</time></trkpt><trkpt lat="50.65961944715032" lon="5.650560305687879"><ele>60.0</ele><time>2026-04-29T10:35:38Z</time></trkpt><trkpt lat="50.65955392953075" lon="5.650544448796989"><ele>60.0</ele><time>2026-04-29T10:35:59.001Z</time></trkpt><trkpt lat="50.65948659495308" lon="5.650512563058066"><ele>60.0</ele><time>2026-04-29T10:36:09.001Z</time></trkpt><trkpt lat="50.659424913302615" lon="5.650537270169579"><ele>60.0</ele><time>2026-04-29T10:36:15.001Z</time></trkpt><trkpt lat="50.65948162189319" lon="5.650588986551915"><ele>60.0</ele><time>2026-04-29T10:36:44Z</time></trkpt><trkpt lat="50.65954831552392" lon="5.650601298775396"><ele>60.0</ele><time>2026-04-29T10:36:49Z</time></trkpt><trkpt lat="50.659613447327395" lon="5.650628901673836"><ele>60.0</ele><time>2026-04-29T10:36:54Z</time></trkpt><trkpt lat="50.65967791461668" lon="5.6506322101520485"><ele>60.0</ele><time>2026-04-29T10:37:00Z</time></trkpt><trkpt lat="50.65961370535482" lon="5.650630171166005"><ele>60.0</ele><time>2026-04-29T10:38:56Z</time></trkpt><trkpt lat="50.65955323976413" lon="5.650588200697375"><ele>60.0</ele><time>2026-04-29T10:42:04.001Z</time></trkpt><trkpt lat="50.6594900676864" lon="5.650521950386813"><ele>60.0</ele><time>2026-04-29T10:42:10.001Z</time></trkpt><trkpt lat="50.65944038113373" lon="5.65045377166169"><ele>60.0</ele><time>2026-04-29T10:42:15.001Z</time></trkpt><trkpt lat="50.659381533203366" lon="5.650387892229072"><ele>60.0</ele><time>2026-04-29T10:42:20.001Z</time></trkpt><trkpt lat="50.659334217199365" lon="5.650317202702002"><ele>60.0</ele><time>2026-04-29T10:42:25.001Z</time></trkpt><trkpt lat="50.65929146018352" lon="5.650241982995678"><ele>60.0</ele><time>2026-04-29T10:42:30.001Z</time></trkpt><trkpt lat="50.65926500771757" lon="5.650140611513606"><ele>60.0</ele><time>2026-04-29T10:42:36Z</time></trkpt><trkpt lat="50.659285286145234" lon="5.650269998336519"><ele>60.0</ele><time>2026-04-29T10:42:57Z</time></trkpt><trkpt lat="50.65933402005187" lon="5.650339901331571"><ele>60.0</ele><time>2026-04-29T10:42:59Z</time></trkpt><trkpt lat="50.659382251718306" lon="5.650433205904933"><ele>60.0</ele><time>2026-04-29T10:43:01Z</time></trkpt><trkpt lat="50.6594367643539" lon="5.650517215542643"><ele>60.0</ele><time>2026-04-29T10:43:03.001Z</time></trkpt><trkpt lat="50.659509152098174" lon="5.650565340674464"><ele>60.0</ele><time>2026-04-29T10:43:05.001Z</time></trkpt><trkpt lat="50.65958581159617" lon="5.650582469589476"><ele>60.0</ele><time>2026-04-29T10:43:07.001Z</time></trkpt><trkpt lat="50.659657925049146" lon="5.650599782884538"><ele>60.0</ele><time>2026-04-29T10:43:09.001Z</time></trkpt><trkpt lat="50.65973137936069" lon="5.6506218436877536"><ele>60.0</ele><time>2026-04-29T10:43:11.001Z</time></trkpt><trkpt lat="50.65979848242209" lon="5.650657447211321"><ele>60.0</ele><time>2026-04-29T10:43:13.001Z</time></trkpt><trkpt lat="50.65987737504687" lon="5.650698618268333"><ele>60.0</ele><time>2026-04-29T10:43:16.001Z</time></trkpt><trkpt lat="50.65991809105974" lon="5.650614305975759"><ele>60.0</ele><time>2026-04-29T10:43:19.001Z</time></trkpt><trkpt lat="50.65985576926518" lon="5.650572189074466"><ele>60.0</ele><time>2026-04-29T10:43:22.001Z</time></trkpt><trkpt lat="50.65978787993059" lon="5.650542920397495"><ele>60.0</ele><time>2026-04-29T10:44:11.001Z</time></trkpt><trkpt lat="50.65970321528616" lon="5.650544208054956"><ele>60.0</ele><time>2026-04-29T10:44:57Z</time></trkpt><trkpt lat="50.65962596472304" lon="5.650520873648745"><ele>60.0</ele><time>2026-04-29T10:45:01Z</time></trkpt><trkpt lat="50.65956430175678" lon="5.650485469029874"><ele>60.0</ele><time>2026-04-29T10:45:05Z</time></trkpt><trkpt lat="50.65950713782169" lon="5.650545691864236"><ele>60.0</ele><time>2026-04-29T10:45:08Z</time></trkpt><trkpt lat="50.6595196332229" lon="5.650446417784011"><ele>60.0</ele><time>2026-04-29T10:45:11Z</time></trkpt><trkpt lat="50.6595663478144" lon="5.650551426273044"><ele>60.0</ele><time>2026-04-29T10:45:14Z</time></trkpt><trkpt lat="50.65949564919722" lon="5.6505230902706876"><ele>60.0</ele><time>2026-04-29T10:45:22Z</time></trkpt><trkpt lat="50.659554255078206" lon="5.650485313342692"><ele>60.0</ele><time>2026-04-29T10:45:26Z</time></trkpt><trkpt lat="50.6594853379637" lon="5.650518859104538"><ele>60.0</ele><time>2026-04-29T10:45:35.001Z</time></trkpt><trkpt lat="50.65942802723491" lon="5.65038068916223"><ele>60.0</ele><time>2026-04-29T10:45:37.001Z</time></trkpt><trkpt lat="50.65936256689176" lon="5.650267583559207"><ele>60.0</ele><time>2026-04-29T10:45:39.001Z</time></trkpt><trkpt lat="50.65925831888875" lon="5.6502191801058625"><ele>60.0</ele><time>2026-04-29T10:45:41.001Z</time></trkpt><trkpt lat="50.659198798114964" lon="5.650252987813918"><ele>60.0</ele><time>2026-04-29T10:45:42.001Z</time></trkpt><trkpt lat="50.6591496846503" lon="5.650421767073258"><ele>60.0</ele><time>2026-04-29T10:45:44.001Z</time></trkpt><trkpt lat="50.659172722051416" lon="5.65052230263604"><ele>60.0</ele><time>2026-04-29T10:45:45.001Z</time></trkpt><trkpt lat="50.659238577536314" lon="5.650582912320009"><ele>60.0</ele><time>2026-04-29T10:45:46.001Z</time></trkpt><trkpt lat="50.65932309020669" lon="5.650598474086981"><ele>60.0</ele><time>2026-04-29T10:45:47.001Z</time></trkpt><trkpt lat="50.659420440368834" lon="5.650608619825421"><ele>60.0</ele><time>2026-04-29T10:45:48.001Z</time></trkpt><trkpt lat="50.65952101031139" lon="5.6506287064523"><ele>60.0</ele><time>2026-04-29T10:45:49.001Z</time></trkpt><trkpt lat="50.65964814211239" lon="5.6506565146353545"><ele>60.0</ele><time>2026-04-29T10:45:50.001Z</time></trkpt><trkpt lat="50.65978188948732" lon="5.650668599248429"><ele>60.0</ele><time>2026-04-29T10:45:51.001Z</time></trkpt><trkpt lat="50.65989387926939" lon="5.65067230247157"><ele>60.0</ele><time>2026-04-29T10:45:52.001Z</time></trkpt><trkpt lat="50.6599574943279" lon="5.6507120016623205"><ele>60.0</ele><time>2026-04-29T10:45:53.001Z</time></trkpt><trkpt lat="50.65989025178011" lon="5.650693880296262"><ele>60.0</ele><time>2026-04-29T10:46:11.001Z</time></trkpt><trkpt lat="50.659819208328166" lon="5.650704156819251"><ele>60.0</ele><time>2026-04-29T10:46:14.001Z</time></trkpt><trkpt lat="50.659744910333664" lon="5.650693289493342"><ele>60.0</ele><time>2026-04-29T10:46:19.001Z</time></trkpt><trkpt lat="50.65967604144272" lon="5.650677763280341"><ele>60.0</ele><time>2026-04-29T10:46:26.001Z</time></trkpt><trkpt lat="50.659612167046745" lon="5.650670849256253"><ele>60.0</ele><time>2026-04-29T10:46:35.001Z</time></trkpt><trkpt lat="50.65953915486048" lon="5.650626852662071"><ele>60.0</ele><time>2026-04-29T10:46:42.001Z</time></trkpt><trkpt lat="50.65947267644442" lon="5.65062727046583"><ele>60.0</ele><time>2026-04-29T10:46:45.001Z</time></trkpt><trkpt lat="50.65940307312826" lon="5.65056465845471"><ele>60.0</ele><time>2026-04-29T10:46:48Z</time></trkpt><trkpt lat="50.659389810963354" lon="5.650421668962788"><ele>60.0</ele><time>2026-04-29T10:46:50Z</time></trkpt><trkpt lat="50.659340690700034" lon="5.650295651424269"><ele>60.0</ele><time>2026-04-29T10:46:52Z</time></trkpt><trkpt lat="50.659249430702225" lon="5.650277095919448"><ele>60.0</ele><time>2026-04-29T10:46:54Z</time></trkpt><trkpt lat="50.65918931508114" lon="5.650358954616717"><ele>60.0</ele><time>2026-04-29T10:46:55Z</time></trkpt><trkpt lat="50.6591798677221" lon="5.650460924023602"><ele>60.0</ele><time>2026-04-29T10:46:56Z</time></trkpt><trkpt lat="50.65922511871525" lon="5.650545445977083"><ele>60.0</ele><time>2026-04-29T10:46:57Z</time></trkpt><trkpt lat="50.65930182115217" lon="5.650585446830462"><ele>60.0</ele><time>2026-04-29T10:46:58Z</time></trkpt><trkpt lat="50.65938961366723" lon="5.650612056234063"><ele>60.0</ele><time>2026-04-29T10:46:59Z</time></trkpt><trkpt lat="50.659485638363826" lon="5.650630512980178"><ele>60.0</ele><time>2026-04-29T10:47:00Z</time></trkpt><trkpt lat="50.65960023361338" lon="5.650649997394415"><ele>60.0</ele><time>2026-04-29T10:47:01Z</time></trkpt><trkpt lat="50.65974569514782" lon="5.650687148271879"><ele>60.0</ele><time>2026-04-29T10:47:02Z</time></trkpt><trkpt lat="50.65982583577723" lon="5.650707232855222"><ele>60.0</ele><time>2026-04-29T10:47:03Z</time></trkpt><trkpt lat="50.65990002082412" lon="5.650731133856464"><ele>60.0</ele><time>2026-04-29T10:47:43.001Z</time></trkpt><trkpt lat="50.65994990759671" lon="5.65063692834431"><ele>60.0</ele><time>2026-04-29T10:47:46.001Z</time></trkpt><trkpt lat="50.65987984465606" lon="5.650573050835438"><ele>60.0</ele><time>2026-04-29T10:47:49.001Z</time></trkpt><trkpt lat="50.65980868810819" lon="5.6505624337042715"><ele>60.0</ele><time>2026-04-29T10:48:13.001Z</time></trkpt><trkpt lat="50.65972816245747" lon="5.650537169711689"><ele>60.0</ele><time>2026-04-29T10:48:53Z</time></trkpt><trkpt lat="50.65965564387257" lon="5.6505250514391685"><ele>60.0</ele><time>2026-04-29T10:48:56Z</time></trkpt><trkpt lat="50.65958996713825" lon="5.650516658446506"><ele>60.0</ele><time>2026-04-29T10:48:59Z</time></trkpt><trkpt lat="50.65950801140275" lon="5.6505427467771545"><ele>60.0</ele><time>2026-04-29T10:49:03Z</time></trkpt><trkpt lat="50.65953466640752" lon="5.650447497608257"><ele>60.0</ele><time>2026-04-29T10:49:06Z</time></trkpt><trkpt lat="50.65956763194183" lon="5.65053241113833"><ele>60.0</ele><time>2026-04-29T10:49:08Z</time></trkpt><trkpt lat="50.65950140817596" lon="5.65053494877962"><ele>60.0</ele><time>2026-04-29T10:49:15Z</time></trkpt><trkpt lat="50.65957501382375" lon="5.650550710200677"><ele>60.0</ele><time>2026-04-29T10:49:21Z</time></trkpt><trkpt lat="50.65957665989212" lon="5.650450978757064"><ele>60.0</ele><time>2026-04-29T10:49:24Z</time></trkpt><trkpt lat="50.659501326337626" lon="5.650514926905245"><ele>60.0</ele><time>2026-04-29T10:49:27Z</time></trkpt><trkpt lat="50.659483896789446" lon="5.650416127433281"><ele>60.0</ele><time>2026-04-29T10:49:29Z</time></trkpt><trkpt lat="50.659427923855915" lon="5.650344704406055"><ele>60.0</ele><time>2026-04-29T10:49:31Z</time></trkpt><trkpt lat="50.65936091313586" lon="5.650265167481312"><ele>60.0</ele><time>2026-04-29T10:49:33Z</time></trkpt><trkpt lat="50.65924999131469" lon="5.650220471558614"><ele>60.0</ele><time>2026-04-29T10:49:35Z</time></trkpt><trkpt lat="50.65919114198047" lon="5.650261347038169"><ele>60.0</ele><time>2026-04-29T10:49:36Z</time></trkpt><trkpt lat="50.659154459060275" lon="5.650355233791554"><ele>60.0</ele><time>2026-04-29T10:49:37Z</time></trkpt><trkpt lat="50.65916781654815" lon="5.650465005608677"><ele>60.0</ele><time>2026-04-29T10:49:38Z</time></trkpt><trkpt lat="50.65922370579034" lon="5.650552144161516"><ele>60.0</ele><time>2026-04-29T10:49:39Z</time></trkpt><trkpt lat="50.659309891779436" lon="5.650591102495871"><ele>60.0</ele><time>2026-04-29T10:49:40Z</time></trkpt><trkpt lat="50.65941027851473" lon="5.650611097195932"><ele>60.0</ele><time>2026-04-29T10:49:41Z</time></trkpt><trkpt lat="50.659510162579906" lon="5.650626224048213"><ele>60.0</ele><time>2026-04-29T10:49:42Z</time></trkpt><trkpt lat="50.65963807432877" lon="5.650650920383914"><ele>60.0</ele><time>2026-04-29T10:49:43Z</time></trkpt><trkpt lat="50.65977456145187" lon="5.650668209153218"><ele>60.0</ele><time>2026-04-29T10:49:44Z</time></trkpt><trkpt lat="50.65988588252661" lon="5.650674558276756"><ele>60.0</ele><time>2026-04-29T10:49:45Z</time></trkpt><trkpt lat="50.659955635941415" lon="5.650715901086955"><ele>60.0</ele><time>2026-04-29T10:49:46Z</time></trkpt><trkpt lat="50.660018107539365" lon="5.650703024832166"><ele>60.0</ele><time>2026-04-29T10:50:00.001Z</time></trkpt><trkpt lat="50.65994839556128" lon="5.650635659076668"><ele>60.0</ele><time>2026-04-29T10:50:03.001Z</time></trkpt><trkpt lat="50.659886792431884" lon="5.650692776767253"><ele>60.0</ele><time>2026-04-29T10:50:05.001Z</time></trkpt><trkpt lat="50.65982317472634" lon="5.650707976992811"><ele>60.0</ele><time>2026-04-29T10:50:08.001Z</time></trkpt><trkpt lat="50.659760626825204" lon="5.650696526619535"><ele>60.0</ele><time>2026-04-29T10:50:12.001Z</time></trkpt><trkpt lat="50.65969483724168" lon="5.650684243558737"><ele>60.0</ele><time>2026-04-29T10:50:18.001Z</time></trkpt><trkpt lat="50.659626029259904" lon="5.650675272364044"><ele>60.0</ele><time>2026-04-29T10:50:26.001Z</time></trkpt><trkpt lat="50.659562765601486" lon="5.650654529716875"><ele>60.0</ele><time>2026-04-29T10:50:35.001Z</time></trkpt><trkpt lat="50.65949799045392" lon="5.650620277091961"><ele>60.0</ele><time>2026-04-29T10:50:38.001Z</time></trkpt><trkpt lat="50.659421074151616" lon="5.650582776727252"><ele>60.0</ele><time>2026-04-29T10:50:41.001Z</time></trkpt><trkpt lat="50.659402561487994" lon="5.650436567420657"><ele>60.0</ele><time>2026-04-29T10:50:44.001Z</time></trkpt><trkpt lat="50.65936840025493" lon="5.650313188125495"><ele>60.0</ele><time>2026-04-29T10:50:46.001Z</time></trkpt><trkpt lat="50.65925315921365" lon="5.650240932445771"><ele>60.0</ele><time>2026-04-29T10:50:48.001Z</time></trkpt><trkpt lat="50.65916161626462" lon="5.650365648369127"><ele>60.0</ele><time>2026-04-29T10:50:50.001Z</time></trkpt><trkpt lat="50.65916511103434" lon="5.650479283693119"><ele>60.0</ele><time>2026-04-29T10:50:51.001Z</time></trkpt><trkpt lat="50.6592213536241" lon="5.6505629152069785"><ele>60.0</ele><time>2026-04-29T10:50:52.001Z</time></trkpt><trkpt lat="50.6593009287963" lon="5.650599775112954"><ele>60.0</ele><time>2026-04-29T10:50:53.001Z</time></trkpt><trkpt lat="50.65938223162749" lon="5.650615657562987"><ele>60.0</ele><time>2026-04-29T10:50:54.001Z</time></trkpt><trkpt lat="50.65948388502466" lon="5.650636212299983"><ele>60.0</ele><time>2026-04-29T10:50:55.001Z</time></trkpt><trkpt lat="50.65961961203143" lon="5.650656867725205"><ele>60.0</ele><time>2026-04-29T10:50:56.001Z</time></trkpt><trkpt lat="50.65976766660295" lon="5.6506925913494355"><ele>60.0</ele><time>2026-04-29T10:50:57.001Z</time></trkpt><trkpt lat="50.65984676601698" lon="5.65071264552704"><ele>60.0</ele><time>2026-04-29T10:50:58.001Z</time></trkpt><trkpt lat="50.65978319824095" lon="5.650696889538436"><ele>60.0</ele><time>2026-04-29T10:51:03Z</time></trkpt><trkpt lat="50.65984817480652" lon="5.650672275659064"><ele>60.0</ele><time>2026-04-29T10:51:13Z</time></trkpt><trkpt lat="50.659784499123546" lon="5.650591216565228"><ele>60.0</ele><time>2026-04-29T10:51:16Z</time></trkpt><trkpt lat="50.659712972781655" lon="5.6506132284628965"><ele>60.0</ele><time>2026-04-29T10:51:18Z</time></trkpt><trkpt lat="50.659626469567506" lon="5.6506046701459915"><ele>60.0</ele><time>2026-04-29T10:51:21Z</time></trkpt><trkpt lat="50.65952833475427" lon="5.650570548185977"><ele>60.0</ele><time>2026-04-29T10:51:24Z</time></trkpt><trkpt lat="50.65944910379697" lon="5.650497334140636"><ele>60.0</ele><time>2026-04-29T10:51:26Z</time></trkpt><trkpt lat="50.65939296892552" lon="5.650360872419861"><ele>60.0</ele><time>2026-04-29T10:51:28Z</time></trkpt><trkpt lat="50.659345740176185" lon="5.650261378468877"><ele>60.0</ele><time>2026-04-29T10:51:30Z</time></trkpt><trkpt lat="50.659288378696615" lon="5.65021755111676"><ele>60.0</ele><time>2026-04-29T10:51:32Z</time></trkpt><trkpt lat="50.659259609625735" lon="5.650097697358775"><ele>60.0</ele><time>2026-04-29T10:52:04.001Z</time></trkpt><trkpt lat="50.65932482672386" lon="5.650042596495545"><ele>60.0</ele><time>2026-04-29T11:12:19Z</time></trkpt><trkpt lat="50.65938024682997" lon="5.649909295666837"><ele>60.0</ele><time>2026-04-29T11:12:22Z</time></trkpt><trkpt lat="50.659400593184955" lon="5.64981096332156"><ele>60.0</ele><time>2026-04-29T11:12:24Z</time></trkpt><trkpt lat="50.65938404348586" lon="5.649698634710201"><ele>60.0</ele><time>2026-04-29T11:12:26Z</time></trkpt><trkpt lat="50.6593780823206" lon="5.649596193309451"><ele>60.0</ele><time>2026-04-29T11:12:28Z</time></trkpt><trkpt lat="50.659401355825274" lon="5.649496567624253"><ele>60.0</ele><time>2026-04-29T11:12:30Z</time></trkpt><trkpt lat="50.659446527987654" lon="5.649387406168554"><ele>60.4</ele><time>2026-04-29T11:12:32Z</time></trkpt><trkpt lat="50.659497456243066" lon="5.649265522939039"><ele>60.8</ele><time>2026-04-29T11:12:34Z</time></trkpt><trkpt lat="50.65954698158965" lon="5.6491521094524995"><ele>61.2</ele><time>2026-04-29T11:12:36Z</time></trkpt><trkpt lat="50.65959999021596" lon="5.649007411994472"><ele>61.6</ele><time>2026-04-29T11:12:38Z</time></trkpt><trkpt lat="50.659654472709796" lon="5.6488539859154745"><ele>62.0</ele><time>2026-04-29T11:12:40Z</time></trkpt><trkpt lat="50.65970885714386" lon="5.648701970672568"><ele>61.66666666666667</ele><time>2026-04-29T11:12:42Z</time></trkpt><trkpt lat="50.65975572845685" lon="5.648572041870237"><ele>61.333333333333336</ele><time>2026-04-29T11:12:44Z</time></trkpt><trkpt lat="50.65978798916538" lon="5.648453614667229"><ele>61.0</ele><time>2026-04-29T11:12:46.001Z</time></trkpt><trkpt lat="50.65979605784408" lon="5.648347793199957"><ele>60.66666666666667</ele><time>2026-04-29T11:12:48.001Z</time></trkpt><trkpt lat="50.65979792558408" lon="5.648243876512191"><ele>60.333333333333336</ele><time>2026-04-29T11:12:50.001Z</time></trkpt><trkpt lat="50.65979926876332" lon="5.648136528071441"><ele>60.0</ele><time>2026-04-29T11:12:54.001Z</time></trkpt><trkpt lat="50.65966765584398" lon="5.64802709618703"><ele>60.0</ele><time>2026-04-29T11:12:58.001Z</time></trkpt><trkpt lat="50.65953855928017" lon="5.64803335223644"><ele>60.0</ele><time>2026-04-29T11:13:00.001Z</time></trkpt><trkpt lat="50.659462398300015" lon="5.648031719791693"><ele>60.0</ele><time>2026-04-29T11:13:01.001Z</time></trkpt><trkpt lat="50.65937921421829" lon="5.648024172016755"><ele>60.0</ele><time>2026-04-29T11:13:02.001Z</time></trkpt><trkpt lat="50.65929365695527" lon="5.648014713245593"><ele>60.0</ele><time>2026-04-29T11:13:03.001Z</time></trkpt><trkpt lat="50.65921305429235" lon="5.648003391350902"><ele>60.2</ele><time>2026-04-29T11:13:04.001Z</time></trkpt><trkpt lat="50.65912570224371" lon="5.647992217023111"><ele>60.4</ele><time>2026-04-29T11:13:05.001Z</time></trkpt><trkpt lat="50.65902969386203" lon="5.647978565582584"><ele>60.599999999999994</ele><time>2026-04-29T11:13:06.001Z</time></trkpt><trkpt lat="50.65893044852774" lon="5.647961936000477"><ele>60.8</ele><time>2026-04-29T11:13:07.001Z</time></trkpt><trkpt lat="50.65882693598964" lon="5.647943343947759"><ele>61.0</ele><time>2026-04-29T11:13:08.001Z</time></trkpt><trkpt lat="50.65871776244127" lon="5.647921663729993"><ele>60.75</ele><time>2026-04-29T11:13:09.001Z</time></trkpt><trkpt lat="50.65859964120831" lon="5.647897684815619"><ele>60.5</ele><time>2026-04-29T11:13:10.001Z</time></trkpt><trkpt lat="50.65847260140775" lon="5.647872846864215"><ele>60.25</ele><time>2026-04-29T11:13:11.001Z</time></trkpt><trkpt lat="50.65834628505866" lon="5.647847310754329"><ele>60.0</ele><time>2026-04-29T11:13:12.001Z</time></trkpt><trkpt lat="50.6582228520981" lon="5.647816441059681"><ele>59.75</ele><time>2026-04-29T11:13:13.001Z</time></trkpt><trkpt lat="50.65809953027144" lon="5.647784734821949"><ele>59.5</ele><time>2026-04-29T11:13:14.001Z</time></trkpt><trkpt lat="50.657979761176286" lon="5.6477505644308"><ele>59.25</ele><time>2026-04-29T11:13:15.001Z</time></trkpt><trkpt lat="50.65786338852036" lon="5.64771817400093"><ele>59.0</ele><time>2026-04-29T11:13:16.001Z</time></trkpt><trkpt lat="50.65775127237323" lon="5.647683118463565"><ele>60.0</ele><time>2026-04-29T11:13:17.001Z</time></trkpt><trkpt lat="50.65765049520703" lon="5.647645293243677"><ele>61.00000000000001</ele><time>2026-04-29T11:13:18.001Z</time></trkpt><trkpt lat="50.657543884829295" lon="5.647604697123481"><ele>62.00000000000001</ele><time>2026-04-29T11:13:19.001Z</time></trkpt><trkpt lat="50.65743100492604" lon="5.647563133863694"><ele>63.0</ele><time>2026-04-29T11:13:20.001Z</time></trkpt><trkpt lat="50.65731901642385" lon="5.64751937892763"><ele>64.0</ele><time>2026-04-29T11:13:21.001Z</time></trkpt><trkpt lat="50.65721193330907" lon="5.647476793447225"><ele>64.0</ele><time>2026-04-29T11:13:22.001Z</time></trkpt><trkpt lat="50.65711722123983" lon="5.647441121452429"><ele>64.0</ele><time>2026-04-29T11:13:23.001Z</time></trkpt><trkpt lat="50.65702505043948" lon="5.647405856457082"><ele>64.0</ele><time>2026-04-29T11:13:24.001Z</time></trkpt><trkpt lat="50.65693639375001" lon="5.6473687993664905"><ele>64.0</ele><time>2026-04-29T11:13:25.001Z</time></trkpt><trkpt lat="50.65684090506982" lon="5.647327250382639"><ele>64.0</ele><time>2026-04-29T11:13:26.001Z</time></trkpt><trkpt lat="50.65674791337697" lon="5.6472880644603904"><ele>63.666666666666664</ele><time>2026-04-29T11:13:27.001Z</time></trkpt><trkpt lat="50.656667581899214" lon="5.647253068387567"><ele>63.33333333333333</ele><time>2026-04-29T11:13:28.001Z</time></trkpt><trkpt lat="50.6566102939162" lon="5.647197346794393"><ele>63.0</ele><time>2026-04-29T11:13:29.001Z</time></trkpt><trkpt lat="50.65652792234382" lon="5.647161714122789"><ele>62.66666666666667</ele><time>2026-04-29T11:13:31.001Z</time></trkpt><trkpt lat="50.65647393315678" lon="5.6473095872135195"><ele>62.333333333333336</ele><time>2026-04-29T11:13:33.001Z</time></trkpt><trkpt lat="50.65641516785191" lon="5.647370652034222"><ele>62.0</ele><time>2026-04-29T11:13:35.001Z</time></trkpt><trkpt lat="50.656361183013345" lon="5.647442959878491"><ele>62.0</ele><time>2026-04-29T11:13:37.001Z</time></trkpt><trkpt lat="50.65625430705198" lon="5.647411248261014"><ele>62.0</ele><time>2026-04-29T11:13:39.001Z</time></trkpt><trkpt lat="50.6561569387647" lon="5.647338200332165"><ele>62.0</ele><time>2026-04-29T11:13:41.001Z</time></trkpt><trkpt lat="50.656057507620936" lon="5.64727793622834"><ele>62.0</ele><time>2026-04-29T11:13:43.001Z</time></trkpt><trkpt lat="50.65598324428208" lon="5.647273064597947"><ele>62.0</ele><time>2026-04-29T11:13:45.001Z</time></trkpt><trkpt lat="50.65592994258824" lon="5.6473627380616165"><ele>62.00000000000001</ele><time>2026-04-29T11:13:47.001Z</time></trkpt><trkpt lat="50.65590938875044" lon="5.647497589098762"><ele>62.0</ele><time>2026-04-29T11:13:49.001Z</time></trkpt><trkpt lat="50.655944281489184" lon="5.64762007886769"><ele>62.0</ele><time>2026-04-29T11:13:51.001Z</time></trkpt><trkpt lat="50.65603934229379" lon="5.647661015304362"><ele>62.0</ele><time>2026-04-29T11:13:53.001Z</time></trkpt><trkpt lat="50.65610533843573" lon="5.647689473599896"><ele>62.00000000000001</ele><time>2026-04-29T11:13:55.001Z</time></trkpt><trkpt lat="50.656180188717784" lon="5.647735429395113"><ele>62.0</ele><time>2026-04-29T11:13:58.001Z</time></trkpt><trkpt lat="50.656223885933436" lon="5.647818069525965"><ele>62.00000000000001</ele><time>2026-04-29T11:14:33Z</time></trkpt><trkpt lat="50.65627592041494" lon="5.647897163922239"><ele>62.0</ele><time>2026-04-29T11:14:47Z</time></trkpt><trkpt lat="50.656337128562214" lon="5.647944035980429"><ele>62.0</ele><time>2026-04-29T11:14:55Z</time></trkpt><trkpt lat="50.656281528385854" lon="5.647835773858028"><ele>62.0</ele><time>2026-04-29T11:23:05Z</time></trkpt><trkpt lat="50.65622969895109" lon="5.647778491224893"><ele>62.00000000000001</ele><time>2026-04-29T11:23:28Z</time></trkpt><trkpt lat="50.65630594350099" lon="5.647703105363204"><ele>62.0</ele><time>2026-04-29T11:23:57Z</time></trkpt><trkpt lat="50.65633944278971" lon="5.647601177114712"><ele>62.00000000000001</ele><time>2026-04-29T11:23:59Z</time></trkpt><trkpt lat="50.656374997225974" lon="5.647501575395637"><ele>62.0</ele><time>2026-04-29T11:24:01Z</time></trkpt><trkpt lat="50.65642198972507" lon="5.647412968639572"><ele>62.0</ele><time>2026-04-29T11:24:03Z</time></trkpt><trkpt lat="50.656475797044735" lon="5.647353645988373"><ele>62.0</ele><time>2026-04-29T11:24:05Z</time></trkpt><trkpt lat="50.65652391173666" lon="5.647287106863632"><ele>62.00000000000001</ele><time>2026-04-29T11:24:08Z</time></trkpt><trkpt lat="50.6564995792081" lon="5.647150414733221"><ele>62.0</ele><time>2026-04-29T11:24:18Z</time></trkpt><trkpt lat="50.6564007482567" lon="5.647099363562112"><ele>62.0</ele><time>2026-04-29T11:24:20Z</time></trkpt><trkpt lat="50.65633942085726" lon="5.647066654336597"><ele>62.00000000000001</ele><time>2026-04-29T11:24:21Z</time></trkpt><trkpt lat="50.65627366092609" lon="5.647031989582902"><ele>62.0</ele><time>2026-04-29T11:24:22Z</time></trkpt><trkpt lat="50.65620335872345" lon="5.646992091685321"><ele>62.0</ele><time>2026-04-29T11:24:23Z</time></trkpt><trkpt lat="50.65612849362568" lon="5.646945707599484"><ele>62.00000000000001</ele><time>2026-04-29T11:24:24Z</time></trkpt><trkpt lat="50.656054932568914" lon="5.646900791345444"><ele>62.0</ele><time>2026-04-29T11:24:25Z</time></trkpt><trkpt lat="50.655984463462765" lon="5.646858313478565"><ele>62.0</ele><time>2026-04-29T11:24:26Z</time></trkpt><trkpt lat="50.655902930695525" lon="5.646813458796437"><ele>62.0</ele><time>2026-04-29T11:24:27Z</time></trkpt><trkpt lat="50.65582067256801" lon="5.646761115015552"><ele>62.0</ele><time>2026-04-29T11:24:28Z</time></trkpt><trkpt lat="50.65573207491991" lon="5.646706628082549"><ele>62.0</ele><time>2026-04-29T11:24:29Z</time></trkpt><trkpt lat="50.65564563587137" lon="5.646645498310104"><ele>62.0</ele><time>2026-04-29T11:24:30Z</time></trkpt><trkpt lat="50.65556016577452" lon="5.646582067500495"><ele>62.0</ele><time>2026-04-29T11:24:31.001Z</time></trkpt><trkpt lat="50.65547189833124" lon="5.646516953627959"><ele>62.0</ele><time>2026-04-29T11:24:32.001Z</time></trkpt><trkpt lat="50.655383706792605" lon="5.646450816430626"><ele>62.0</ele><time>2026-04-29T11:24:33.002Z</time></trkpt><trkpt lat="50.65529890236337" lon="5.646382424296764"><ele>62.0</ele><time>2026-04-29T11:24:34Z</time></trkpt><trkpt lat="50.65521557850099" lon="5.646313810768629"><ele>62.0</ele><time>2026-04-29T11:24:35Z</time></trkpt><trkpt lat="50.655132186290025" lon="5.646241831926706"><ele>62.0</ele><time>2026-04-29T11:24:36Z</time></trkpt><trkpt lat="50.6550482693946" lon="5.646163369358807"><ele>61.833333333333336</ele><time>2026-04-29T11:24:37Z</time></trkpt><trkpt lat="50.6549755368804" lon="5.646093794299732"><ele>61.66666666666667</ele><time>2026-04-29T11:24:38Z</time></trkpt><trkpt lat="50.65491101188672" lon="5.646036074331825"><ele>61.5</ele><time>2026-04-29T11:24:39Z</time></trkpt><trkpt lat="50.65484592973292" lon="5.645979967107453"><ele>61.33333333333333</ele><time>2026-04-29T11:24:40Z</time></trkpt><trkpt lat="50.654728354330025" lon="5.64592107930582"><ele>61.166666666666664</ele><time>2026-04-29T11:24:42Z</time></trkpt><trkpt lat="50.65466066955837" lon="5.645921297542878"><ele>61.0</ele><time>2026-04-29T11:24:43Z</time></trkpt><trkpt lat="50.65455230982997" lon="5.6459869911519"><ele>61.0</ele><time>2026-04-29T11:24:45Z</time></trkpt><trkpt lat="50.654490329645036" lon="5.646065917070672"><ele>60.99999999999999</ele><time>2026-04-29T11:24:47Z</time></trkpt><trkpt lat="50.654435853870105" lon="5.646125316630228"><ele>60.99999999999999</ele><time>2026-04-29T11:25:01Z</time></trkpt><trkpt lat="50.65447512778221" lon="5.64632883019515"><ele>61.0</ele><time>2026-04-29T11:25:05Z</time></trkpt><trkpt lat="50.654551190594425" lon="5.646460041594703"><ele>61.0</ele><time>2026-04-29T11:25:07Z</time></trkpt><trkpt lat="50.65460180160296" lon="5.646540506102615"><ele>61.83333333333333</ele><time>2026-04-29T11:25:08Z</time></trkpt><trkpt lat="50.654656692137465" lon="5.646623238297292"><ele>62.666666666666664</ele><time>2026-04-29T11:25:09Z</time></trkpt><trkpt lat="50.6547076736209" lon="5.64669814087549"><ele>63.5</ele><time>2026-04-29T11:25:10Z</time></trkpt><trkpt lat="50.654754784084844" lon="5.646772112974344"><ele>64.33333333333333</ele><time>2026-04-29T11:25:11Z</time></trkpt><trkpt lat="50.65480918423514" lon="5.646862632068633"><ele>65.16666666666667</ele><time>2026-04-29T11:25:12Z</time></trkpt><trkpt lat="50.65487062948436" lon="5.646959277172343"><ele>66.0</ele><time>2026-04-29T11:25:13Z</time></trkpt><trkpt lat="50.65493272823859" lon="5.647056051211258"><ele>65.83333333333333</ele><time>2026-04-29T11:25:14.001Z</time></trkpt><trkpt lat="50.65499352483606" lon="5.647150133115356"><ele>65.66666666666667</ele><time>2026-04-29T11:25:15.001Z</time></trkpt><trkpt lat="50.65505530335125" lon="5.6472443404554165"><ele>65.5</ele><time>2026-04-29T11:25:16.001Z</time></trkpt><trkpt lat="50.655118634147115" lon="5.647336096569038"><ele>65.33333333333334</ele><time>2026-04-29T11:25:17.001Z</time></trkpt><trkpt lat="50.655183143391845" lon="5.6474228355175145"><ele>65.16666666666667</ele><time>2026-04-29T11:25:18.001Z</time></trkpt><trkpt lat="50.655242263270125" lon="5.647499313855427"><ele>65.0</ele><time>2026-04-29T11:25:19.001Z</time></trkpt><trkpt lat="50.6553034628645" lon="5.647582265335602"><ele>65.0</ele><time>2026-04-29T11:25:20.001Z</time></trkpt><trkpt lat="50.65537277977092" lon="5.647678205414537"><ele>65.0</ele><time>2026-04-29T11:25:21.001Z</time></trkpt><trkpt lat="50.655446397018096" lon="5.647787022515772"><ele>65.0</ele><time>2026-04-29T11:25:22.001Z</time></trkpt><trkpt lat="50.655519415161265" lon="5.647903375025659"><ele>65.0</ele><time>2026-04-29T11:25:23.001Z</time></trkpt><trkpt lat="50.655597766376594" lon="5.648020483299583"><ele>65.0</ele><time>2026-04-29T11:25:24.001Z</time></trkpt><trkpt lat="50.655682033174735" lon="5.648139270161509"><ele>66.6</ele><time>2026-04-29T11:25:25.001Z</time></trkpt><trkpt lat="50.65576952967813" lon="5.648260622615511"><ele>68.2</ele><time>2026-04-29T11:25:26.001Z</time></trkpt><trkpt lat="50.65585207643391" lon="5.648375335691468"><ele>69.8</ele><time>2026-04-29T11:25:27.001Z</time></trkpt><trkpt lat="50.6559280714801" lon="5.6484812045526755"><ele>71.4</ele><time>2026-04-29T11:25:28.001Z</time></trkpt><trkpt lat="50.656012032305576" lon="5.648594920700738"><ele>73.0</ele><time>2026-04-29T11:25:29.001Z</time></trkpt><trkpt lat="50.65610104574278" lon="5.648713606535642"><ele>71.0</ele><time>2026-04-29T11:25:30.001Z</time></trkpt><trkpt lat="50.6561908051649" lon="5.6488313830699015"><ele>69.0</ele><time>2026-04-29T11:25:31.001Z</time></trkpt><trkpt lat="50.65628019170736" lon="5.64895024526711"><ele>67.0</ele><time>2026-04-29T11:25:32.001Z</time></trkpt><trkpt lat="50.656372221077916" lon="5.649061450855929"><ele>65.0</ele><time>2026-04-29T11:25:33.001Z</time></trkpt><trkpt lat="50.65646509180889" lon="5.64917503427562"><ele>65.0</ele><time>2026-04-29T11:25:34.001Z</time></trkpt><trkpt lat="50.656553439042376" lon="5.649285848434745"><ele>65.0</ele><time>2026-04-29T11:25:35.001Z</time></trkpt><trkpt lat="50.65664339384759" lon="5.649401536559655"><ele>65.0</ele><time>2026-04-29T11:25:36.001Z</time></trkpt><trkpt lat="50.65673466274938" lon="5.649519136491107"><ele>65.0</ele><time>2026-04-29T11:25:37.001Z</time></trkpt><trkpt lat="50.65682339687238" lon="5.649637445200762"><ele>64.8</ele><time>2026-04-29T11:25:38.001Z</time></trkpt><trkpt lat="50.65691047394206" lon="5.649758027203025"><ele>64.6</ele><time>2026-04-29T11:25:39.001Z</time></trkpt><trkpt lat="50.656995561002944" lon="5.649870331554722"><ele>64.4</ele><time>2026-04-29T11:25:40.001Z</time></trkpt><trkpt lat="50.65707156741901" lon="5.64998135573864"><ele>64.2</ele><time>2026-04-29T11:25:41.001Z</time></trkpt><trkpt lat="50.657145295413976" lon="5.650101227692772"><ele>64.0</ele><time>2026-04-29T11:25:42.001Z</time></trkpt><trkpt lat="50.65721561492443" lon="5.650223547776689"><ele>65.0</ele><time>2026-04-29T11:25:43.001Z</time></trkpt><trkpt lat="50.65729031120838" lon="5.650343938291197"><ele>66.0</ele><time>2026-04-29T11:25:44.001Z</time></trkpt><trkpt lat="50.65736777443316" lon="5.6504666089986815"><ele>67.0</ele><time>2026-04-29T11:25:45.001Z</time></trkpt><trkpt lat="50.657446430980436" lon="5.65059229829543"><ele>68.0</ele><time>2026-04-29T11:25:46.001Z</time></trkpt><trkpt lat="50.65752506648516" lon="5.650717779396003"><ele>69.0</ele><time>2026-04-29T11:25:47.001Z</time></trkpt><trkpt lat="50.65760173640192" lon="5.650839535811234"><ele>69.0</ele><time>2026-04-29T11:25:48.001Z</time></trkpt><trkpt lat="50.657675801023125" lon="5.6509522208250065"><ele>69.0</ele><time>2026-04-29T11:25:49.001Z</time></trkpt><trkpt lat="50.6577500144563" lon="5.651065347945492"><ele>69.0</ele><time>2026-04-29T11:25:50.001Z</time></trkpt><trkpt lat="50.65782590878748" lon="5.65117777292301"><ele>69.0</ele><time>2026-04-29T11:25:51.001Z</time></trkpt><trkpt lat="50.6578983425673" lon="5.651297143305271"><ele>69.0</ele><time>2026-04-29T11:25:52.001Z</time></trkpt><trkpt lat="50.65797827131289" lon="5.651415748350161"><ele>69.0</ele><time>2026-04-29T11:25:53.001Z</time></trkpt><trkpt lat="50.65805852401154" lon="5.651532854129246"><ele>69.0</ele><time>2026-04-29T11:25:54.001Z</time></trkpt><trkpt lat="50.658143667644964" lon="5.651642846172571"><ele>69.0</ele><time>2026-04-29T11:25:55.001Z</time></trkpt><trkpt lat="50.65823146779926" lon="5.651747008010057"><ele>69.0</ele><time>2026-04-29T11:25:56.001Z</time></trkpt><trkpt lat="50.65832404459545" lon="5.651846202669532"><ele>69.0</ele><time>2026-04-29T11:25:57.001Z</time></trkpt><trkpt lat="50.65842232181076" lon="5.651939753232917"><ele>69.4</ele><time>2026-04-29T11:25:58.001Z</time></trkpt><trkpt lat="50.65852389231398" lon="5.652027708273715"><ele>69.80000000000001</ele><time>2026-04-29T11:25:59.001Z</time></trkpt><trkpt lat="50.658626478084386" lon="5.652105163131711"><ele>70.19999999999999</ele><time>2026-04-29T11:26:00.001Z</time></trkpt><trkpt lat="50.65872389395885" lon="5.652179744169488"><ele>70.6</ele><time>2026-04-29T11:26:01.001Z</time></trkpt><trkpt lat="50.658814829466095" lon="5.652255177180085"><ele>71.0</ele><time>2026-04-29T11:26:02.001Z</time></trkpt><trkpt lat="50.65890739971635" lon="5.652314955428215"><ele>70.16666666666667</ele><time>2026-04-29T11:26:03.001Z</time></trkpt><trkpt lat="50.65899212078846" lon="5.652382535209916"><ele>69.33333333333334</ele><time>2026-04-29T11:26:04.001Z</time></trkpt><trkpt lat="50.65907833766128" lon="5.652452831656504"><ele>68.5</ele><time>2026-04-29T11:26:05.001Z</time></trkpt><trkpt lat="50.659161809929074" lon="5.652521196551626"><ele>67.66666666666667</ele><time>2026-04-29T11:26:06.001Z</time></trkpt><trkpt lat="50.659234457051255" lon="5.6525740603769945"><ele>66.83333333333333</ele><time>2026-04-29T11:26:07.001Z</time></trkpt><trkpt lat="50.65930065760444" lon="5.652622572480261"><ele>66.0</ele><time>2026-04-29T11:26:08.001Z</time></trkpt><trkpt lat="50.65936110399595" lon="5.652676914470401"><ele>65.6</ele><time>2026-04-29T11:26:09.001Z</time></trkpt><trkpt lat="50.65945237748421" lon="5.652758130150517"><ele>65.19999999999999</ele><time>2026-04-29T11:26:11.001Z</time></trkpt><trkpt lat="50.65951564241951" lon="5.652807108129295"><ele>64.80000000000001</ele><time>2026-04-29T11:26:13.001Z</time></trkpt><trkpt lat="50.65964451124425" lon="5.652681875458323"><ele>64.4</ele><time>2026-04-29T11:26:17.001Z</time></trkpt><trkpt lat="50.65969581177292" lon="5.65258440825159"><ele>64.0</ele><time>2026-04-29T11:26:19.001Z</time></trkpt><trkpt lat="50.659753124282595" lon="5.652487235917756"><ele>63.83333333333333</ele><time>2026-04-29T11:26:21.001Z</time></trkpt><trkpt lat="50.65980545598961" lon="5.652387391256019"><ele>63.666666666666664</ele><time>2026-04-29T11:26:24.001Z</time></trkpt><trkpt lat="50.65986080278391" lon="5.652339620554476"><ele>63.5</ele><time>2026-04-29T11:26:28.001Z</time></trkpt><trkpt lat="50.659943289433535" lon="5.6522616906918"><ele>63.33333333333333</ele><time>2026-04-29T11:27:24.001Z</time></trkpt><trkpt lat="50.66000795261512" lon="5.652221886290252"><ele>63.166666666666664</ele><time>2026-04-29T11:27:26.001Z</time></trkpt><trkpt lat="50.66009230275437" lon="5.652140592318896"><ele>63.0</ele><time>2026-04-29T11:27:28.001Z</time></trkpt><trkpt lat="50.66021228482014" lon="5.652053199540522"><ele>63.0</ele><time>2026-04-29T11:27:30.001Z</time></trkpt><trkpt lat="50.660279937360265" lon="5.652005776598382"><ele>63.0</ele><time>2026-04-29T11:27:31.001Z</time></trkpt><trkpt lat="50.660337893702575" lon="5.651960240338121"><ele>63.0</ele><time>2026-04-29T11:27:32.001Z</time></trkpt><trkpt lat="50.660405323253535" lon="5.651916714907491"><ele>63.0</ele><time>2026-04-29T11:27:33.001Z</time></trkpt><trkpt lat="50.660478282833125" lon="5.6518630266573675"><ele>63.0</ele><time>2026-04-29T11:27:34.001Z</time></trkpt><trkpt lat="50.660551310705486" lon="5.651812731764157"><ele>63.0</ele><time>2026-04-29T11:27:35.001Z</time></trkpt><trkpt lat="50.6606198260384" lon="5.651762160465065"><ele>63.0</ele><time>2026-04-29T11:27:36.001Z</time></trkpt><trkpt lat="50.6606922560105" lon="5.65171165479833"><ele>62.5</ele><time>2026-04-29T11:27:37.001Z</time></trkpt><trkpt lat="50.66076868535233" lon="5.651658946125838"><ele>62.0</ele><time>2026-04-29T11:27:38.001Z</time></trkpt><trkpt lat="50.66085365997968" lon="5.651624881697265"><ele>61.5</ele><time>2026-04-29T11:27:39.001Z</time></trkpt><trkpt lat="50.660923801295226" lon="5.6515780101785165"><ele>61.0</ele><time>2026-04-29T11:27:40.001Z</time></trkpt><trkpt lat="50.660977433564774" lon="5.651513442048257"><ele>60.5</ele><time>2026-04-29T11:27:41.001Z</time></trkpt><trkpt lat="50.66108129849002" lon="5.651448921972811"><ele>60.0</ele><time>2026-04-29T11:27:43.001Z</time></trkpt><trkpt lat="50.661157433481634" lon="5.651388347564527"><ele>60.0</ele><time>2026-04-29T11:27:45.001Z</time></trkpt><trkpt lat="50.66122187615509" lon="5.6513419633696005"><ele>60.0</ele><time>2026-04-29T11:27:47.001Z</time></trkpt><trkpt lat="50.66128117443912" lon="5.651284512381845"><ele>60.0</ele><time>2026-04-29T11:27:49.001Z</time></trkpt><trkpt lat="50.661374222001506" lon="5.651212191900529"><ele>60.0</ele><time>2026-04-29T11:27:51.001Z</time></trkpt><trkpt lat="50.66147435172277" lon="5.6511395194378995"><ele>60.0</ele><time>2026-04-29T11:27:53.001Z</time></trkpt><trkpt lat="50.661573319161135" lon="5.651070997050206"><ele>60.0</ele><time>2026-04-29T11:27:55.001Z</time></trkpt><trkpt lat="50.66163726586457" lon="5.65106814205361"><ele>60.0</ele><time>2026-04-29T11:27:56.001Z</time></trkpt><trkpt lat="50.66170459597607" lon="5.6510637779802435"><ele>60.0</ele><time>2026-04-29T11:27:57.001Z</time></trkpt><trkpt lat="50.66177352797485" lon="5.651060112057793"><ele>60.0</ele><time>2026-04-29T11:27:58.001Z</time></trkpt><trkpt lat="50.661842362678165" lon="5.651053403647176"><ele>60.0</ele><time>2026-04-29T11:27:59.001Z</time></trkpt><trkpt lat="50.66191242319168" lon="5.651045415773079"><ele>60.0</ele><time>2026-04-29T11:28:00.001Z</time></trkpt><trkpt lat="50.66198912528297" lon="5.651035218055926"><ele>60.0</ele><time>2026-04-29T11:28:01.001Z</time></trkpt><trkpt lat="50.662062246381254" lon="5.651023794460493"><ele>60.0</ele><time>2026-04-29T11:28:02.001Z</time></trkpt><trkpt lat="50.66214024205916" lon="5.6510090727822915"><ele>60.0</ele><time>2026-04-29T11:28:03.001Z</time></trkpt><trkpt lat="50.662218301776434" lon="5.650991178254787"><ele>60.0</ele><time>2026-04-29T11:28:04.001Z</time></trkpt><trkpt lat="50.66229914112529" lon="5.650972321486753"><ele>60.0</ele><time>2026-04-29T11:28:05.001Z</time></trkpt><trkpt lat="50.662384431428194" lon="5.650953557282045"><ele>60.0</ele><time>2026-04-29T11:28:06.001Z</time></trkpt><trkpt lat="50.662472169075876" lon="5.6509326146995"><ele>60.0</ele><time>2026-04-29T11:28:07.001Z</time></trkpt><trkpt lat="50.662547427762306" lon="5.650915281107481"><ele>60.0</ele><time>2026-04-29T11:28:08.001Z</time></trkpt><trkpt lat="50.662619787108866" lon="5.650898941424377"><ele>60.0</ele><time>2026-04-29T11:28:09.001Z</time></trkpt><trkpt lat="50.66269566302073" lon="5.650879143228313"><ele>60.0</ele><time>2026-04-29T11:28:10.001Z</time></trkpt><trkpt lat="50.66277053540287" lon="5.650858770846655"><ele>60.0</ele><time>2026-04-29T11:28:11.001Z</time></trkpt><trkpt lat="50.66284003434776" lon="5.6508408828757455"><ele>60.0</ele><time>2026-04-29T11:28:12.001Z</time></trkpt><trkpt lat="50.66291120342562" lon="5.650827338782758"><ele>60.0</ele><time>2026-04-29T11:28:13.001Z</time></trkpt><trkpt lat="50.66298370727671" lon="5.650839585655478"><ele>60.0</ele><time>2026-04-29T11:28:14.001Z</time></trkpt><trkpt lat="50.663050986680496" lon="5.650876860842877"><ele>59.5</ele><time>2026-04-29T11:28:15.001Z</time></trkpt><trkpt lat="50.663109938021044" lon="5.650928645128401"><ele>59.0</ele><time>2026-04-29T11:28:16.001Z</time></trkpt><trkpt lat="50.66320370590395" lon="5.651014681044884"><ele>58.5</ele><time>2026-04-29T11:28:18.001Z</time></trkpt><trkpt lat="50.663273199148435" lon="5.651080005129941"><ele>58.0</ele><time>2026-04-29T11:28:20.001Z</time></trkpt><trkpt lat="50.66335197789925" lon="5.651146138731374"><ele>57.5</ele><time>2026-04-29T11:28:22.001Z</time></trkpt><trkpt lat="50.66343922168451" lon="5.651216753028467"><ele>57.0</ele><time>2026-04-29T11:28:24.001Z</time></trkpt><trkpt lat="50.66352115736185" lon="5.651283128071458"><ele>57.0</ele><time>2026-04-29T11:28:26.001Z</time></trkpt><trkpt lat="50.66357681604463" lon="5.651338240779181"><ele>57.0</ele><time>2026-04-29T11:28:29.001Z</time></trkpt><trkpt lat="50.66351092246162" lon="5.651584597809484"><ele>57.0</ele><time>2026-04-29T11:28:37.001Z</time></trkpt><trkpt lat="50.66346181150347" lon="5.6517400196403615"><ele>57.0</ele><time>2026-04-29T11:28:39.001Z</time></trkpt><trkpt lat="50.66343341273187" lon="5.651829893356094"><ele>57.0</ele><time>2026-04-29T11:28:40.001Z</time></trkpt><trkpt lat="50.66341578392394" lon="5.651930939099111"><ele>57.2</ele><time>2026-04-29T11:28:41.001Z</time></trkpt><trkpt lat="50.663367924899774" lon="5.652083245637666"><ele>57.400000000000006</ele><time>2026-04-29T11:28:43.001Z</time></trkpt><trkpt lat="50.663314566078746" lon="5.652255585290742"><ele>57.599999999999994</ele><time>2026-04-29T11:28:45.001Z</time></trkpt><trkpt lat="50.66326039190024" lon="5.652434106263936"><ele>57.8</ele><time>2026-04-29T11:28:47Z</time></trkpt><trkpt lat="50.663231807277235" lon="5.652525588615649"><ele>58.0</ele><time>2026-04-29T11:28:48Z</time></trkpt><trkpt lat="50.663202563534156" lon="5.652620714011572"><ele>58.00000000000001</ele><time>2026-04-29T11:28:49Z</time></trkpt><trkpt lat="50.663177290824095" lon="5.652716369329105"><ele>58.0</ele><time>2026-04-29T11:28:50Z</time></trkpt><trkpt lat="50.6631520299255" lon="5.652814120905612"><ele>58.00000000000001</ele><time>2026-04-29T11:28:51Z</time></trkpt><trkpt lat="50.663122098729964" lon="5.65291165510153"><ele>58.00000000000001</ele><time>2026-04-29T11:28:52Z</time></trkpt><trkpt lat="50.66309094128325" lon="5.653007684588142"><ele>58.0</ele><time>2026-04-29T11:28:53Z</time></trkpt><trkpt lat="50.66303904721931" lon="5.65315449257005"><ele>58.00000000000001</ele><time>2026-04-29T11:28:55Z</time></trkpt><trkpt lat="50.66299733546462" lon="5.653244372305679"><ele>58.00000000000001</ele><time>2026-04-29T11:28:57Z</time></trkpt><trkpt lat="50.662969386145654" lon="5.653352882610001"><ele>58.2</ele><time>2026-04-29T11:29:04Z</time></trkpt><trkpt lat="50.66313744198115" lon="5.653461733978508"><ele>58.4</ele><time>2026-04-29T11:29:07Z</time></trkpt><trkpt lat="50.663199364359365" lon="5.653507931749015"><ele>58.60000000000001</ele><time>2026-04-29T11:29:08Z</time></trkpt><trkpt lat="50.66325604742761" lon="5.653553530500714"><ele>58.800000000000004</ele><time>2026-04-29T11:29:09Z</time></trkpt><trkpt lat="50.66337233658943" lon="5.653637294531184"><ele>59.0</ele><time>2026-04-29T11:29:11Z</time></trkpt><trkpt lat="50.663442548970195" lon="5.653689978548687"><ele>59.00000000000001</ele><time>2026-04-29T11:29:12Z</time></trkpt><trkpt lat="50.66351705452108" lon="5.653738728663533"><ele>59.0</ele><time>2026-04-29T11:29:13Z</time></trkpt><trkpt lat="50.66358865230662" lon="5.65378606924132"><ele>59.0</ele><time>2026-04-29T11:29:14Z</time></trkpt><trkpt lat="50.66365815171388" lon="5.653835563842794"><ele>59.0</ele><time>2026-04-29T11:29:15Z</time></trkpt><trkpt lat="50.6637315573625" lon="5.653890423480601"><ele>59.00000000000001</ele><time>2026-04-29T11:29:16Z</time></trkpt><trkpt lat="50.66379855047979" lon="5.653938173995743"><ele>59.0</ele><time>2026-04-29T11:29:17Z</time></trkpt><trkpt lat="50.663869289301715" lon="5.653987505857923"><ele>59.00000000000001</ele><time>2026-04-29T11:29:18Z</time></trkpt><trkpt lat="50.663939221906745" lon="5.654038633351373"><ele>59.0</ele><time>2026-04-29T11:29:19Z</time></trkpt><trkpt lat="50.66401086856739" lon="5.654090472444037"><ele>59.0</ele><time>2026-04-29T11:29:20Z</time></trkpt><trkpt lat="50.66407953983866" lon="5.654144211926952"><ele>59.0</ele><time>2026-04-29T11:29:21Z</time></trkpt><trkpt lat="50.66414911411728" lon="5.654192951164174"><ele>59.00000000000001</ele><time>2026-04-29T11:29:22Z</time></trkpt><trkpt lat="50.66421808092788" lon="5.654233777684239"><ele>59.0</ele><time>2026-04-29T11:29:23Z</time></trkpt><trkpt lat="50.6642870549134" lon="5.654258481057866"><ele>59.0</ele><time>2026-04-29T11:29:24Z</time></trkpt><trkpt lat="50.66434347214049" lon="5.654320239446595"><ele>59.0</ele><time>2026-04-29T11:29:25Z</time></trkpt><trkpt lat="50.664411585924206" lon="5.654342129546391"><ele>59.0</ele><time>2026-04-29T11:29:26Z</time></trkpt><trkpt lat="50.66446855387192" lon="5.654399718170079"><ele>59.0</ele><time>2026-04-29T11:29:27Z</time></trkpt><trkpt lat="50.66452843051615" lon="5.654445089179355"><ele>59.0</ele><time>2026-04-29T11:29:28Z</time></trkpt><trkpt lat="50.664589866860254" lon="5.6544870764435196"><ele>59.0</ele><time>2026-04-29T11:29:29Z</time></trkpt><trkpt lat="50.66464996783645" lon="5.654528716538915"><ele>59.0</ele><time>2026-04-29T11:29:30Z</time></trkpt><trkpt lat="50.66475533239082" lon="5.654602156792156"><ele>58.800000000000004</ele><time>2026-04-29T11:29:32.001Z</time></trkpt><trkpt lat="50.66483866348889" lon="5.654663862703285"><ele>58.60000000000001</ele><time>2026-04-29T11:29:34.001Z</time></trkpt><trkpt lat="50.66491571140068" lon="5.6547216625390035"><ele>58.4</ele><time>2026-04-29T11:29:36.001Z</time></trkpt><trkpt lat="50.665011690290925" lon="5.6547816680338485"><ele>58.2</ele><time>2026-04-29T11:29:38.001Z</time></trkpt><trkpt lat="50.66511959828073" lon="5.654864494366392"><ele>58.0</ele><time>2026-04-29T11:29:40.001Z</time></trkpt><trkpt lat="50.66517732359294" lon="5.654909847220818"><ele>57.99999999999999</ele><time>2026-04-29T11:29:41.001Z</time></trkpt><trkpt lat="50.665240837345" lon="5.6549596353996545"><ele>58.0</ele><time>2026-04-29T11:29:42.001Z</time></trkpt><trkpt lat="50.66531056021414" lon="5.655013129923755"><ele>58.0</ele><time>2026-04-29T11:29:43.001Z</time></trkpt><trkpt lat="50.66538709441858" lon="5.655068266762715"><ele>58.0</ele><time>2026-04-29T11:29:44.001Z</time></trkpt><trkpt lat="50.66546213068888" lon="5.655121591956459"><ele>57.99999999999999</ele><time>2026-04-29T11:29:45.001Z</time></trkpt><trkpt lat="50.665527456750574" lon="5.655167986803199"><ele>58.0</ele><time>2026-04-29T11:29:46.001Z</time></trkpt><trkpt lat="50.665585882067674" lon="5.655209324952171"><ele>57.8</ele><time>2026-04-29T11:29:47.001Z</time></trkpt><trkpt lat="50.66568405511364" lon="5.655275568176086"><ele>57.599999999999994</ele><time>2026-04-29T11:29:49.001Z</time></trkpt><trkpt lat="50.66575323903244" lon="5.655312402899464"><ele>57.400000000000006</ele><time>2026-04-29T11:29:51.001Z</time></trkpt><trkpt lat="50.66583249955341" lon="5.655353512922864"><ele>57.2</ele><time>2026-04-29T11:29:53.001Z</time></trkpt><trkpt lat="50.6659284241213" lon="5.655411755488933"><ele>57.0</ele><time>2026-04-29T11:29:55.001Z</time></trkpt><trkpt lat="50.66603791007157" lon="5.655482899221754"><ele>57.0</ele><time>2026-04-29T11:29:57.001Z</time></trkpt><trkpt lat="50.666099325421236" lon="5.655521117366855"><ele>57.0</ele><time>2026-04-29T11:29:58.001Z</time></trkpt><trkpt lat="50.66617010621598" lon="5.655561273184"><ele>57.0</ele><time>2026-04-29T11:29:59.001Z</time></trkpt><trkpt lat="50.666243847048335" lon="5.65560570748506"><ele>57.0</ele><time>2026-04-29T11:30:00.001Z</time></trkpt><trkpt lat="50.66632234673926" lon="5.655650941732764"><ele>57.0</ele><time>2026-04-29T11:30:01.001Z</time></trkpt><trkpt lat="50.66640439128612" lon="5.655692105725599"><ele>57.0</ele><time>2026-04-29T11:30:02.001Z</time></trkpt><trkpt lat="50.66648616539178" lon="5.655732049846414"><ele>57.0</ele><time>2026-04-29T11:30:03.001Z</time></trkpt><trkpt lat="50.66656746669709" lon="5.655773251345208"><ele>57.0</ele><time>2026-04-29T11:30:04.001Z</time></trkpt><trkpt lat="50.66665391997429" lon="5.655812438968865"><ele>57.0</ele><time>2026-04-29T11:30:05.001Z</time></trkpt><trkpt lat="50.6667369553706" lon="5.655851996249525"><ele>57.0</ele><time>2026-04-29T11:30:06.001Z</time></trkpt><trkpt lat="50.666820070322416" lon="5.655885359084828"><ele>57.0</ele><time>2026-04-29T11:30:07.001Z</time></trkpt><trkpt lat="50.66688821656296" lon="5.655907590151136"><ele>57.0</ele><time>2026-04-29T11:30:08.001Z</time></trkpt><trkpt lat="50.666956982280794" lon="5.65591761258816"><ele>57.0</ele><time>2026-04-29T11:30:09.001Z</time></trkpt><trkpt lat="50.66708522312272" lon="5.6559128454474195"><ele>57.0</ele><time>2026-04-29T11:30:11.001Z</time></trkpt><trkpt lat="50.66715815461546" lon="5.655985106696426"><ele>57.0</ele><time>2026-04-29T11:30:12.001Z</time></trkpt><trkpt lat="50.66723107153329" lon="5.65603364793973"><ele>57.0</ele><time>2026-04-29T11:30:13.001Z</time></trkpt><trkpt lat="50.667307666652576" lon="5.65608567183021"><ele>57.0</ele><time>2026-04-29T11:30:14.001Z</time></trkpt><trkpt lat="50.6673898517388" lon="5.656139480394809"><ele>56.833333333333336</ele><time>2026-04-29T11:30:15.001Z</time></trkpt><trkpt lat="50.667472661966656" lon="5.656193179023561"><ele>56.66666666666667</ele><time>2026-04-29T11:30:16.001Z</time></trkpt><trkpt lat="50.66754595098656" lon="5.656240700255776"><ele>56.5</ele><time>2026-04-29T11:30:17.001Z</time></trkpt><trkpt lat="50.66762263730201" lon="5.656288227077885"><ele>56.333333333333336</ele><time>2026-04-29T11:30:18.001Z</time></trkpt><trkpt lat="50.667695349002614" lon="5.656332600025838"><ele>56.16666666666667</ele><time>2026-04-29T11:30:19.001Z</time></trkpt><trkpt lat="50.667763127455025" lon="5.656374851063982"><ele>56.0</ele><time>2026-04-29T11:30:20.001Z</time></trkpt><trkpt lat="50.667825044882264" lon="5.656420804649592"><ele>56.0</ele><time>2026-04-29T11:30:21.001Z</time></trkpt><trkpt lat="50.66793522085217" lon="5.656501019523743"><ele>55.99999999999999</ele><time>2026-04-29T11:30:23.001Z</time></trkpt><trkpt lat="50.6680387969867" lon="5.656572482413978"><ele>55.99999999999999</ele><time>2026-04-29T11:30:25.001Z</time></trkpt><trkpt lat="50.66815216318698" lon="5.656647138409495"><ele>56.0</ele><time>2026-04-29T11:30:27.001Z</time></trkpt><trkpt lat="50.66821149819884" lon="5.656688866383308"><ele>56.0</ele><time>2026-04-29T11:30:28.001Z</time></trkpt><trkpt lat="50.66827557180995" lon="5.656732131378932"><ele>56.0</ele><time>2026-04-29T11:30:29.001Z</time></trkpt><trkpt lat="50.6683435437989" lon="5.656777449153197"><ele>56.0</ele><time>2026-04-29T11:30:30.001Z</time></trkpt><trkpt lat="50.66841310036422" lon="5.656822321392773"><ele>56.0</ele><time>2026-04-29T11:30:31.001Z</time></trkpt><trkpt lat="50.66848068864219" lon="5.656867553035054"><ele>56.0</ele><time>2026-04-29T11:30:32.001Z</time></trkpt><trkpt lat="50.66854125729871" lon="5.656919941007573"><ele>56.0</ele><time>2026-04-29T11:30:33.001Z</time></trkpt><trkpt lat="50.66860179605741" lon="5.656973441289271"><ele>56.0</ele><time>2026-04-29T11:30:34.001Z</time></trkpt><trkpt lat="50.66866707392766" lon="5.657021292953698"><ele>56.0</ele><time>2026-04-29T11:30:35.001Z</time></trkpt><trkpt lat="50.66872980762952" lon="5.657064811531134"><ele>56.599999999999994</ele><time>2026-04-29T11:30:36.001Z</time></trkpt><trkpt lat="50.66882761173534" lon="5.657137624579839"><ele>57.199999999999996</ele><time>2026-04-29T11:30:38.001Z</time></trkpt><trkpt lat="50.66892775849578" lon="5.657211811280981"><ele>57.800000000000004</ele><time>2026-04-29T11:30:40.001Z</time></trkpt><trkpt lat="50.66904198284856" lon="5.6573018353841205"><ele>58.400000000000006</ele><time>2026-04-29T11:30:42.001Z</time></trkpt><trkpt lat="50.66910302217187" lon="5.657349166259054"><ele>59.0</ele><time>2026-04-29T11:30:43.001Z</time></trkpt><trkpt lat="50.66920408833183" lon="5.657423334710601"><ele>59.0</ele><time>2026-04-29T11:30:45.001Z</time></trkpt><trkpt lat="50.66929548930248" lon="5.657492047482266"><ele>59.00000000000001</ele><time>2026-04-29T11:30:47.001Z</time></trkpt><trkpt lat="50.669386852893915" lon="5.65758886152688"><ele>59.00000000000001</ele><time>2026-04-29T11:30:49.001Z</time></trkpt><trkpt lat="50.66948031525582" lon="5.657638013739562"><ele>59.0</ele><time>2026-04-29T11:30:51.001Z</time></trkpt><trkpt lat="50.66955589450884" lon="5.657699555750369"><ele>59.0</ele><time>2026-04-29T11:30:54Z</time></trkpt><trkpt lat="50.66962531914968" lon="5.657780932973536"><ele>58.800000000000004</ele><time>2026-04-29T11:30:56Z</time></trkpt><trkpt lat="50.66972659844953" lon="5.657869661851894"><ele>58.60000000000001</ele><time>2026-04-29T11:30:58Z</time></trkpt><trkpt lat="50.669782120751144" lon="5.657923127527789"><ele>58.4</ele><time>2026-04-29T11:30:59Z</time></trkpt><trkpt lat="50.66988182485484" lon="5.658025313011994"><ele>58.2</ele><time>2026-04-29T11:31:01Z</time></trkpt><trkpt lat="50.66993627368138" lon="5.65808427570295"><ele>58.0</ele><time>2026-04-29T11:31:02Z</time></trkpt><trkpt lat="50.67002765324981" lon="5.658202540893237"><ele>57.99999999999999</ele><time>2026-04-29T11:31:04Z</time></trkpt><trkpt lat="50.670101990600095" lon="5.6582982557865105"><ele>58.0</ele><time>2026-04-29T11:31:06Z</time></trkpt><trkpt lat="50.67015555729474" lon="5.658378777421725"><ele>58.0</ele><time>2026-04-29T11:31:09Z</time></trkpt><trkpt lat="50.670214991076186" lon="5.658418775397485"><ele>58.0</ele><time>2026-04-29T11:31:18Z</time></trkpt><trkpt lat="50.670145136190655" lon="5.658607213728741"><ele>57.99999999999999</ele><time>2026-04-29T11:31:20Z</time></trkpt><trkpt lat="50.670096140435106" lon="5.658685332449595"><ele>58.0</ele><time>2026-04-29T11:31:22Z</time></trkpt><trkpt lat="50.67001720540657" lon="5.658704823858357"><ele>58.0</ele><time>2026-04-29T11:31:24Z</time></trkpt><trkpt lat="50.669925421942004" lon="5.658664679426727"><ele>58.0</ele><time>2026-04-29T11:31:26Z</time></trkpt><trkpt lat="50.669821972916274" lon="5.658618142926754"><ele>58.0</ele><time>2026-04-29T11:31:28Z</time></trkpt><trkpt lat="50.66975881191155" lon="5.658586328042211"><ele>58.0</ele><time>2026-04-29T11:31:29Z</time></trkpt><trkpt lat="50.66964516525398" lon="5.658538055175264"><ele>58.0</ele><time>2026-04-29T11:31:31Z</time></trkpt><trkpt lat="50.66958190274262" lon="5.658506765727963"><ele>58.0</ele><time>2026-04-29T11:31:32Z</time></trkpt><trkpt lat="50.669477845087" lon="5.658459592333381"><ele>58.0</ele><time>2026-04-29T11:31:34Z</time></trkpt><trkpt lat="50.66938433683036" lon="5.658425514298537"><ele>58.0</ele><time>2026-04-29T11:31:36Z</time></trkpt><trkpt lat="50.66927046827757" lon="5.65864567412701"><ele>58.0</ele><time>2026-04-29T11:31:39.001Z</time></trkpt><trkpt lat="50.66922842673221" lon="5.658837055421852"><ele>58.00000000000001</ele><time>2026-04-29T11:31:41.001Z</time></trkpt><trkpt lat="50.669203776183934" lon="5.658936090750336"><ele>58.0</ele><time>2026-04-29T11:31:42.001Z</time></trkpt><trkpt lat="50.66917970450554" lon="5.659033852023785"><ele>58.00000000000001</ele><time>2026-04-29T11:31:43.001Z</time></trkpt><trkpt lat="50.66915389601053" lon="5.65913847512969"><ele>58.00000000000001</ele><time>2026-04-29T11:31:44.001Z</time></trkpt><trkpt lat="50.66912565897857" lon="5.659251132030732"><ele>58.0</ele><time>2026-04-29T11:31:45.001Z</time></trkpt><trkpt lat="50.66909999788483" lon="5.659360658783892"><ele>58.00000000000001</ele><time>2026-04-29T11:31:46.001Z</time></trkpt><trkpt lat="50.66907094969864" lon="5.659474050181228"><ele>58.00000000000001</ele><time>2026-04-29T11:31:47.001Z</time></trkpt><trkpt lat="50.66904197282088" lon="5.659589443734005"><ele>58.166666666666664</ele><time>2026-04-29T11:31:48.001Z</time></trkpt><trkpt lat="50.66901898621978" lon="5.659703642237567"><ele>58.33333333333333</ele><time>2026-04-29T11:31:49.001Z</time></trkpt><trkpt lat="50.66899294242485" lon="5.659811303138915"><ele>58.5</ele><time>2026-04-29T11:31:50.001Z</time></trkpt><trkpt lat="50.66897092223851" lon="5.659912766352262"><ele>58.66666666666667</ele><time>2026-04-29T11:31:51.001Z</time></trkpt><trkpt lat="50.66893514834155" lon="5.660070091149408"><ele>58.833333333333336</ele><time>2026-04-29T11:31:53.001Z</time></trkpt><trkpt lat="50.6689048206938" lon="5.660168124837442"><ele>59.0</ele><time>2026-04-29T11:31:55.001Z</time></trkpt><trkpt lat="50.66887917955079" lon="5.6603024964663975"><ele>59.6</ele><time>2026-04-29T11:32:03.001Z</time></trkpt><trkpt lat="50.668963963106584" lon="5.660388939203484"><ele>60.2</ele><time>2026-04-29T11:32:05.001Z</time></trkpt><trkpt lat="50.66906896586339" lon="5.660462164537998"><ele>60.800000000000004</ele><time>2026-04-29T11:32:07.001Z</time></trkpt><trkpt lat="50.66912677182242" lon="5.660510350760808"><ele>61.400000000000006</ele><time>2026-04-29T11:32:08.001Z</time></trkpt><trkpt lat="50.66921716313428" lon="5.660579480741854"><ele>62.0</ele><time>2026-04-29T11:32:10.001Z</time></trkpt><trkpt lat="50.6693085873979" lon="5.660654473679709"><ele>62.00000000000001</ele><time>2026-04-29T11:32:12.001Z</time></trkpt><trkpt lat="50.66936391110106" lon="5.660727518405889"><ele>62.0</ele><time>2026-04-29T11:32:14.001Z</time></trkpt><trkpt lat="50.66935186026863" lon="5.660893631969689"><ele>62.0</ele><time>2026-04-29T11:32:17.001Z</time></trkpt><trkpt lat="50.66932086424801" lon="5.66098544436961"><ele>62.0</ele><time>2026-04-29T11:32:19.001Z</time></trkpt><trkpt lat="50.6692992331267" lon="5.661087328959778"><ele>62.00000000000001</ele><time>2026-04-29T11:32:21.001Z</time></trkpt><trkpt lat="50.66928535873205" lon="5.661201098426366"><ele>62.0</ele><time>2026-04-29T11:32:23.001Z</time></trkpt><trkpt lat="50.669280850694335" lon="5.661374277449375"><ele>62.8</ele><time>2026-04-29T11:32:25.001Z</time></trkpt><trkpt lat="50.6692784090103" lon="5.661569710212886"><ele>63.6</ele><time>2026-04-29T11:32:27.001Z</time></trkpt><trkpt lat="50.669274559845576" lon="5.661670940607681"><ele>64.39999999999999</ele><time>2026-04-29T11:32:28.001Z</time></trkpt><trkpt lat="50.66927246883802" lon="5.661773245584538"><ele>65.2</ele><time>2026-04-29T11:32:29.001Z</time></trkpt><trkpt lat="50.66927173655906" lon="5.661974437085837"><ele>66.0</ele><time>2026-04-29T11:32:31.001Z</time></trkpt><trkpt lat="50.669243693291456" lon="5.6620767058756405"><ele>66.42857142857143</ele><time>2026-04-29T11:32:32.001Z</time></trkpt><trkpt lat="50.66923949210212" lon="5.662189833597326"><ele>66.85714285714286</ele><time>2026-04-29T11:32:33.001Z</time></trkpt><trkpt lat="50.66921753238503" lon="5.662295966520879"><ele>67.28571428571429</ele><time>2026-04-29T11:32:34.001Z</time></trkpt><trkpt lat="50.66917980407049" lon="5.662391966344097"><ele>67.71428571428572</ele><time>2026-04-29T11:32:35.001Z</time></trkpt><trkpt lat="50.66916723486501" lon="5.662505158017284"><ele>68.14285714285715</ele><time>2026-04-29T11:32:36.001Z</time></trkpt><trkpt lat="50.669138905964985" lon="5.662609349073287"><ele>68.57142857142857</ele><time>2026-04-29T11:32:37.001Z</time></trkpt><trkpt lat="50.66910293600301" lon="5.662710458238372"><ele>69.0</ele><time>2026-04-29T11:32:38.001Z</time></trkpt><trkpt lat="50.6690575949687" lon="5.662794330914174"><ele>70.60000000000001</ele><time>2026-04-29T11:32:39.001Z</time></trkpt><trkpt lat="50.668990649988" lon="5.662887073272395"><ele>72.2</ele><time>2026-04-29T11:32:41.001Z</time></trkpt><trkpt lat="50.66893490596153" lon="5.6629584346506645"><ele>73.80000000000001</ele><time>2026-04-29T11:32:44.001Z</time></trkpt><trkpt lat="50.66886703270464" lon="5.663030604241678"><ele>75.4</ele><time>2026-04-29T11:32:46.001Z</time></trkpt><trkpt lat="50.66878686154715" lon="5.663134732912631"><ele>77.0</ele><time>2026-04-29T11:32:48.001Z</time></trkpt><trkpt lat="50.66871282533829" lon="5.663284237990357"><ele>77.0</ele><time>2026-04-29T11:32:50.001Z</time></trkpt><trkpt lat="50.66868848960895" lon="5.66338237971386"><ele>77.0</ele><time>2026-04-29T11:32:51.001Z</time></trkpt><trkpt lat="50.66868226908845" lon="5.663488743796304"><ele>77.0</ele><time>2026-04-29T11:32:52.001Z</time></trkpt><trkpt lat="50.66869349606665" lon="5.663593079228308"><ele>77.0</ele><time>2026-04-29T11:32:53.001Z</time></trkpt><trkpt lat="50.66872873886033" lon="5.663696440113914"><ele>77.0</ele><time>2026-04-29T11:32:54.001Z</time></trkpt><trkpt lat="50.66875489214277" lon="5.663789079213139"><ele>77.0</ele><time>2026-04-29T11:32:55.001Z</time></trkpt><trkpt lat="50.66877644558653" lon="5.663923674745098"><ele>77.0</ele><time>2026-04-29T11:32:57.001Z</time></trkpt><trkpt lat="50.66872123682343" lon="5.664041677751503"><ele>78.85714285714286</ele><time>2026-04-29T11:32:59Z</time></trkpt><trkpt lat="50.66863036920033" lon="5.664017961430425"><ele>80.71428571428572</ele><time>2026-04-29T11:33:01Z</time></trkpt><trkpt lat="50.66857804196033" lon="5.66394346237755"><ele>82.57142857142857</ele><time>2026-04-29T11:33:02Z</time></trkpt><trkpt lat="50.66852891746332" lon="5.663865379769269"><ele>84.42857142857143</ele><time>2026-04-29T11:33:03Z</time></trkpt><trkpt lat="50.66847909363409" lon="5.66380365312149"><ele>86.28571428571429</ele><time>2026-04-29T11:33:04Z</time></trkpt><trkpt lat="50.66842244529906" lon="5.66375563735965"><ele>88.14285714285714</ele><time>2026-04-29T11:33:05Z</time></trkpt><trkpt lat="50.668355623955044" lon="5.663737440602828"><ele>90.0</ele><time>2026-04-29T11:33:06Z</time></trkpt><trkpt lat="50.66828623996606" lon="5.66374201993983"><ele>90.71428571428571</ele><time>2026-04-29T11:33:07Z</time></trkpt><trkpt lat="50.66821796479912" lon="5.663770472560812"><ele>91.42857142857143</ele><time>2026-04-29T11:33:08Z</time></trkpt><trkpt lat="50.66816141351026" lon="5.66381892779796"><ele>92.14285714285714</ele><time>2026-04-29T11:33:09Z</time></trkpt><trkpt lat="50.668112478795194" lon="5.6638931824047445"><ele>92.85714285714286</ele><time>2026-04-29T11:33:10Z</time></trkpt><trkpt lat="50.668071840923545" lon="5.663989760264173"><ele>93.57142857142858</ele><time>2026-04-29T11:33:11Z</time></trkpt><trkpt lat="50.668047464937196" lon="5.6640925957074995"><ele>94.28571428571429</ele><time>2026-04-29T11:33:12Z</time></trkpt><trkpt lat="50.66804149714779" lon="5.66422730883321"><ele>95.0</ele><time>2026-04-29T11:33:14Z</time></trkpt><trkpt lat="50.66806496408649" lon="5.664361851090288"><ele>97.66666666666667</ele><time>2026-04-29T11:33:17Z</time></trkpt><trkpt lat="50.668100742497415" lon="5.664478527558622"><ele>100.33333333333334</ele><time>2026-04-29T11:33:19Z</time></trkpt><trkpt lat="50.66815817180353" lon="5.664626167508615"><ele>103.0</ele><time>2026-04-29T11:33:21Z</time></trkpt><trkpt lat="50.6682076251484" lon="5.6647042061431625"><ele>105.66666666666667</ele><time>2026-04-29T11:33:22Z</time></trkpt><trkpt lat="50.66826350969702" lon="5.664771998311591"><ele>108.33333333333333</ele><time>2026-04-29T11:33:23Z</time></trkpt><trkpt lat="50.668335568941245" lon="5.664835122243759"><ele>111.0</ele><time>2026-04-29T11:33:24Z</time></trkpt><trkpt lat="50.66841788874123" lon="5.6648760084636764"><ele>111.0</ele><time>2026-04-29T11:33:25Z</time></trkpt><trkpt lat="50.668501490913684" lon="5.664908534069082"><ele>111.0</ele><time>2026-04-29T11:33:26Z</time></trkpt><trkpt lat="50.66858817801701" lon="5.664946130579058"><ele>111.0</ele><time>2026-04-29T11:33:27Z</time></trkpt><trkpt lat="50.668675515976524" lon="5.664981612106963"><ele>111.0</ele><time>2026-04-29T11:33:28Z</time></trkpt><trkpt lat="50.66874793786539" lon="5.665012501367897"><ele>111.0</ele><time>2026-04-29T11:33:29Z</time></trkpt><trkpt lat="50.668830239441746" lon="5.6650484459575585"><ele>111.0</ele><time>2026-04-29T11:33:30Z</time></trkpt><trkpt lat="50.668917942377526" lon="5.665085895533867"><ele>110.6</ele><time>2026-04-29T11:33:31Z</time></trkpt><trkpt lat="50.66901095711245" lon="5.665125944019995"><ele>110.19999999999999</ele><time>2026-04-29T11:33:32Z</time></trkpt><trkpt lat="50.669104056443715" lon="5.665163601416753"><ele>109.80000000000001</ele><time>2026-04-29T11:33:33Z</time></trkpt><trkpt lat="50.66919665628984" lon="5.6651980198114655"><ele>109.4</ele><time>2026-04-29T11:33:34Z</time></trkpt><trkpt lat="50.66928839508612" lon="5.665231666379252"><ele>109.0</ele><time>2026-04-29T11:33:35Z</time></trkpt><trkpt lat="50.66937875017694" lon="5.665267234116133"><ele>112.66666666666667</ele><time>2026-04-29T11:33:36Z</time></trkpt><trkpt lat="50.66947102873492" lon="5.665303532308942"><ele>116.33333333333334</ele><time>2026-04-29T11:33:37Z</time></trkpt><trkpt lat="50.669561970037996" lon="5.665339217246455"><ele>120.0</ele><time>2026-04-29T11:33:38Z</time></trkpt><trkpt lat="50.669652809245996" lon="5.665373621932866"><ele>123.66666666666666</ele><time>2026-04-29T11:33:39Z</time></trkpt><trkpt lat="50.66974181260854" lon="5.665409023278919"><ele>127.33333333333333</ele><time>2026-04-29T11:33:40Z</time></trkpt><trkpt lat="50.66981153945188" lon="5.665439968091417"><ele>131.0</ele><time>2026-04-29T11:33:41Z</time></trkpt><trkpt lat="50.669872116103605" lon="5.665493554018867"><ele>131.0</ele><time>2026-04-29T11:33:42Z</time></trkpt><trkpt lat="50.66994305722157" lon="5.665629123959158"><ele>131.0</ele><time>2026-04-29T11:33:44Z</time></trkpt><trkpt lat="50.66992110985723" lon="5.66581029489342"><ele>131.0</ele><time>2026-04-29T11:33:46.001Z</time></trkpt><trkpt lat="50.66988783605154" lon="5.665895013826877"><ele>131.0</ele><time>2026-04-29T11:33:47.001Z</time></trkpt><trkpt lat="50.66985370138411" lon="5.665992871492282"><ele>131.0</ele><time>2026-04-29T11:33:48.001Z</time></trkpt><trkpt lat="50.66982437035693" lon="5.666088255775292"><ele>131.0</ele><time>2026-04-29T11:33:49.001Z</time></trkpt><trkpt lat="50.66979241346996" lon="5.666174468222195"><ele>133.8</ele><time>2026-04-29T11:33:50.001Z</time></trkpt><trkpt lat="50.66977371662576" lon="5.666339753714485"><ele>136.6</ele><time>2026-04-29T11:33:52.001Z</time></trkpt><trkpt lat="50.66979593748747" lon="5.666473554811211"><ele>139.4</ele><time>2026-04-29T11:33:54.001Z</time></trkpt><trkpt lat="50.669869638342476" lon="5.666492807496167"><ele>142.2</ele><time>2026-04-29T11:33:55.001Z</time></trkpt><trkpt lat="50.66995670165756" lon="5.666464388598064"><ele>145.0</ele><time>2026-04-29T11:33:57.001Z</time></trkpt><trkpt lat="50.670071576756904" lon="5.666369927536145"><ele>145.0</ele><time>2026-04-29T11:33:59.001Z</time></trkpt><trkpt lat="50.6701341119942" lon="5.666317714558775"><ele>145.0</ele><time>2026-04-29T11:34:00.001Z</time></trkpt><trkpt lat="50.67019070234975" lon="5.666258225512765"><ele>145.0</ele><time>2026-04-29T11:34:01.001Z</time></trkpt><trkpt lat="50.67024950333484" lon="5.666159673608377"><ele>145.0</ele><time>2026-04-29T11:34:02.001Z</time></trkpt><trkpt lat="50.67033471725175" lon="5.6660768555923156"><ele>145.0</ele><time>2026-04-29T11:34:03.001Z</time></trkpt><trkpt lat="50.67039441159932" lon="5.665985053263735"><ele>145.0</ele><time>2026-04-29T11:34:04.001Z</time></trkpt><trkpt lat="50.67045747151481" lon="5.665885667293103"><ele>145.4</ele><time>2026-04-29T11:34:05.001Z</time></trkpt><trkpt lat="50.67051746637076" lon="5.665790833596678"><ele>145.8</ele><time>2026-04-29T11:34:06.001Z</time></trkpt><trkpt lat="50.67056579698315" lon="5.665715719684159"><ele>146.2</ele><time>2026-04-29T11:34:07.001Z</time></trkpt><trkpt lat="50.67064668639854" lon="5.665617237020684"><ele>146.6</ele><time>2026-04-29T11:34:09.001Z</time></trkpt><trkpt lat="50.67074537930476" lon="5.665609420722369"><ele>147.0</ele><time>2026-04-29T11:34:11.001Z</time></trkpt><trkpt lat="50.67077281886592" lon="5.665755429952558"><ele>147.0</ele><time>2026-04-29T11:34:13.001Z</time></trkpt><trkpt lat="50.670766120724224" lon="5.665855188883935"><ele>147.0</ele><time>2026-04-29T11:34:14.001Z</time></trkpt><trkpt lat="50.67076021864911" lon="5.665970923922079"><ele>147.0</ele><time>2026-04-29T11:34:15.001Z</time></trkpt><trkpt lat="50.670749557367834" lon="5.666097501312519"><ele>147.0</ele><time>2026-04-29T11:34:16.001Z</time></trkpt><trkpt lat="50.67073392587995" lon="5.666233675258162"><ele>147.0</ele><time>2026-04-29T11:34:17.001Z</time></trkpt><trkpt lat="50.6707238970157" lon="5.666340616744341"><ele>147.0</ele><time>2026-04-29T11:34:18.001Z</time></trkpt><trkpt lat="50.67071544736965" lon="5.666451196049492"><ele>147.0</ele><time>2026-04-29T11:34:19.001Z</time></trkpt><trkpt lat="50.67070909002802" lon="5.66656808166661"><ele>149.0</ele><time>2026-04-29T11:34:20.001Z</time></trkpt><trkpt lat="50.67070002029992" lon="5.666698075134262"><ele>151.0</ele><time>2026-04-29T11:34:21.001Z</time></trkpt><trkpt lat="50.670693107734074" lon="5.666852678757709"><ele>153.0</ele><time>2026-04-29T11:34:22.001Z</time></trkpt><trkpt lat="50.67068781934534" lon="5.667016810425952"><ele>155.0</ele><time>2026-04-29T11:34:23.001Z</time></trkpt><trkpt lat="50.6706887239297" lon="5.6671884466976215"><ele>157.0</ele><time>2026-04-29T11:34:24.001Z</time></trkpt><trkpt lat="50.67067727202138" lon="5.667369112130076"><ele>158.75</ele><time>2026-04-29T11:34:25.001Z</time></trkpt><trkpt lat="50.67065213346035" lon="5.667550363604255"><ele>160.5</ele><time>2026-04-29T11:34:26.001Z</time></trkpt><trkpt lat="50.670619936661936" lon="5.667723279845255"><ele>162.25</ele><time>2026-04-29T11:34:27.001Z</time></trkpt><trkpt lat="50.67059572400512" lon="5.667890457636313"><ele>164.0</ele><time>2026-04-29T11:34:28.001Z</time></trkpt><trkpt lat="50.670566468358544" lon="5.668065754161312"><ele>164.0</ele><time>2026-04-29T11:34:29.001Z</time></trkpt><trkpt lat="50.67052707359094" lon="5.668252474958619"><ele>164.0</ele><time>2026-04-29T11:34:30.001Z</time></trkpt><trkpt lat="50.67048016636482" lon="5.6684519126204505"><ele>164.0</ele><time>2026-04-29T11:34:31.001Z</time></trkpt><trkpt lat="50.670435487169705" lon="5.668642567283315"><ele>164.0</ele><time>2026-04-29T11:34:32.001Z</time></trkpt><trkpt lat="50.670388738186034" lon="5.668829683790573"><ele>164.0</ele><time>2026-04-29T11:34:33.001Z</time></trkpt><trkpt lat="50.67033703892886" lon="5.669004707177798"><ele>164.0</ele><time>2026-04-29T11:34:34.001Z</time></trkpt><trkpt lat="50.67029093053462" lon="5.669170088365436"><ele>164.0</ele><time>2026-04-29T11:34:35.001Z</time></trkpt><trkpt lat="50.670245029702166" lon="5.669334420275444"><ele>164.0</ele><time>2026-04-29T11:34:36.001Z</time></trkpt><trkpt lat="50.67019917423599" lon="5.669500366244734"><ele>164.25</ele><time>2026-04-29T11:34:37.001Z</time></trkpt><trkpt lat="50.670152588750796" lon="5.669668869717872"><ele>164.5</ele><time>2026-04-29T11:34:38.001Z</time></trkpt><trkpt lat="50.670106874181826" lon="5.6698401593307155"><ele>164.75</ele><time>2026-04-29T11:34:39.001Z</time></trkpt><trkpt lat="50.670065641662724" lon="5.670011880264793"><ele>165.0</ele><time>2026-04-29T11:34:40.001Z</time></trkpt><trkpt lat="50.67000938922514" lon="5.670173870517922"><ele>164.8</ele><time>2026-04-29T11:34:41.001Z</time></trkpt><trkpt lat="50.66997679052809" lon="5.670351062339233"><ele>164.6</ele><time>2026-04-29T11:34:42.001Z</time></trkpt><trkpt lat="50.66993607750747" lon="5.670504585424269"><ele>164.39999999999998</ele><time>2026-04-29T11:34:43.001Z</time></trkpt><trkpt lat="50.6699007266339" lon="5.670657463737589"><ele>164.2</ele><time>2026-04-29T11:34:44.001Z</time></trkpt><trkpt lat="50.66987266603598" lon="5.670813041160357"><ele>164.0</ele><time>2026-04-29T11:34:45.001Z</time></trkpt><trkpt lat="50.66984741292152" lon="5.6709702309023005"><ele>164.2</ele><time>2026-04-29T11:34:46.001Z</time></trkpt><trkpt lat="50.66981259305813" lon="5.671124707089198"><ele>164.39999999999998</ele><time>2026-04-29T11:34:47.001Z</time></trkpt><trkpt lat="50.669776758203156" lon="5.671277681093772"><ele>164.6</ele><time>2026-04-29T11:34:48.001Z</time></trkpt><trkpt lat="50.66974026672938" lon="5.671437855037022"><ele>164.8</ele><time>2026-04-29T11:34:49.001Z</time></trkpt><trkpt lat="50.66970262867003" lon="5.671604266313901"><ele>165.0</ele><time>2026-04-29T11:34:50.001Z</time></trkpt><trkpt lat="50.669662161195824" lon="5.671770242130749"><ele>165.0</ele><time>2026-04-29T11:34:51.001Z</time></trkpt><trkpt lat="50.66962116099227" lon="5.6719314208804485"><ele>165.0</ele><time>2026-04-29T11:34:52.001Z</time></trkpt><trkpt lat="50.66957721912357" lon="5.67208830884128"><ele>165.0</ele><time>2026-04-29T11:34:53.001Z</time></trkpt><trkpt lat="50.66953263620753" lon="5.672228495266294"><ele>165.0</ele><time>2026-04-29T11:34:54.001Z</time></trkpt><trkpt lat="50.669488505597954" lon="5.6723594735257965"><ele>165.0</ele><time>2026-04-29T11:34:55.001Z</time></trkpt><trkpt lat="50.669450564228924" lon="5.672471160648564"><ele>165.6</ele><time>2026-04-29T11:34:56.001Z</time></trkpt><trkpt lat="50.669416740924405" lon="5.672570686348805"><ele>166.2</ele><time>2026-04-29T11:34:57.001Z</time></trkpt><trkpt lat="50.66936427109485" lon="5.672720741275779"><ele>166.8</ele><time>2026-04-29T11:34:59.001Z</time></trkpt><trkpt lat="50.669337936281636" lon="5.672820386782411"><ele>167.4</ele><time>2026-04-29T11:35:14Z</time></trkpt><trkpt lat="50.66943329642401" lon="5.6729560701299615"><ele>168.0</ele><time>2026-04-29T11:35:18Z</time></trkpt><trkpt lat="50.66955991225236" lon="5.673028763885758"><ele>168.0</ele><time>2026-04-29T11:35:20Z</time></trkpt><trkpt lat="50.669639087655696" lon="5.673075239644646"><ele>168.0</ele><time>2026-04-29T11:35:21Z</time></trkpt><trkpt lat="50.66971717895409" lon="5.673119128719844"><ele>168.0</ele><time>2026-04-29T11:35:22Z</time></trkpt><trkpt lat="50.66979334946038" lon="5.673164667094735"><ele>168.0</ele><time>2026-04-29T11:35:23Z</time></trkpt><trkpt lat="50.66988294112827" lon="5.673214256933803"><ele>168.0</ele><time>2026-04-29T11:35:24Z</time></trkpt><trkpt lat="50.669977200320034" lon="5.6732705186535926"><ele>168.0</ele><time>2026-04-29T11:35:25Z</time></trkpt><trkpt lat="50.6700732947882" lon="5.673331895476722"><ele>168.0</ele><time>2026-04-29T11:35:26Z</time></trkpt><trkpt lat="50.67017073771012" lon="5.673389700578192"><ele>168.0</ele><time>2026-04-29T11:35:27Z</time></trkpt><trkpt lat="50.670263447256595" lon="5.6734427073650595"><ele>168.0</ele><time>2026-04-29T11:35:28Z</time></trkpt><trkpt lat="50.67036332479858" lon="5.673499055292836"><ele>168.0</ele><time>2026-04-29T11:35:29Z</time></trkpt><trkpt lat="50.67045833297307" lon="5.673553072076136"><ele>168.0</ele><time>2026-04-29T11:35:30Z</time></trkpt><trkpt lat="50.670551690622645" lon="5.673599248557406"><ele>167.0</ele><time>2026-04-29T11:35:31Z</time></trkpt><trkpt lat="50.670636378859044" lon="5.673635624896364"><ele>166.0</ele><time>2026-04-29T11:35:32Z</time></trkpt><trkpt lat="50.67072709092211" lon="5.673683579606698"><ele>165.0</ele><time>2026-04-29T11:35:33Z</time></trkpt><trkpt lat="50.67082061040586" lon="5.673741764281651"><ele>164.0</ele><time>2026-04-29T11:35:34Z</time></trkpt><trkpt lat="50.67091571018086" lon="5.673802809213799"><ele>163.0</ele><time>2026-04-29T11:35:35Z</time></trkpt><trkpt lat="50.671011306913286" lon="5.673868694396191"><ele>163.0</ele><time>2026-04-29T11:35:36Z</time></trkpt><trkpt lat="50.67110026234145" lon="5.673936326703466"><ele>163.0</ele><time>2026-04-29T11:35:37Z</time></trkpt><trkpt lat="50.67118773967093" lon="5.673994266966962"><ele>163.0</ele><time>2026-04-29T11:35:38Z</time></trkpt><trkpt lat="50.671278881283904" lon="5.674047501931942"><ele>163.0</ele><time>2026-04-29T11:35:39Z</time></trkpt><trkpt lat="50.67135956314202" lon="5.674097394116563"><ele>163.0</ele><time>2026-04-29T11:35:40Z</time></trkpt><trkpt lat="50.67143236763319" lon="5.674143543656183"><ele>162.5</ele><time>2026-04-29T11:35:41Z</time></trkpt><trkpt lat="50.67149710972138" lon="5.674182257773895"><ele>162.0</ele><time>2026-04-29T11:35:42Z</time></trkpt><trkpt lat="50.671558774076814" lon="5.674217723482752"><ele>161.5</ele><time>2026-04-29T11:35:43Z</time></trkpt><trkpt lat="50.67164087650939" lon="5.6742678028859235"><ele>161.0</ele><time>2026-04-29T11:35:45Z</time></trkpt><trkpt lat="50.67172571039681" lon="5.6743184847942425"><ele>160.5</ele><time>2026-04-29T11:35:47Z</time></trkpt><trkpt lat="50.671848512001496" lon="5.674391958420269"><ele>160.0</ele><time>2026-04-29T11:35:49Z</time></trkpt><trkpt lat="50.671926556687815" lon="5.674438009860309"><ele>159.0</ele><time>2026-04-29T11:35:50Z</time></trkpt><trkpt lat="50.672016143355776" lon="5.6744933420378"><ele>158.0</ele><time>2026-04-29T11:35:51Z</time></trkpt><trkpt lat="50.67210842914319" lon="5.67455355663852"><ele>157.0</ele><time>2026-04-29T11:35:52Z</time></trkpt><trkpt lat="50.67218717159561" lon="5.674609572706577"><ele>156.0</ele><time>2026-04-29T11:35:53Z</time></trkpt><trkpt lat="50.67225228255109" lon="5.674666052278315"><ele>155.0</ele><time>2026-04-29T11:35:54Z</time></trkpt><trkpt lat="50.67235309546808" lon="5.674768125420979"><ele>155.0</ele><time>2026-04-29T11:35:56Z</time></trkpt><trkpt lat="50.6724104348695" lon="5.674828582917508"><ele>155.0</ele><time>2026-04-29T11:35:57Z</time></trkpt><trkpt lat="50.67247711565953" lon="5.67490330283487"><ele>155.0</ele><time>2026-04-29T11:35:58Z</time></trkpt><trkpt lat="50.67254943111903" lon="5.674991041786808"><ele>155.0</ele><time>2026-04-29T11:35:59.001Z</time></trkpt><trkpt lat="50.672623084801835" lon="5.675098924515372"><ele>155.0</ele><time>2026-04-29T11:36:00.001Z</time></trkpt><trkpt lat="50.67268925658637" lon="5.675213162699733"><ele>155.0</ele><time>2026-04-29T11:36:01.001Z</time></trkpt><trkpt lat="50.67274966511529" lon="5.675315806756938"><ele>154.83333333333331</ele><time>2026-04-29T11:36:02.001Z</time></trkpt><trkpt lat="50.67280014303153" lon="5.675411759394371"><ele>154.66666666666666</ele><time>2026-04-29T11:36:03.001Z</time></trkpt><trkpt lat="50.672839696787825" lon="5.675494102661769"><ele>154.5</ele><time>2026-04-29T11:36:04.001Z</time></trkpt><trkpt lat="50.672891871192206" lon="5.675614844327692"><ele>154.33333333333334</ele><time>2026-04-29T11:36:06.001Z</time></trkpt><trkpt lat="50.672945727453545" lon="5.675747624572172"><ele>154.16666666666669</ele><time>2026-04-29T11:36:08.001Z</time></trkpt><trkpt lat="50.672981504936565" lon="5.675833513741456"><ele>154.0</ele><time>2026-04-29T11:36:09.001Z</time></trkpt><trkpt lat="50.67302437374172" lon="5.675924402355383"><ele>154.0</ele><time>2026-04-29T11:36:10.001Z</time></trkpt><trkpt lat="50.673073203095" lon="5.676016549406017"><ele>154.0</ele><time>2026-04-29T11:36:11.001Z</time></trkpt><trkpt lat="50.67312548680648" lon="5.676112004097638"><ele>154.0</ele><time>2026-04-29T11:36:12.001Z</time></trkpt><trkpt lat="50.673178273184696" lon="5.676210830916596"><ele>154.0</ele><time>2026-04-29T11:36:13.001Z</time></trkpt><trkpt lat="50.67322934682926" lon="5.676322722804987"><ele>154.0</ele><time>2026-04-29T11:36:14.001Z</time></trkpt><trkpt lat="50.67328772635188" lon="5.676442668752392"><ele>154.0</ele><time>2026-04-29T11:36:15.001Z</time></trkpt><trkpt lat="50.67335512690894" lon="5.676562741148895"><ele>153.4</ele><time>2026-04-29T11:36:16.001Z</time></trkpt><trkpt lat="50.67342983935102" lon="5.676686304742345"><ele>152.8</ele><time>2026-04-29T11:36:17.001Z</time></trkpt><trkpt lat="50.673509712658955" lon="5.676795986188175"><ele>152.2</ele><time>2026-04-29T11:36:18.001Z</time></trkpt><trkpt lat="50.673589957748945" lon="5.676898825532282"><ele>151.6</ele><time>2026-04-29T11:36:19.001Z</time></trkpt><trkpt lat="50.673683300720334" lon="5.677003833383947"><ele>151.0</ele><time>2026-04-29T11:36:20.001Z</time></trkpt><trkpt lat="50.67378549127087" lon="5.677111198269508"><ele>150.0</ele><time>2026-04-29T11:36:21.001Z</time></trkpt><trkpt lat="50.67388912678861" lon="5.677209764622412"><ele>149.0</ele><time>2026-04-29T11:36:22.001Z</time></trkpt><trkpt lat="50.673993731756376" lon="5.677305721967927"><ele>148.0</ele><time>2026-04-29T11:36:23.001Z</time></trkpt><trkpt lat="50.67409625286364" lon="5.677401344122257"><ele>147.0</ele><time>2026-04-29T11:36:24.001Z</time></trkpt><trkpt lat="50.67419924995027" lon="5.677497881012057"><ele>147.0</ele><time>2026-04-29T11:36:25.001Z</time></trkpt><trkpt lat="50.67430418352612" lon="5.677595656618551"><ele>147.0</ele><time>2026-04-29T11:36:26.001Z</time></trkpt><trkpt lat="50.6744100042907" lon="5.677694286260734"><ele>147.0</ele><time>2026-04-29T11:36:27.001Z</time></trkpt><trkpt lat="50.674516859037276" lon="5.677792847597619"><ele>147.0</ele><time>2026-04-29T11:36:28.001Z</time></trkpt><trkpt lat="50.67462925206917" lon="5.67789590770161"><ele>142.25</ele><time>2026-04-29T11:36:29.001Z</time></trkpt><trkpt lat="50.674742328643575" lon="5.677999943662034"><ele>137.5</ele><time>2026-04-29T11:36:30.001Z</time></trkpt><trkpt lat="50.67485900480826" lon="5.678104296845098"><ele>132.75</ele><time>2026-04-29T11:36:31.001Z</time></trkpt><trkpt lat="50.674977103629224" lon="5.678210346487771"><ele>128.0</ele><time>2026-04-29T11:36:32.001Z</time></trkpt><trkpt lat="50.675093735187936" lon="5.678315771357813"><ele>128.0</ele><time>2026-04-29T11:36:33.001Z</time></trkpt><trkpt lat="50.67520701912203" lon="5.678419643204504"><ele>128.0</ele><time>2026-04-29T11:36:34.001Z</time></trkpt><trkpt lat="50.675321869469165" lon="5.6785231607885"><ele>128.0</ele><time>2026-04-29T11:36:35.001Z</time></trkpt><trkpt lat="50.67543472616099" lon="5.678623923619805"><ele>128.0</ele><time>2026-04-29T11:36:36.001Z</time></trkpt><trkpt lat="50.675548880572485" lon="5.678728972756943"><ele>131.0</ele><time>2026-04-29T11:36:37.001Z</time></trkpt><trkpt lat="50.67565910957224" lon="5.678829594898362"><ele>134.0</ele><time>2026-04-29T11:36:38.001Z</time></trkpt><trkpt lat="50.67577557371911" lon="5.678922715331174"><ele>137.0</ele><time>2026-04-29T11:36:39.001Z</time></trkpt><trkpt lat="50.675896318034724" lon="5.678996540095967"><ele>140.0</ele><time>2026-04-29T11:36:40.001Z</time></trkpt><trkpt lat="50.67602145067058" lon="5.679053531591807"><ele>140.5</ele><time>2026-04-29T11:36:41.001Z</time></trkpt><trkpt lat="50.67615191911705" lon="5.679095758577762"><ele>141.0</ele><time>2026-04-29T11:36:42.001Z</time></trkpt><trkpt lat="50.67628661840647" lon="5.679123098621414"><ele>141.5</ele><time>2026-04-29T11:36:43.001Z</time></trkpt><trkpt lat="50.67642381093798" lon="5.679137774297466"><ele>142.0</ele><time>2026-04-29T11:36:44.001Z</time></trkpt><trkpt lat="50.67656441205391" lon="5.679134348011075"><ele>142.0</ele><time>2026-04-29T11:36:45.001Z</time></trkpt><trkpt lat="50.67670769048731" lon="5.679116392616978"><ele>142.0</ele><time>2026-04-29T11:36:46.001Z</time></trkpt><trkpt lat="50.67684843118783" lon="5.679089997301735"><ele>142.0</ele><time>2026-04-29T11:36:47.001Z</time></trkpt><trkpt lat="50.676976900018516" lon="5.679065785617099"><ele>142.0</ele><time>2026-04-29T11:36:48.001Z</time></trkpt><trkpt lat="50.67709405375008" lon="5.679044834483538"><ele>142.5</ele><time>2026-04-29T11:36:49.001Z</time></trkpt><trkpt lat="50.67719980154999" lon="5.679027204400042"><ele>143.0</ele><time>2026-04-29T11:36:50.001Z</time></trkpt><trkpt lat="50.6772957348665" lon="5.6790176146941285"><ele>143.5</ele><time>2026-04-29T11:36:51.001Z</time></trkpt><trkpt lat="50.67738505465161" lon="5.679012835024709"><ele>144.0</ele><time>2026-04-29T11:36:52.001Z</time></trkpt><trkpt lat="50.67746677565814" lon="5.679012189458204"><ele>144.5</ele><time>2026-04-29T11:36:53.001Z</time></trkpt><trkpt lat="50.677538521859596" lon="5.679011990960302"><ele>145.0</ele><time>2026-04-29T11:36:54.001Z</time></trkpt><trkpt lat="50.677606298383616" lon="5.679009236912171"><ele>145.0</ele><time>2026-04-29T11:36:55.001Z</time></trkpt><trkpt lat="50.67770228714756" lon="5.679022988994303"><ele>145.0</ele><time>2026-04-29T11:36:57.001Z</time></trkpt><trkpt lat="50.677787942902434" lon="5.679078475069982"><ele>145.0</ele><time>2026-04-29T11:36:59.001Z</time></trkpt><trkpt lat="50.67786974761588" lon="5.679131535835585"><ele>145.0</ele><time>2026-04-29T11:37:01.001Z</time></trkpt><trkpt lat="50.677978696765884" lon="5.679170885444424"><ele>145.0</ele><time>2026-04-29T11:37:03.001Z</time></trkpt><trkpt lat="50.67803496157004" lon="5.679219250764396"><ele>145.6</ele><time>2026-04-29T11:37:04.001Z</time></trkpt><trkpt lat="50.67812766271382" lon="5.679274765779764"><ele>146.2</ele><time>2026-04-29T11:37:06.001Z</time></trkpt><trkpt lat="50.67820433579199" lon="5.679337182819587"><ele>146.8</ele><time>2026-04-29T11:37:08.001Z</time></trkpt><trkpt lat="50.67831668955871" lon="5.679434132837596"><ele>147.4</ele><time>2026-04-29T11:37:10Z</time></trkpt><trkpt lat="50.67837143755079" lon="5.679484255750692"><ele>148.0</ele><time>2026-04-29T11:37:11Z</time></trkpt><trkpt lat="50.678473292928686" lon="5.679597012566184"><ele>147.83333333333334</ele><time>2026-04-29T11:37:13Z</time></trkpt><trkpt lat="50.6785365567864" lon="5.679659976711596"><ele>147.66666666666669</ele><time>2026-04-29T11:37:14Z</time></trkpt><trkpt lat="50.678601100929995" lon="5.679724214923826"><ele>147.5</ele><time>2026-04-29T11:37:15Z</time></trkpt><trkpt lat="50.678668604714375" lon="5.679791398976602"><ele>147.33333333333334</ele><time>2026-04-29T11:37:16Z</time></trkpt><trkpt lat="50.67873931494439" lon="5.679863577480137"><ele>147.16666666666666</ele><time>2026-04-29T11:37:17Z</time></trkpt><trkpt lat="50.6788096424089" lon="5.679938978036341"><ele>147.0</ele><time>2026-04-29T11:37:18Z</time></trkpt><trkpt lat="50.678882003332525" lon="5.679983786282252"><ele>147.0</ele><time>2026-04-29T11:37:19Z</time></trkpt><trkpt lat="50.678933172329636" lon="5.680048715756226"><ele>147.0</ele><time>2026-04-29T11:37:20Z</time></trkpt><trkpt lat="50.678983815172906" lon="5.68010827512551"><ele>147.0</ele><time>2026-04-29T11:37:21Z</time></trkpt><trkpt lat="50.67906881423413" lon="5.680210582938295"><ele>147.0</ele><time>2026-04-29T11:37:23Z</time></trkpt><trkpt lat="50.67911815464658" lon="5.680317828028362"><ele>147.0</ele><time>2026-04-29T11:37:25Z</time></trkpt><trkpt lat="50.67910795526341" lon="5.680438440197321"><ele>147.0</ele><time>2026-04-29T11:37:26Z</time></trkpt><trkpt lat="50.67919671784112" lon="5.680548255216493"><ele>146.85714285714286</ele><time>2026-04-29T11:37:28Z</time></trkpt><trkpt lat="50.67925800890471" lon="5.680588512124431"><ele>146.71428571428572</ele><time>2026-04-29T11:37:29Z</time></trkpt><trkpt lat="50.67931695740388" lon="5.680645516714785"><ele>146.57142857142856</ele><time>2026-04-29T11:37:30Z</time></trkpt><trkpt lat="50.67937604539994" lon="5.6807109342143995"><ele>146.42857142857144</ele><time>2026-04-29T11:37:31Z</time></trkpt><trkpt lat="50.67943868734715" lon="5.6807870909815295"><ele>146.28571428571428</ele><time>2026-04-29T11:37:32Z</time></trkpt><trkpt lat="50.679498264340374" lon="5.680862162849874"><ele>146.14285714285714</ele><time>2026-04-29T11:37:33Z</time></trkpt><trkpt lat="50.67956340911698" lon="5.680947307759995"><ele>146.0</ele><time>2026-04-29T11:37:34Z</time></trkpt><trkpt lat="50.679620603416346" lon="5.681053636188369"><ele>144.8</ele><time>2026-04-29T11:37:35Z</time></trkpt><trkpt lat="50.679656362398816" lon="5.681177074176066"><ele>143.6</ele><time>2026-04-29T11:37:36Z</time></trkpt><trkpt lat="50.67968038307837" lon="5.681317904780114"><ele>142.4</ele><time>2026-04-29T11:37:37Z</time></trkpt><trkpt lat="50.679699302808984" lon="5.6814690396835115"><ele>141.2</ele><time>2026-04-29T11:37:38Z</time></trkpt><trkpt lat="50.679733324315535" lon="5.681617367538947"><ele>140.0</ele><time>2026-04-29T11:37:39Z</time></trkpt><trkpt lat="50.67977742067506" lon="5.681762237140797"><ele>140.0</ele><time>2026-04-29T11:37:40Z</time></trkpt><trkpt lat="50.67982386360831" lon="5.681891928956631"><ele>140.0</ele><time>2026-04-29T11:37:41Z</time></trkpt><trkpt lat="50.679875537430235" lon="5.682009359062968"><ele>140.0</ele><time>2026-04-29T11:37:42Z</time></trkpt><trkpt lat="50.679924570611526" lon="5.682122445995841"><ele>140.0</ele><time>2026-04-29T11:37:43Z</time></trkpt><trkpt lat="50.679963542760916" lon="5.682260431344475"><ele>140.0</ele><time>2026-04-29T11:37:44Z</time></trkpt><trkpt lat="50.68001094743713" lon="5.682407958231269"><ele>137.75</ele><time>2026-04-29T11:37:45Z</time></trkpt><trkpt lat="50.68006585649435" lon="5.6825546493985675"><ele>135.5</ele><time>2026-04-29T11:37:46Z</time></trkpt><trkpt lat="50.68011790146467" lon="5.682710897468265"><ele>133.25</ele><time>2026-04-29T11:37:47Z</time></trkpt><trkpt lat="50.680166718096146" lon="5.682881259567898"><ele>131.0</ele><time>2026-04-29T11:37:48Z</time></trkpt><trkpt lat="50.680217475458974" lon="5.683043955906171"><ele>132.25</ele><time>2026-04-29T11:37:49Z</time></trkpt><trkpt lat="50.68027220671478" lon="5.683200593339969"><ele>133.5</ele><time>2026-04-29T11:37:50Z</time></trkpt><trkpt lat="50.680334231974804" lon="5.683347959559596"><ele>134.75</ele><time>2026-04-29T11:37:51Z</time></trkpt><trkpt lat="50.68041433379803" lon="5.683497170181237"><ele>136.0</ele><time>2026-04-29T11:37:52Z</time></trkpt><trkpt lat="50.6805067637605" lon="5.683628918642665"><ele>132.25</ele><time>2026-04-29T11:37:53Z</time></trkpt><trkpt lat="50.68060531950357" lon="5.683750134210605"><ele>128.5</ele><time>2026-04-29T11:37:54Z</time></trkpt><trkpt lat="50.680712092479254" lon="5.683864485340657"><ele>124.75</ele><time>2026-04-29T11:37:55Z</time></trkpt><trkpt lat="50.68081150751911" lon="5.684001096490886"><ele>121.0</ele><time>2026-04-29T11:37:56Z</time></trkpt><trkpt lat="50.68092016944178" lon="5.684115298104294"><ele>121.0</ele><time>2026-04-29T11:37:57Z</time></trkpt><trkpt lat="50.68101790598993" lon="5.684248937876642"><ele>121.0</ele><time>2026-04-29T11:37:58Z</time></trkpt><trkpt lat="50.68112582791042" lon="5.684365720068732"><ele>121.0</ele><time>2026-04-29T11:37:59Z</time></trkpt><trkpt lat="50.68123495114991" lon="5.684483374894966"><ele>121.0</ele><time>2026-04-29T11:38:00Z</time></trkpt><trkpt lat="50.6813410256441" lon="5.684607588733017"><ele>119.5</ele><time>2026-04-29T11:38:01Z</time></trkpt><trkpt lat="50.681449497271956" lon="5.684721992050839"><ele>118.0</ele><time>2026-04-29T11:38:02Z</time></trkpt><trkpt lat="50.6815553022226" lon="5.684833593901387"><ele>116.5</ele><time>2026-04-29T11:38:03Z</time></trkpt><trkpt lat="50.68166060501244" lon="5.684943374430378"><ele>115.0</ele><time>2026-04-29T11:38:04Z</time></trkpt><trkpt lat="50.68176233293077" lon="5.685041034095168"><ele>115.0</ele><time>2026-04-29T11:38:05Z</time></trkpt><trkpt lat="50.68185519538431" lon="5.685127948539944"><ele>115.0</ele><time>2026-04-29T11:38:06Z</time></trkpt><trkpt lat="50.6819432677811" lon="5.685209032372539"><ele>115.0</ele><time>2026-04-29T11:38:07Z</time></trkpt><trkpt lat="50.68201728963081" lon="5.68530721302884"><ele>115.0</ele><time>2026-04-29T11:38:08Z</time></trkpt><trkpt lat="50.68207941888371" lon="5.685423259211761"><ele>115.0</ele><time>2026-04-29T11:38:09Z</time></trkpt><trkpt lat="50.68212045757442" lon="5.685555965552222"><ele>114.0</ele><time>2026-04-29T11:38:10Z</time></trkpt><trkpt lat="50.68214731810561" lon="5.685715774093831"><ele>113.0</ele><time>2026-04-29T11:38:11Z</time></trkpt><trkpt lat="50.682136108245174" lon="5.685893013622823"><ele>112.0</ele><time>2026-04-29T11:38:12Z</time></trkpt><trkpt lat="50.68212067888306" lon="5.686074966921953"><ele>111.0</ele><time>2026-04-29T11:38:13Z</time></trkpt><trkpt lat="50.682110418562495" lon="5.686263260129365"><ele>110.25</ele><time>2026-04-29T11:38:14Z</time></trkpt><trkpt lat="50.682094457334856" lon="5.686457047465215"><ele>109.5</ele><time>2026-04-29T11:38:15Z</time></trkpt><trkpt lat="50.682076378256674" lon="5.686652647381811"><ele>108.75</ele><time>2026-04-29T11:38:16Z</time></trkpt><trkpt lat="50.682059239863364" lon="5.686849180944758"><ele>108.0</ele><time>2026-04-29T11:38:17Z</time></trkpt><trkpt lat="50.682045640527065" lon="5.687029363140257"><ele>109.33333333333333</ele><time>2026-04-29T11:38:18Z</time></trkpt><trkpt lat="50.682035048043396" lon="5.687193908553232"><ele>110.66666666666666</ele><time>2026-04-29T11:38:19Z</time></trkpt><trkpt lat="50.68202115567227" lon="5.687339282469086"><ele>112.0</ele><time>2026-04-29T11:38:20.001Z</time></trkpt><trkpt lat="50.68201408268951" lon="5.68745569676388"><ele>113.33333333333333</ele><time>2026-04-29T11:38:21.001Z</time></trkpt><trkpt lat="50.68200286790843" lon="5.687561147946167"><ele>114.66666666666666</ele><time>2026-04-29T11:38:22.001Z</time></trkpt><trkpt lat="50.68199274134587" lon="5.687691322982243"><ele>116.0</ele><time>2026-04-29T11:38:24.001Z</time></trkpt><trkpt lat="50.681975822189614" lon="5.687792510503054"><ele>116.4</ele><time>2026-04-29T11:38:26.001Z</time></trkpt><trkpt lat="50.68191637981287" lon="5.6878616564366755"><ele>116.8</ele><time>2026-04-29T11:38:28.001Z</time></trkpt><trkpt lat="50.68190393905455" lon="5.687751986502526"><ele>117.20000000000002</ele><time>2026-04-29T11:38:30.001Z</time></trkpt><trkpt lat="50.68190823395658" lon="5.687587021206067"><ele>117.60000000000001</ele><time>2026-04-29T11:38:32.001Z</time></trkpt><trkpt lat="50.681893708835226" lon="5.687410878456508"><ele>118.0</ele><time>2026-04-29T11:38:34.001Z</time></trkpt><trkpt lat="50.681846022905006" lon="5.687250569621094"><ele>118.0</ele><time>2026-04-29T11:38:36.001Z</time></trkpt><trkpt lat="50.68179254470871" lon="5.687151696639691"><ele>118.00000000000001</ele><time>2026-04-29T11:38:38.001Z</time></trkpt><trkpt lat="50.6817170501019" lon="5.687084518591291"><ele>118.00000000000001</ele><time>2026-04-29T11:38:40.001Z</time></trkpt><trkpt lat="50.68160986262049" lon="5.687030083405776"><ele>118.0</ele><time>2026-04-29T11:38:42.001Z</time></trkpt><trkpt lat="50.68148542114932" lon="5.686995369202889"><ele>118.0</ele><time>2026-04-29T11:38:44.001Z</time></trkpt><trkpt lat="50.681380980818524" lon="5.686985898622708"><ele>118.0</ele><time>2026-04-29T11:38:46.001Z</time></trkpt><trkpt lat="50.681301479881306" lon="5.68705854954684"><ele>118.0</ele><time>2026-04-29T11:38:48.001Z</time></trkpt><trkpt lat="50.681312947656096" lon="5.687197126724737"><ele>118.0</ele><time>2026-04-29T11:38:50.001Z</time></trkpt><trkpt lat="50.68136649374576" lon="5.687255866052618"><ele>118.0</ele><time>2026-04-29T11:38:51.001Z</time></trkpt><trkpt lat="50.68143224143342" lon="5.687272483437021"><ele>118.0</ele><time>2026-04-29T11:38:52.001Z</time></trkpt><trkpt lat="50.68149406799996" lon="5.687295683850535"><ele>118.0</ele><time>2026-04-29T11:38:53.001Z</time></trkpt><trkpt lat="50.68155119068466" lon="5.687349575633241"><ele>118.0</ele><time>2026-04-29T11:38:54.001Z</time></trkpt><trkpt lat="50.68159418582138" lon="5.687429847166108"><ele>118.0</ele><time>2026-04-29T11:38:55.001Z</time></trkpt><trkpt lat="50.681617593626406" lon="5.687528521857966"><ele>118.0</ele><time>2026-04-29T11:38:56.001Z</time></trkpt><trkpt lat="50.68162002367105" lon="5.687629329971587"><ele>118.0</ele><time>2026-04-29T11:38:57.001Z</time></trkpt><trkpt lat="50.68160217190232" lon="5.687730770869951"><ele>118.0</ele><time>2026-04-29T11:38:58.001Z</time></trkpt><trkpt lat="50.681571718078324" lon="5.6878360176846146"><ele>118.0</ele><time>2026-04-29T11:38:59.001Z</time></trkpt><trkpt lat="50.681540545723955" lon="5.687948095472351"><ele>118.0</ele><time>2026-04-29T11:39:00.001Z</time></trkpt><trkpt lat="50.681508908391756" lon="5.688058252943332"><ele>118.0</ele><time>2026-04-29T11:39:01.001Z</time></trkpt><trkpt lat="50.68147858908007" lon="5.688150785082444"><ele>119.2</ele><time>2026-04-29T11:39:02.001Z</time></trkpt><trkpt lat="50.681440002363864" lon="5.688264784370726"><ele>120.4</ele><time>2026-04-29T11:39:03.001Z</time></trkpt><trkpt lat="50.681401196231654" lon="5.688393902499315"><ele>121.60000000000001</ele><time>2026-04-29T11:39:04.001Z</time></trkpt><trkpt lat="50.681364405185455" lon="5.68852429160336"><ele>122.80000000000001</ele><time>2026-04-29T11:39:05.001Z</time></trkpt><trkpt lat="50.68132727958552" lon="5.688657945394113"><ele>124.0</ele><time>2026-04-29T11:39:06.001Z</time></trkpt><trkpt lat="50.68128760321219" lon="5.688793298487225"><ele>125.4</ele><time>2026-04-29T11:39:07.001Z</time></trkpt><trkpt lat="50.68124903859129" lon="5.688929890506914"><ele>126.80000000000001</ele><time>2026-04-29T11:39:08.001Z</time></trkpt><trkpt lat="50.681207124777195" lon="5.689074200164191"><ele>128.2</ele><time>2026-04-29T11:39:09.001Z</time></trkpt><trkpt lat="50.681155694237745" lon="5.689222070059613"><ele>129.6</ele><time>2026-04-29T11:39:10.001Z</time></trkpt><trkpt lat="50.6810940925674" lon="5.689360885204138"><ele>131.0</ele><time>2026-04-29T11:39:11.001Z</time></trkpt><trkpt lat="50.68102665159425" lon="5.68949834415569"><ele>132.75</ele><time>2026-04-29T11:39:12.001Z</time></trkpt><trkpt lat="50.68095026554607" lon="5.689629411646097"><ele>134.5</ele><time>2026-04-29T11:39:13.001Z</time></trkpt><trkpt lat="50.680856346154954" lon="5.689726073453651"><ele>136.25</ele><time>2026-04-29T11:39:14.001Z</time></trkpt><trkpt lat="50.68076409715404" lon="5.689830415045864"><ele>138.0</ele><time>2026-04-29T11:39:15.001Z</time></trkpt><trkpt lat="50.68067292316149" lon="5.689956812301536"><ele>138.0</ele><time>2026-04-29T11:39:16Z</time></trkpt><trkpt lat="50.68058760473787" lon="5.690049213549796"><ele>138.0</ele><time>2026-04-29T11:39:17Z</time></trkpt><trkpt lat="50.68049402957364" lon="5.690152358774694"><ele>138.0</ele><time>2026-04-29T11:39:18Z</time></trkpt><trkpt lat="50.68038956310759" lon="5.690234781900599"><ele>138.0</ele><time>2026-04-29T11:39:19Z</time></trkpt><trkpt lat="50.68031879545718" lon="5.690379088707146"><ele>140.20000000000002</ele><time>2026-04-29T11:39:20Z</time></trkpt><trkpt lat="50.68024721935057" lon="5.69051384880752"><ele>142.4</ele><time>2026-04-29T11:39:21Z</time></trkpt><trkpt lat="50.68019328862175" lon="5.690648891643211"><ele>144.60000000000002</ele><time>2026-04-29T11:39:22Z</time></trkpt><trkpt lat="50.680153956966876" lon="5.690775250259994"><ele>146.8</ele><time>2026-04-29T11:39:23Z</time></trkpt><trkpt lat="50.68012264115956" lon="5.690899851528458"><ele>149.0</ele><time>2026-04-29T11:39:24Z</time></trkpt><trkpt lat="50.68009897257578" lon="5.691021005197469"><ele>149.0</ele><time>2026-04-29T11:39:25Z</time></trkpt><trkpt lat="50.680088162735366" lon="5.691143609167182"><ele>149.0</ele><time>2026-04-29T11:39:26Z</time></trkpt><trkpt lat="50.68007389361631" lon="5.691277905055578"><ele>149.0</ele><time>2026-04-29T11:39:27Z</time></trkpt><trkpt lat="50.680044104376236" lon="5.691408795509881"><ele>149.0</ele><time>2026-04-29T11:39:28Z</time></trkpt><trkpt lat="50.6800166147954" lon="5.691554268334211"><ele>149.0</ele><time>2026-04-29T11:39:29Z</time></trkpt><trkpt lat="50.6799921597645" lon="5.691711164716852"><ele>149.0</ele><time>2026-04-29T11:39:30Z</time></trkpt><trkpt lat="50.67996855314285" lon="5.6918755591582695"><ele>149.0</ele><time>2026-04-29T11:39:31Z</time></trkpt><trkpt lat="50.67994247295283" lon="5.6920418243770605"><ele>149.0</ele><time>2026-04-29T11:39:32Z</time></trkpt><trkpt lat="50.67991915608859" lon="5.692213407963302"><ele>149.0</ele><time>2026-04-29T11:39:33Z</time></trkpt><trkpt lat="50.679904736077894" lon="5.692389747771857"><ele>149.0</ele><time>2026-04-29T11:39:34Z</time></trkpt><trkpt lat="50.67991289464877" lon="5.692565679502237"><ele>149.6</ele><time>2026-04-29T11:39:35Z</time></trkpt><trkpt lat="50.67992729700361" lon="5.692739391060503"><ele>150.2</ele><time>2026-04-29T11:39:36Z</time></trkpt><trkpt lat="50.679936432251694" lon="5.692917077835882"><ele>150.79999999999998</ele><time>2026-04-29T11:39:37Z</time></trkpt><trkpt lat="50.67994382839908" lon="5.6930920942849434"><ele>151.4</ele><time>2026-04-29T11:39:38Z</time></trkpt><trkpt lat="50.67995217542132" lon="5.693261636841505"><ele>152.0</ele><time>2026-04-29T11:39:39Z</time></trkpt><trkpt lat="50.679957126398556" lon="5.693411338206013"><ele>152.83333333333331</ele><time>2026-04-29T11:39:40Z</time></trkpt><trkpt lat="50.67996263926812" lon="5.693550406126884"><ele>153.66666666666666</ele><time>2026-04-29T11:39:41Z</time></trkpt><trkpt lat="50.679966691322065" lon="5.693668041951714"><ele>154.5</ele><time>2026-04-29T11:39:42Z</time></trkpt><trkpt lat="50.679957303881814" lon="5.693823537088359"><ele>155.33333333333334</ele><time>2026-04-29T11:39:44Z</time></trkpt><trkpt lat="50.679887412484625" lon="5.693904582264613"><ele>156.16666666666669</ele><time>2026-04-29T11:39:47Z</time></trkpt><trkpt lat="50.679798828810846" lon="5.693974548505675"><ele>157.0</ele><time>2026-04-29T11:40:00Z</time></trkpt><trkpt lat="50.67968113442117" lon="5.6940321520758586"><ele>158.0</ele><time>2026-04-29T11:40:02Z</time></trkpt><trkpt lat="50.67957033426195" lon="5.694052685291574"><ele>159.0</ele><time>2026-04-29T11:40:04Z</time></trkpt><trkpt lat="50.6794415165434" lon="5.694058762689786"><ele>160.0</ele><time>2026-04-29T11:40:06Z</time></trkpt><trkpt lat="50.67932374898213" lon="5.694053203153856"><ele>161.0</ele><time>2026-04-29T11:40:08Z</time></trkpt><trkpt lat="50.67921788233294" lon="5.694046984319954"><ele>161.8</ele><time>2026-04-29T11:40:10Z</time></trkpt><trkpt lat="50.679144060490486" lon="5.694045377975546"><ele>162.60000000000002</ele><time>2026-04-29T11:40:12Z</time></trkpt><trkpt lat="50.679053421264776" lon="5.694043759117378"><ele>163.4</ele><time>2026-04-29T11:40:15Z</time></trkpt><trkpt lat="50.67902640766632" lon="5.694255755674544"><ele>164.2</ele><time>2026-04-29T11:40:23Z</time></trkpt><trkpt lat="50.67906655169031" lon="5.694388230023653"><ele>165.0</ele><time>2026-04-29T11:40:25Z</time></trkpt><trkpt lat="50.67911264804593" lon="5.694553519023628"><ele>165.33333333333334</ele><time>2026-04-29T11:40:27Z</time></trkpt><trkpt lat="50.67913219453448" lon="5.6946485331771095"><ele>165.66666666666666</ele><time>2026-04-29T11:40:28Z</time></trkpt><trkpt lat="50.67915916613557" lon="5.694750616446574"><ele>166.0</ele><time>2026-04-29T11:40:29Z</time></trkpt><trkpt lat="50.67920756533138" lon="5.6949337998790135"><ele>166.33333333333331</ele><time>2026-04-29T11:40:31Z</time></trkpt><trkpt lat="50.67924361326796" lon="5.695027300389566"><ele>166.66666666666666</ele><time>2026-04-29T11:40:32Z</time></trkpt><trkpt lat="50.67928449432814" lon="5.69520178531084"><ele>167.0</ele><time>2026-04-29T11:40:34Z</time></trkpt><trkpt lat="50.67931334504059" lon="5.695341564400418"><ele>167.0</ele><time>2026-04-29T11:40:36Z</time></trkpt><trkpt lat="50.67932300221979" lon="5.695450151450127"><ele>167.0</ele><time>2026-04-29T11:40:38Z</time></trkpt><trkpt lat="50.67935621755666" lon="5.695565421553918"><ele>167.0</ele><time>2026-04-29T11:40:53.001Z</time></trkpt><trkpt lat="50.67942516231835" lon="5.6956109601428855"><ele>167.0</ele><time>2026-04-29T11:40:55.001Z</time></trkpt><trkpt lat="50.679498025573224" lon="5.695620335683251"><ele>167.0</ele><time>2026-04-29T11:40:56.001Z</time></trkpt><trkpt lat="50.67957198068838" lon="5.695633884413689"><ele>167.0</ele><time>2026-04-29T11:40:57.001Z</time></trkpt><trkpt lat="50.67965021577271" lon="5.695644582329159"><ele>166.85714285714286</ele><time>2026-04-29T11:40:58.001Z</time></trkpt><trkpt lat="50.679722089941336" lon="5.695652485143678"><ele>166.71428571428572</ele><time>2026-04-29T11:40:59.001Z</time></trkpt><trkpt lat="50.67978662595464" lon="5.695658192102336"><ele>166.57142857142856</ele><time>2026-04-29T11:41:00.001Z</time></trkpt><trkpt lat="50.67984999961091" lon="5.695666307958052"><ele>166.42857142857144</ele><time>2026-04-29T11:41:01.001Z</time></trkpt><trkpt lat="50.6799214438251" lon="5.69567474140571"><ele>166.2857142857143</ele><time>2026-04-29T11:41:02.001Z</time></trkpt><trkpt lat="50.680000654644026" lon="5.695682400097173"><ele>166.14285714285714</ele><time>2026-04-29T11:41:03.001Z</time></trkpt><trkpt lat="50.68007765065798" lon="5.695688933541222"><ele>166.0</ele><time>2026-04-29T11:41:04.001Z</time></trkpt><trkpt lat="50.68015599881421" lon="5.69569404674169"><ele>166.0</ele><time>2026-04-29T11:41:05.001Z</time></trkpt><trkpt lat="50.68024107273385" lon="5.695699621716683"><ele>166.0</ele><time>2026-04-29T11:41:06.001Z</time></trkpt><trkpt lat="50.68031635939059" lon="5.695704724874741"><ele>166.0</ele><time>2026-04-29T11:41:07.001Z</time></trkpt><trkpt lat="50.68038544109425" lon="5.6957094422052466"><ele>166.0</ele><time>2026-04-29T11:41:08.001Z</time></trkpt><trkpt lat="50.68045425815097" lon="5.695712891291617"><ele>166.0</ele><time>2026-04-29T11:41:09.001Z</time></trkpt><trkpt lat="50.68052951769919" lon="5.695717938300356"><ele>166.0</ele><time>2026-04-29T11:41:10.001Z</time></trkpt><trkpt lat="50.680609148987585" lon="5.695723635839408"><ele>165.66666666666669</ele><time>2026-04-29T11:41:11.001Z</time></trkpt><trkpt lat="50.68069280467725" lon="5.6957320219290315"><ele>165.33333333333334</ele><time>2026-04-29T11:41:12.001Z</time></trkpt><trkpt lat="50.68077741454142" lon="5.695738231122412"><ele>165.0</ele><time>2026-04-29T11:41:13.001Z</time></trkpt><trkpt lat="50.68086344287049" lon="5.6957448890192515"><ele>164.66666666666666</ele><time>2026-04-29T11:41:14.001Z</time></trkpt><trkpt lat="50.68095013144719" lon="5.695753487648434"><ele>164.33333333333331</ele><time>2026-04-29T11:41:15.001Z</time></trkpt><trkpt lat="50.681040720619485" lon="5.695759600193984"><ele>164.0</ele><time>2026-04-29T11:41:16.001Z</time></trkpt><trkpt lat="50.68112935186442" lon="5.695768215909723"><ele>163.39999999999998</ele><time>2026-04-29T11:41:17.001Z</time></trkpt><trkpt lat="50.681222296922606" lon="5.695775533308"><ele>162.8</ele><time>2026-04-29T11:41:18.001Z</time></trkpt><trkpt lat="50.681321847199975" lon="5.695783488993235"><ele>162.2</ele><time>2026-04-29T11:41:19.001Z</time></trkpt><trkpt lat="50.68142746211456" lon="5.695795218021663"><ele>161.60000000000002</ele><time>2026-04-29T11:41:20.001Z</time></trkpt><trkpt lat="50.68154518853512" lon="5.695803843713823"><ele>161.0</ele><time>2026-04-29T11:41:21.001Z</time></trkpt><trkpt lat="50.68166967728519" lon="5.695815866349414"><ele>161.0</ele><time>2026-04-29T11:41:22Z</time></trkpt><trkpt lat="50.681791564349226" lon="5.695826509662505"><ele>161.0</ele><time>2026-04-29T11:41:23Z</time></trkpt><trkpt lat="50.681904443887234" lon="5.695833536264485"><ele>161.0</ele><time>2026-04-29T11:41:24Z</time></trkpt><trkpt lat="50.68201782385801" lon="5.695840385021272"><ele>161.0</ele><time>2026-04-29T11:41:25Z</time></trkpt><trkpt lat="50.68213668971298" lon="5.695853832804026"><ele>160.5</ele><time>2026-04-29T11:41:26Z</time></trkpt><trkpt lat="50.68225792665852" lon="5.695863131486335"><ele>160.0</ele><time>2026-04-29T11:41:27Z</time></trkpt><trkpt lat="50.682374586145684" lon="5.695873139805439"><ele>159.5</ele><time>2026-04-29T11:41:28Z</time></trkpt><trkpt lat="50.68249599293399" lon="5.695885724236512"><ele>159.0</ele><time>2026-04-29T11:41:29Z</time></trkpt><trkpt lat="50.68262066524291" lon="5.695900335686467"><ele>159.0</ele><time>2026-04-29T11:41:30Z</time></trkpt><trkpt lat="50.68274708591239" lon="5.695918295937421"><ele>159.0</ele><time>2026-04-29T11:41:31Z</time></trkpt><trkpt lat="50.68287331419579" lon="5.6959371234616745"><ele>159.0</ele><time>2026-04-29T11:41:32Z</time></trkpt><trkpt lat="50.68299055865706" lon="5.695961183202988"><ele>159.0</ele><time>2026-04-29T11:41:33Z</time></trkpt><trkpt lat="50.683113741594084" lon="5.695987263200545"><ele>159.0</ele><time>2026-04-29T11:41:34Z</time></trkpt><trkpt lat="50.6832385252598" lon="5.69600424923727"><ele>159.0</ele><time>2026-04-29T11:41:35Z</time></trkpt><trkpt lat="50.68336369388744" lon="5.696020899767804"><ele>159.0</ele><time>2026-04-29T11:41:36Z</time></trkpt><trkpt lat="50.68348834520744" lon="5.696042558193573"><ele>159.0</ele><time>2026-04-29T11:41:37Z</time></trkpt><trkpt lat="50.68361504217815" lon="5.696058944850798"><ele>158.5</ele><time>2026-04-29T11:41:38Z</time></trkpt><trkpt lat="50.683741141124855" lon="5.696076869027883"><ele>158.0</ele><time>2026-04-29T11:41:39Z</time></trkpt><trkpt lat="50.68386565568422" lon="5.696086991913833"><ele>157.5</ele><time>2026-04-29T11:41:40Z</time></trkpt><trkpt lat="50.683991063450044" lon="5.696093298785969"><ele>157.0</ele><time>2026-04-29T11:41:41Z</time></trkpt><trkpt lat="50.68411571182873" lon="5.696102989521404"><ele>157.0</ele><time>2026-04-29T11:41:42Z</time></trkpt><trkpt lat="50.68423776283312" lon="5.696119430021747"><ele>157.0</ele><time>2026-04-29T11:41:43Z</time></trkpt><trkpt lat="50.684359418150386" lon="5.696135106268491"><ele>157.0</ele><time>2026-04-29T11:41:44Z</time></trkpt><trkpt lat="50.68447480018907" lon="5.696149205849598"><ele>157.0</ele><time>2026-04-29T11:41:45Z</time></trkpt><trkpt lat="50.684595927760746" lon="5.696163621502977"><ele>157.25</ele><time>2026-04-29T11:41:46Z</time></trkpt><trkpt lat="50.684718272552495" lon="5.6961818603340095"><ele>157.5</ele><time>2026-04-29T11:41:47Z</time></trkpt><trkpt lat="50.68484390205536" lon="5.696199937902442"><ele>157.75</ele><time>2026-04-29T11:41:48Z</time></trkpt><trkpt lat="50.684966705407085" lon="5.6962150704194885"><ele>158.0</ele><time>2026-04-29T11:41:49Z</time></trkpt><trkpt lat="50.68508918271164" lon="5.6962302408880126"><ele>158.0</ele><time>2026-04-29T11:41:50Z</time></trkpt><trkpt lat="50.68521095414915" lon="5.69624609225152"><ele>158.0</ele><time>2026-04-29T11:41:51Z</time></trkpt><trkpt lat="50.68533310647446" lon="5.69626298131672"><ele>158.0</ele><time>2026-04-29T11:41:52Z</time></trkpt><trkpt lat="50.68545357638694" lon="5.696280551701694"><ele>158.0</ele><time>2026-04-29T11:41:53Z</time></trkpt><trkpt lat="50.68557543070892" lon="5.6962970601130305"><ele>157.25</ele><time>2026-04-29T11:41:54Z</time></trkpt><trkpt lat="50.68569690906811" lon="5.696312978968884"><ele>156.5</ele><time>2026-04-29T11:41:55Z</time></trkpt><trkpt lat="50.685817919101" lon="5.696328331836839"><ele>155.75</ele><time>2026-04-29T11:41:56Z</time></trkpt><trkpt lat="50.685940756932055" lon="5.6963450734221315"><ele>155.0</ele><time>2026-04-29T11:41:57Z</time></trkpt><trkpt lat="50.686063783440524" lon="5.696361472057547"><ele>154.75</ele><time>2026-04-29T11:41:58Z</time></trkpt><trkpt lat="50.686185813688844" lon="5.696378174745835"><ele>154.5</ele><time>2026-04-29T11:41:59Z</time></trkpt><trkpt lat="50.68630882622965" lon="5.696393184701612"><ele>154.25</ele><time>2026-04-29T11:42:00Z</time></trkpt><trkpt lat="50.68643214482372" lon="5.6963984732294515"><ele>154.0</ele><time>2026-04-29T11:42:01Z</time></trkpt><trkpt lat="50.6865535236529" lon="5.696405488607217"><ele>154.0</ele><time>2026-04-29T11:42:02Z</time></trkpt><trkpt lat="50.68667162693958" lon="5.696417014735021"><ele>154.0</ele><time>2026-04-29T11:42:03Z</time></trkpt><trkpt lat="50.68678855071224" lon="5.696432737085704"><ele>154.0</ele><time>2026-04-29T11:42:04Z</time></trkpt><trkpt lat="50.68690540011271" lon="5.69644647930169"><ele>154.0</ele><time>2026-04-29T11:42:05Z</time></trkpt><trkpt lat="50.68702515826544" lon="5.696460705367559"><ele>154.0</ele><time>2026-04-29T11:42:06Z</time></trkpt><trkpt lat="50.68714185900938" lon="5.696477590803451"><ele>154.0</ele><time>2026-04-29T11:42:07Z</time></trkpt><trkpt lat="50.687259518368386" lon="5.696497994611925"><ele>154.0</ele><time>2026-04-29T11:42:08Z</time></trkpt><trkpt lat="50.68737864173064" lon="5.696521467120021"><ele>154.0</ele><time>2026-04-29T11:42:09Z</time></trkpt><trkpt lat="50.687499762796136" lon="5.696547574262415"><ele>154.0</ele><time>2026-04-29T11:42:10Z</time></trkpt><trkpt lat="50.687622375341334" lon="5.69657011929361"><ele>154.0</ele><time>2026-04-29T11:42:11Z</time></trkpt><trkpt lat="50.68774549230545" lon="5.696585963674158"><ele>154.0</ele><time>2026-04-29T11:42:12Z</time></trkpt><trkpt lat="50.68786929283983" lon="5.696600801979345"><ele>154.0</ele><time>2026-04-29T11:42:13Z</time></trkpt><trkpt lat="50.687993007882035" lon="5.696618312141207"><ele>154.0</ele><time>2026-04-29T11:42:14Z</time></trkpt><trkpt lat="50.6881172175441" lon="5.696636306950098"><ele>154.0</ele><time>2026-04-29T11:42:15Z</time></trkpt><trkpt lat="50.68823949738138" lon="5.696655271803567"><ele>154.0</ele><time>2026-04-29T11:42:16Z</time></trkpt><trkpt lat="50.68836218576136" lon="5.6966806537616534"><ele>154.0</ele><time>2026-04-29T11:42:17Z</time></trkpt><trkpt lat="50.68848407728232" lon="5.6967111840130915"><ele>154.25</ele><time>2026-04-29T11:42:18Z</time></trkpt><trkpt lat="50.68860731047637" lon="5.696745674238864"><ele>154.5</ele><time>2026-04-29T11:42:19Z</time></trkpt><trkpt lat="50.688729731378984" lon="5.69678694438461"><ele>154.75</ele><time>2026-04-29T11:42:20Z</time></trkpt><trkpt lat="50.6888495593909" lon="5.696834001861009"><ele>155.0</ele><time>2026-04-29T11:42:21Z</time></trkpt><trkpt lat="50.68896814595459" lon="5.6968841691523116"><ele>155.0</ele><time>2026-04-29T11:42:22Z</time></trkpt><trkpt lat="50.68908868703263" lon="5.696940546397801"><ele>155.0</ele><time>2026-04-29T11:42:23Z</time></trkpt><trkpt lat="50.68921061494154" lon="5.6969988852662965"><ele>155.0</ele><time>2026-04-29T11:42:24Z</time></trkpt><trkpt lat="50.6893308283117" lon="5.697061935399983"><ele>155.0</ele><time>2026-04-29T11:42:25Z</time></trkpt><trkpt lat="50.68945738359434" lon="5.697121651661664"><ele>154.5</ele><time>2026-04-29T11:42:26Z</time></trkpt><trkpt lat="50.68957754380941" lon="5.697189471059905"><ele>154.0</ele><time>2026-04-29T11:42:27Z</time></trkpt><trkpt lat="50.68970001428589" lon="5.6972536041625785"><ele>153.5</ele><time>2026-04-29T11:42:28Z</time></trkpt><trkpt lat="50.689817052547326" lon="5.69731455900178"><ele>153.0</ele><time>2026-04-29T11:42:29Z</time></trkpt><trkpt lat="50.68993662566597" lon="5.697376792503008"><ele>153.0</ele><time>2026-04-29T11:42:30Z</time></trkpt><trkpt lat="50.69005536569391" lon="5.697443648826889"><ele>153.0</ele><time>2026-04-29T11:42:31Z</time></trkpt><trkpt lat="50.69018132426081" lon="5.697509209396235"><ele>153.0</ele><time>2026-04-29T11:42:32Z</time></trkpt><trkpt lat="50.69030541914339" lon="5.6975768444178865"><ele>153.0</ele><time>2026-04-29T11:42:33Z</time></trkpt><trkpt lat="50.69042674173903" lon="5.697644517624835"><ele>152.5</ele><time>2026-04-29T11:42:34Z</time></trkpt><trkpt lat="50.6905513030918" lon="5.697708411729429"><ele>152.0</ele><time>2026-04-29T11:42:35Z</time></trkpt><trkpt lat="50.69067031309193" lon="5.697775936661409"><ele>151.5</ele><time>2026-04-29T11:42:36Z</time></trkpt><trkpt lat="50.6907900158386" lon="5.697841746643154"><ele>151.0</ele><time>2026-04-29T11:42:37Z</time></trkpt><trkpt lat="50.690907716271724" lon="5.697906073213737"><ele>151.0</ele><time>2026-04-29T11:42:38Z</time></trkpt><trkpt lat="50.69101890436307" lon="5.69796540554827"><ele>151.0</ele><time>2026-04-29T11:42:39Z</time></trkpt><trkpt lat="50.69112873454034" lon="5.69802238030019"><ele>151.0</ele><time>2026-04-29T11:42:40Z</time></trkpt><trkpt lat="50.69123819152019" lon="5.698079637011362"><ele>151.0</ele><time>2026-04-29T11:42:41Z</time></trkpt><trkpt lat="50.691346067634" lon="5.6981373716555845"><ele>151.0</ele><time>2026-04-29T11:42:42Z</time></trkpt><trkpt lat="50.69145337108505" lon="5.698194805225058"><ele>151.0</ele><time>2026-04-29T11:42:43Z</time></trkpt><trkpt lat="50.691558891401975" lon="5.698251635968387"><ele>151.0</ele><time>2026-04-29T11:42:44Z</time></trkpt><trkpt lat="50.69166186874118" lon="5.698306258935058"><ele>151.0</ele><time>2026-04-29T11:42:45Z</time></trkpt><trkpt lat="50.69175578426612" lon="5.6983566733668924"><ele>151.0</ele><time>2026-04-29T11:42:46Z</time></trkpt><trkpt lat="50.69184977184715" lon="5.698408321924709"><ele>150.6</ele><time>2026-04-29T11:42:47Z</time></trkpt><trkpt lat="50.691941110157174" lon="5.6984567519502765"><ele>150.2</ele><time>2026-04-29T11:42:48Z</time></trkpt><trkpt lat="50.69203493618518" lon="5.698506852242266"><ele>149.8</ele><time>2026-04-29T11:42:49Z</time></trkpt><trkpt lat="50.692119537516845" lon="5.698553466597344"><ele>149.4</ele><time>2026-04-29T11:42:50Z</time></trkpt><trkpt lat="50.692204398066245" lon="5.698598536403852"><ele>149.0</ele><time>2026-04-29T11:42:51Z</time></trkpt><trkpt lat="50.69228468959089" lon="5.6986432611181"><ele>148.5</ele><time>2026-04-29T11:42:52Z</time></trkpt><trkpt lat="50.69236442469677" lon="5.698687281045275"><ele>148.0</ele><time>2026-04-29T11:42:53Z</time></trkpt><trkpt lat="50.6924338049218" lon="5.698724444658986"><ele>147.5</ele><time>2026-04-29T11:42:54.001Z</time></trkpt><trkpt lat="50.69250003206921" lon="5.698759517278634"><ele>147.0</ele><time>2026-04-29T11:42:55.001Z</time></trkpt><trkpt lat="50.692615163273736" lon="5.6988176310698035"><ele>146.5</ele><time>2026-04-29T11:42:57.001Z</time></trkpt><trkpt lat="50.6926784128359" lon="5.698849218929613"><ele>146.0</ele><time>2026-04-29T11:42:59.001Z</time></trkpt><trkpt lat="50.69275041782927" lon="5.69887050527503"><ele>145.75</ele><time>2026-04-29T11:43:03.001Z</time></trkpt><trkpt lat="50.692826293873544" lon="5.6986874095382545"><ele>145.5</ele><time>2026-04-29T11:43:06.001Z</time></trkpt><trkpt lat="50.69289171972707" lon="5.698520216819549"><ele>145.25</ele><time>2026-04-29T11:43:08.001Z</time></trkpt><trkpt lat="50.69292994748221" lon="5.698428132110152"><ele>145.0</ele><time>2026-04-29T11:43:09.001Z</time></trkpt><trkpt lat="50.692994366357944" lon="5.698265925118963"><ele>145.5</ele><time>2026-04-29T11:43:11.001Z</time></trkpt><trkpt lat="50.693032215877906" lon="5.69817381324408"><ele>146.0</ele><time>2026-04-29T11:43:12.001Z</time></trkpt><trkpt lat="50.69307377053686" lon="5.698077701091064"><ele>146.5</ele><time>2026-04-29T11:43:13.001Z</time></trkpt><trkpt lat="50.69311371626227" lon="5.697978872503163"><ele>147.0</ele><time>2026-04-29T11:43:14.001Z</time></trkpt><trkpt lat="50.69317848819091" lon="5.697813126735446"><ele>147.5</ele><time>2026-04-29T11:43:16.001Z</time></trkpt><trkpt lat="50.69321277728762" lon="5.697726443271589"><ele>148.0</ele><time>2026-04-29T11:43:17.001Z</time></trkpt><trkpt lat="50.69324919034103" lon="5.697636106446673"><ele>148.0</ele><time>2026-04-29T11:43:18.001Z</time></trkpt><trkpt lat="50.693287473875586" lon="5.697541189500526"><ele>148.0</ele><time>2026-04-29T11:43:19.001Z</time></trkpt><trkpt lat="50.69332205346202" lon="5.69745235174436"><ele>148.0</ele><time>2026-04-29T11:43:20.001Z</time></trkpt><trkpt lat="50.6933845800547" lon="5.6973031565794425"><ele>148.0</ele><time>2026-04-29T11:43:22.001Z</time></trkpt><trkpt lat="50.693449221716065" lon="5.697210170843186"><ele>148.0</ele><time>2026-04-29T11:43:24.001Z</time></trkpt><trkpt lat="50.69354713766143" lon="5.697209762220176"><ele>148.0</ele><time>2026-04-29T11:43:26.001Z</time></trkpt><trkpt lat="50.69361031545256" lon="5.697214133573628"><ele>148.16666666666669</ele><time>2026-04-29T11:43:27Z</time></trkpt><trkpt lat="50.69370180792331" lon="5.697278870853196"><ele>148.33333333333334</ele><time>2026-04-29T11:43:29Z</time></trkpt><trkpt lat="50.6937725684017" lon="5.697220581808805"><ele>148.5</ele><time>2026-04-29T11:43:30Z</time></trkpt><trkpt lat="50.69383977161736" lon="5.697219415650091"><ele>148.66666666666666</ele><time>2026-04-29T11:43:31Z</time></trkpt><trkpt lat="50.693914772320234" lon="5.697219966706075"><ele>148.83333333333331</ele><time>2026-04-29T11:43:32Z</time></trkpt><trkpt lat="50.693993817261685" lon="5.6972213807523024"><ele>149.0</ele><time>2026-04-29T11:43:33Z</time></trkpt><trkpt lat="50.69406923574986" lon="5.697218437654595"><ele>149.0</ele><time>2026-04-29T11:43:34Z</time></trkpt><trkpt lat="50.694141563044944" lon="5.69720400744018"><ele>149.0</ele><time>2026-04-29T11:43:35Z</time></trkpt><trkpt lat="50.6942144382524" lon="5.697174068941501"><ele>149.0</ele><time>2026-04-29T11:43:36Z</time></trkpt><trkpt lat="50.69429053559788" lon="5.697137481222415"><ele>149.0</ele><time>2026-04-29T11:43:37Z</time></trkpt><trkpt lat="50.69436987553489" lon="5.697114980034975"><ele>149.0</ele><time>2026-04-29T11:43:38Z</time></trkpt><trkpt lat="50.694450243037494" lon="5.69709453310108"><ele>149.0</ele><time>2026-04-29T11:43:39Z</time></trkpt><trkpt lat="50.6945320598801" lon="5.697058258104029"><ele>148.4</ele><time>2026-04-29T11:43:40Z</time></trkpt><trkpt lat="50.69461727204079" lon="5.697018642060434"><ele>147.8</ele><time>2026-04-29T11:43:41Z</time></trkpt><trkpt lat="50.69470599273078" lon="5.6969800879753905"><ele>147.2</ele><time>2026-04-29T11:43:42Z</time></trkpt><trkpt lat="50.6947899606083" lon="5.696941869868787"><ele>146.6</ele><time>2026-04-29T11:43:43Z</time></trkpt><trkpt lat="50.694873470577164" lon="5.69690874131917"><ele>146.0</ele><time>2026-04-29T11:43:44Z</time></trkpt><trkpt lat="50.6949664744414" lon="5.69686747944065"><ele>146.0</ele><time>2026-04-29T11:43:45Z</time></trkpt><trkpt lat="50.69506487939678" lon="5.696820569249821"><ele>146.0</ele><time>2026-04-29T11:43:46Z</time></trkpt><trkpt lat="50.69516806673052" lon="5.696765267111811"><ele>146.0</ele><time>2026-04-29T11:43:47Z</time></trkpt><trkpt lat="50.6952732512278" lon="5.696702789013604"><ele>146.0</ele><time>2026-04-29T11:43:48Z</time></trkpt><trkpt lat="50.69537746690737" lon="5.696641738397639"><ele>146.0</ele><time>2026-04-29T11:43:49Z</time></trkpt><trkpt lat="50.69547337890877" lon="5.696578723621072"><ele>146.0</ele><time>2026-04-29T11:43:50Z</time></trkpt><trkpt lat="50.69556443882129" lon="5.69651814942783"><ele>146.0</ele><time>2026-04-29T11:43:51Z</time></trkpt><trkpt lat="50.69564995683762" lon="5.696459029063896"><ele>146.0</ele><time>2026-04-29T11:43:52Z</time></trkpt><trkpt lat="50.695728272339245" lon="5.696405927208294"><ele>146.0</ele><time>2026-04-29T11:43:53Z</time></trkpt><trkpt lat="50.69579679772178" lon="5.696363780598282"><ele>146.0</ele><time>2026-04-29T11:43:54Z</time></trkpt><trkpt lat="50.695856578954505" lon="5.696328403233481"><ele>146.0</ele><time>2026-04-29T11:43:55Z</time></trkpt><trkpt lat="50.695953103689924" lon="5.696269706244825"><ele>146.0</ele><time>2026-04-29T11:43:57Z</time></trkpt><trkpt lat="50.69604335331547" lon="5.6962457630491485"><ele>146.0</ele><time>2026-04-29T11:43:59Z</time></trkpt><trkpt lat="50.696149069356295" lon="5.6962393878126045"><ele>146.0</ele><time>2026-04-29T11:44:01Z</time></trkpt><trkpt lat="50.69627104393229" lon="5.696236983523308"><ele>146.0</ele><time>2026-04-29T11:44:03Z</time></trkpt><trkpt lat="50.69633811496047" lon="5.696239307420508"><ele>146.0</ele><time>2026-04-29T11:44:04Z</time></trkpt><trkpt lat="50.69640409596604" lon="5.696246023708142"><ele>145.83333333333331</ele><time>2026-04-29T11:44:05Z</time></trkpt><trkpt lat="50.69646931635373" lon="5.696257122461911"><ele>145.66666666666666</ele><time>2026-04-29T11:44:06Z</time></trkpt><trkpt lat="50.69653400113643" lon="5.69626721819999"><ele>145.5</ele><time>2026-04-29T11:44:07Z</time></trkpt><trkpt lat="50.69660939746446" lon="5.696279302629096"><ele>145.33333333333334</ele><time>2026-04-29T11:44:08Z</time></trkpt><trkpt lat="50.69669300341434" lon="5.6962976583277625"><ele>145.16666666666669</ele><time>2026-04-29T11:44:09Z</time></trkpt><trkpt lat="50.69678570997061" lon="5.696319213411519"><ele>145.0</ele><time>2026-04-29T11:44:10Z</time></trkpt><trkpt lat="50.69688227461388" lon="5.6963428766076785"><ele>145.16666666666669</ele><time>2026-04-29T11:44:11Z</time></trkpt><trkpt lat="50.696974251775146" lon="5.69636830980571"><ele>145.33333333333334</ele><time>2026-04-29T11:44:12Z</time></trkpt><trkpt lat="50.69706176750803" lon="5.69639074633252"><ele>145.5</ele><time>2026-04-29T11:44:13Z</time></trkpt><trkpt lat="50.69714440934802" lon="5.696405114965669"><ele>145.66666666666666</ele><time>2026-04-29T11:44:14Z</time></trkpt><trkpt lat="50.697230835517615" lon="5.696410737335113"><ele>145.83333333333331</ele><time>2026-04-29T11:44:15Z</time></trkpt><trkpt lat="50.69732026465776" lon="5.696397094385061"><ele>146.0</ele><time>2026-04-29T11:44:16Z</time></trkpt><trkpt lat="50.697410483659795" lon="5.696381611795535"><ele>146.0</ele><time>2026-04-29T11:44:17Z</time></trkpt><trkpt lat="50.697498818245236" lon="5.696396375387132"><ele>146.0</ele><time>2026-04-29T11:44:18Z</time></trkpt><trkpt lat="50.69759268121159" lon="5.696359624294471"><ele>146.0</ele><time>2026-04-29T11:44:19Z</time></trkpt><trkpt lat="50.697693657485395" lon="5.696358637022877"><ele>146.0</ele><time>2026-04-29T11:44:20Z</time></trkpt><trkpt lat="50.6977954545275" lon="5.6963410211813335"><ele>146.0</ele><time>2026-04-29T11:44:21Z</time></trkpt><trkpt lat="50.69788851569264" lon="5.696326190808431"><ele>145.25</ele><time>2026-04-29T11:44:22Z</time></trkpt><trkpt lat="50.6979999628106" lon="5.696308268082029"><ele>144.5</ele><time>2026-04-29T11:44:23Z</time></trkpt><trkpt lat="50.698127538446556" lon="5.696278401712042"><ele>143.75</ele><time>2026-04-29T11:44:24Z</time></trkpt><trkpt lat="50.6982706657279" lon="5.696249089268035"><ele>143.0</ele><time>2026-04-29T11:44:25Z</time></trkpt><trkpt lat="50.69843079421125" lon="5.696211827780052"><ele>141.0</ele><time>2026-04-29T11:44:26Z</time></trkpt><trkpt lat="50.69859863732826" lon="5.69617503530371"><ele>139.0</ele><time>2026-04-29T11:44:27Z</time></trkpt><trkpt lat="50.698775937263726" lon="5.696140420912434"><ele>137.0</ele><time>2026-04-29T11:44:28Z</time></trkpt><trkpt lat="50.69894160733563" lon="5.696104036564988"><ele>137.0</ele><time>2026-04-29T11:44:29Z</time></trkpt><trkpt lat="50.69911809919384" lon="5.696069098223991"><ele>137.0</ele><time>2026-04-29T11:44:30Z</time></trkpt><trkpt lat="50.699303978348496" lon="5.696028221470273"><ele>137.0</ele><time>2026-04-29T11:44:31Z</time></trkpt><trkpt lat="50.699499509771144" lon="5.695988417390201"><ele>136.33333333333331</ele><time>2026-04-29T11:44:32Z</time></trkpt><trkpt lat="50.69970172331167" lon="5.69594699271183"><ele>135.66666666666666</ele><time>2026-04-29T11:44:33Z</time></trkpt><trkpt lat="50.69990896392954" lon="5.695905328181358"><ele>135.0</ele><time>2026-04-29T11:44:34Z</time></trkpt><trkpt lat="50.70011846065445" lon="5.695859227129793"><ele>134.33333333333334</ele><time>2026-04-29T11:44:35Z</time></trkpt><trkpt lat="50.700332651318824" lon="5.695812253863768"><ele>133.66666666666669</ele><time>2026-04-29T11:44:36Z</time></trkpt><trkpt lat="50.70054544312537" lon="5.695767727126858"><ele>133.0</ele><time>2026-04-29T11:44:37Z</time></trkpt><trkpt lat="50.70075004340384" lon="5.695724824936406"><ele>133.0</ele><time>2026-04-29T11:44:38Z</time></trkpt><trkpt lat="50.70094476041412" lon="5.695713264395846"><ele>133.0</ele><time>2026-04-29T11:44:39Z</time></trkpt><trkpt lat="50.701124457700516" lon="5.695659318738011"><ele>133.0</ele><time>2026-04-29T11:44:40Z</time></trkpt><trkpt lat="50.70128848996206" lon="5.695647109620039"><ele>132.75</ele><time>2026-04-29T11:44:41Z</time></trkpt><trkpt lat="50.701440968766256" lon="5.6956420916430766"><ele>132.5</ele><time>2026-04-29T11:44:42Z</time></trkpt><trkpt lat="50.701582746562146" lon="5.695648470938991"><ele>132.25</ele><time>2026-04-29T11:44:43Z</time></trkpt><trkpt lat="50.70171185257175" lon="5.695682547456186"><ele>132.0</ele><time>2026-04-29T11:44:44Z</time></trkpt><trkpt lat="50.701833853377416" lon="5.695697614620087"><ele>132.75</ele><time>2026-04-29T11:44:45Z</time></trkpt><trkpt lat="50.701951452773116" lon="5.695715749296103"><ele>133.5</ele><time>2026-04-29T11:44:46Z</time></trkpt><trkpt lat="50.702076478268886" lon="5.6957349712915635"><ele>134.25</ele><time>2026-04-29T11:44:47Z</time></trkpt><trkpt lat="50.702205250870385" lon="5.695743887479618"><ele>135.0</ele><time>2026-04-29T11:44:48Z</time></trkpt><trkpt lat="50.7023376622878" lon="5.695765014621482"><ele>135.0</ele><time>2026-04-29T11:44:49Z</time></trkpt><trkpt lat="50.70247007997096" lon="5.695779294519418"><ele>135.0</ele><time>2026-04-29T11:44:50Z</time></trkpt><trkpt lat="50.702608844430976" lon="5.69578028856382"><ele>135.0</ele><time>2026-04-29T11:44:51Z</time></trkpt><trkpt lat="50.702745834500426" lon="5.695770945049971"><ele>135.0</ele><time>2026-04-29T11:44:52Z</time></trkpt><trkpt lat="50.702881318532015" lon="5.695745817146249"><ele>135.25</ele><time>2026-04-29T11:44:53Z</time></trkpt><trkpt lat="50.70300588429643" lon="5.695718432780354"><ele>135.5</ele><time>2026-04-29T11:44:54Z</time></trkpt><trkpt lat="50.703118483076324" lon="5.6956910587072604"><ele>135.75</ele><time>2026-04-29T11:44:55Z</time></trkpt><trkpt lat="50.70323930729039" lon="5.6956674458181356"><ele>136.0</ele><time>2026-04-29T11:44:56Z</time></trkpt><trkpt lat="50.70336211560434" lon="5.69565902983367"><ele>136.0</ele><time>2026-04-29T11:44:57Z</time></trkpt><trkpt lat="50.703487818176875" lon="5.695644282901955"><ele>136.0</ele><time>2026-04-29T11:44:58Z</time></trkpt><trkpt lat="50.70361650431943" lon="5.695625364940884"><ele>136.0</ele><time>2026-04-29T11:44:59Z</time></trkpt><trkpt lat="50.70375114569491" lon="5.695601805428126"><ele>136.0</ele><time>2026-04-29T11:45:00Z</time></trkpt><trkpt lat="50.70389106672966" lon="5.695576988934784"><ele>136.33333333333334</ele><time>2026-04-29T11:45:01Z</time></trkpt><trkpt lat="50.704048631849844" lon="5.695548074952145"><ele>136.66666666666666</ele><time>2026-04-29T11:45:02Z</time></trkpt><trkpt lat="50.70421055663992" lon="5.695522169988272"><ele>137.0</ele><time>2026-04-29T11:45:03Z</time></trkpt><trkpt lat="50.70437795212654" lon="5.695495092658882"><ele>136.66666666666666</ele><time>2026-04-29T11:45:04Z</time></trkpt><trkpt lat="50.7045508620185" lon="5.695468044483717"><ele>136.33333333333334</ele><time>2026-04-29T11:45:05Z</time></trkpt><trkpt lat="50.70472709952172" lon="5.695437890081307"><ele>136.0</ele><time>2026-04-29T11:45:06Z</time></trkpt><trkpt lat="50.70490836335086" lon="5.695408036546538"><ele>136.0</ele><time>2026-04-29T11:45:07Z</time></trkpt><trkpt lat="50.70509123328397" lon="5.695379358180368"><ele>136.0</ele><time>2026-04-29T11:45:08Z</time></trkpt><trkpt lat="50.705279062498526" lon="5.695353268346221"><ele>136.0</ele><time>2026-04-29T11:45:09Z</time></trkpt><trkpt lat="50.7054705248241" lon="5.695324955182802"><ele>136.0</ele><time>2026-04-29T11:45:10Z</time></trkpt><trkpt lat="50.70566731857594" lon="5.695298008199233"><ele>136.0</ele><time>2026-04-29T11:45:11.001Z</time></trkpt><trkpt lat="50.70585798533083" lon="5.695271262634332"><ele>136.0</ele><time>2026-04-29T11:45:12.001Z</time></trkpt><trkpt lat="50.70604078586069" lon="5.695230538328284"><ele>134.66666666666669</ele><time>2026-04-29T11:45:13.001Z</time></trkpt><trkpt lat="50.706209104283694" lon="5.695165454242286"><ele>133.33333333333334</ele><time>2026-04-29T11:45:14.001Z</time></trkpt><trkpt lat="50.70637819778608" lon="5.695083421045077"><ele>132.0</ele><time>2026-04-29T11:45:15.001Z</time></trkpt><trkpt lat="50.70655399304128" lon="5.694987884197959"><ele>132.0</ele><time>2026-04-29T11:45:16.001Z</time></trkpt><trkpt lat="50.70673285760866" lon="5.694875822326624"><ele>132.0</ele><time>2026-04-29T11:45:17.001Z</time></trkpt><trkpt lat="50.70692234774957" lon="5.694766500331978"><ele>132.0</ele><time>2026-04-29T11:45:18.001Z</time></trkpt><trkpt lat="50.70711880366212" lon="5.69465664502097"><ele>131.0</ele><time>2026-04-29T11:45:19.001Z</time></trkpt><trkpt lat="50.70731086286409" lon="5.694564279673848"><ele>130.0</ele><time>2026-04-29T11:45:20.001Z</time></trkpt><trkpt lat="50.707513319500684" lon="5.694432546039153"><ele>129.0</ele><time>2026-04-29T11:45:21.001Z</time></trkpt><trkpt lat="50.707704652248935" lon="5.6943169840759"><ele>128.33333333333334</ele><time>2026-04-29T11:45:22.001Z</time></trkpt><trkpt lat="50.70789513427412" lon="5.694201679817142"><ele>127.66666666666667</ele><time>2026-04-29T11:45:23.001Z</time></trkpt><trkpt lat="50.708086635532496" lon="5.694085503338105"><ele>127.0</ele><time>2026-04-29T11:45:24.001Z</time></trkpt><trkpt lat="50.708265620848096" lon="5.693976750317871"><ele>127.0</ele><time>2026-04-29T11:45:25.001Z</time></trkpt><trkpt lat="50.708446331829855" lon="5.6938827541972294"><ele>127.0</ele><time>2026-04-29T11:45:26.001Z</time></trkpt><trkpt lat="50.708623760644805" lon="5.693749724653821"><ele>127.0</ele><time>2026-04-29T11:45:27.001Z</time></trkpt><trkpt lat="50.70878367532736" lon="5.693630481554965"><ele>126.75</ele><time>2026-04-29T11:45:28.001Z</time></trkpt><trkpt lat="50.70891833033812" lon="5.6934984876497845"><ele>126.5</ele><time>2026-04-29T11:45:29.001Z</time></trkpt><trkpt lat="50.709012934303246" lon="5.693389362958942"><ele>126.25</ele><time>2026-04-29T11:45:30.001Z</time></trkpt><trkpt lat="50.70912407666662" lon="5.693234229041728"><ele>126.0</ele><time>2026-04-29T11:45:31.001Z</time></trkpt><trkpt lat="50.709230889335565" lon="5.6930608422968385"><ele>126.0</ele><time>2026-04-29T11:45:32Z</time></trkpt><trkpt lat="50.709330432713415" lon="5.692888495042442"><ele>126.0</ele><time>2026-04-29T11:45:33Z</time></trkpt><trkpt lat="50.70942343119218" lon="5.692719169823036"><ele>126.0</ele><time>2026-04-29T11:45:34Z</time></trkpt><trkpt lat="50.7095123131125" lon="5.692553747852297"><ele>126.0</ele><time>2026-04-29T11:45:35Z</time></trkpt><trkpt lat="50.709599075999726" lon="5.692389333224453"><ele>126.25</ele><time>2026-04-29T11:45:36Z</time></trkpt><trkpt lat="50.7096832058822" lon="5.692227949051848"><ele>126.5</ele><time>2026-04-29T11:45:37Z</time></trkpt><trkpt lat="50.70976356947091" lon="5.692056179772051"><ele>126.75</ele><time>2026-04-29T11:45:38Z</time></trkpt><trkpt lat="50.70984616224686" lon="5.691877015804241"><ele>127.0</ele><time>2026-04-29T11:45:39Z</time></trkpt><trkpt lat="50.70992267457723" lon="5.691697755888305"><ele>127.0</ele><time>2026-04-29T11:45:40Z</time></trkpt><trkpt lat="50.709988966721724" lon="5.691511804165443"><ele>127.0</ele><time>2026-04-29T11:45:41Z</time></trkpt><trkpt lat="50.710053254578" lon="5.691314341025922"><ele>127.0</ele><time>2026-04-29T11:45:42Z</time></trkpt><trkpt lat="50.71011922341083" lon="5.691108259419035"><ele>127.0</ele><time>2026-04-29T11:45:43Z</time></trkpt><trkpt lat="50.71018958042532" lon="5.6909088903634855"><ele>126.5</ele><time>2026-04-29T11:45:44Z</time></trkpt><trkpt lat="50.710244736380886" lon="5.6907122577908975"><ele>126.0</ele><time>2026-04-29T11:45:45Z</time></trkpt><trkpt lat="50.710301516902746" lon="5.690524687406971"><ele>125.5</ele><time>2026-04-29T11:45:46Z</time></trkpt><trkpt lat="50.71034969238517" lon="5.690338081346811"><ele>125.0</ele><time>2026-04-29T11:45:47Z</time></trkpt><trkpt lat="50.71039298444731" lon="5.690159458946218"><ele>123.0</ele><time>2026-04-29T11:45:48Z</time></trkpt><trkpt lat="50.71044540437658" lon="5.690001311767903"><ele>121.0</ele><time>2026-04-29T11:45:49Z</time></trkpt><trkpt lat="50.7104970434927" lon="5.689853022089272"><ele>119.0</ele><time>2026-04-29T11:45:50Z</time></trkpt><trkpt lat="50.710552568975494" lon="5.689715856614495"><ele>117.0</ele><time>2026-04-29T11:45:51Z</time></trkpt><trkpt lat="50.71061334936039" lon="5.689594489765818"><ele>115.0</ele><time>2026-04-29T11:45:52Z</time></trkpt><trkpt lat="50.71069040728056" lon="5.689530881047009"><ele>115.00000000000001</ele><time>2026-04-29T11:45:53Z</time></trkpt><trkpt lat="50.7107616764984" lon="5.689498435346373"><ele>115.0</ele><time>2026-04-29T11:45:54Z</time></trkpt><trkpt lat="50.710828704457064" lon="5.68948595369708"><ele>115.0</ele><time>2026-04-29T11:45:55.001Z</time></trkpt><trkpt lat="50.710898977052665" lon="5.689492750317863"><ele>115.0</ele><time>2026-04-29T11:45:56.001Z</time></trkpt><trkpt lat="50.71099511941266" lon="5.689528754645224"><ele>115.00000000000001</ele><time>2026-04-29T11:45:57.001Z</time></trkpt><trkpt lat="50.71108989744288" lon="5.689577629067491"><ele>115.0</ele><time>2026-04-29T11:45:58.001Z</time></trkpt><trkpt lat="50.711196924407204" lon="5.6896075477988015"><ele>114.4</ele><time>2026-04-29T11:45:59.001Z</time></trkpt><trkpt lat="50.71129776228858" lon="5.689664095076872"><ele>113.8</ele><time>2026-04-29T11:46:00.001Z</time></trkpt><trkpt lat="50.711399266651085" lon="5.6897212275694065"><ele>113.19999999999999</ele><time>2026-04-29T11:46:01.001Z</time></trkpt><trkpt lat="50.71149353345613" lon="5.689774359282388"><ele>112.6</ele><time>2026-04-29T11:46:02.001Z</time></trkpt><trkpt lat="50.71157647389827" lon="5.6898155240180355"><ele>112.0</ele><time>2026-04-29T11:46:03.001Z</time></trkpt><trkpt lat="50.71165176643715" lon="5.689837485679561"><ele>112.00000000000001</ele><time>2026-04-29T11:46:04.001Z</time></trkpt><trkpt lat="50.71172148835765" lon="5.689833516838918"><ele>112.0</ele><time>2026-04-29T11:46:05.001Z</time></trkpt><trkpt lat="50.711785900596674" lon="5.6898084083058995"><ele>112.0</ele><time>2026-04-29T11:46:06.001Z</time></trkpt><trkpt lat="50.71185871270765" lon="5.689806720352578"><ele>112.0</ele><time>2026-04-29T11:46:07.001Z</time></trkpt><trkpt lat="50.711932324828105" lon="5.689716920724452"><ele>112.00000000000001</ele><time>2026-04-29T11:46:08.001Z</time></trkpt><trkpt lat="50.71201627139676" lon="5.689665528660029"><ele>112.0</ele><time>2026-04-29T11:46:09.001Z</time></trkpt><trkpt lat="50.71211300642484" lon="5.68961003204623"><ele>112.19999999999999</ele><time>2026-04-29T11:46:10.001Z</time></trkpt><trkpt lat="50.712217776030236" lon="5.689553804784174"><ele>112.39999999999999</ele><time>2026-04-29T11:46:11.001Z</time></trkpt><trkpt lat="50.7123238188853" lon="5.689495025238116"><ele>112.60000000000001</ele><time>2026-04-29T11:46:12.001Z</time></trkpt><trkpt lat="50.71242980683112" lon="5.689434539880565"><ele>112.80000000000001</ele><time>2026-04-29T11:46:13.001Z</time></trkpt><trkpt lat="50.71253144384251" lon="5.689376174735796"><ele>113.0</ele><time>2026-04-29T11:46:14.001Z</time></trkpt><trkpt lat="50.71262935473963" lon="5.689323394287079"><ele>111.83333333333333</ele><time>2026-04-29T11:46:15.001Z</time></trkpt><trkpt lat="50.71270981836691" lon="5.689281663299235"><ele>110.66666666666666</ele><time>2026-04-29T11:46:16.001Z</time></trkpt><trkpt lat="50.712794440893376" lon="5.689241580100511"><ele>109.5</ele><time>2026-04-29T11:46:17.001Z</time></trkpt><trkpt lat="50.71287341698235" lon="5.689222325007489"><ele>108.33333333333334</ele><time>2026-04-29T11:46:18.001Z</time></trkpt><trkpt lat="50.71294791024402" lon="5.689225502925379"><ele>107.16666666666667</ele><time>2026-04-29T11:46:19.001Z</time></trkpt><trkpt lat="50.71301096868049" lon="5.68928688996773"><ele>106.0</ele><time>2026-04-29T11:46:20.001Z</time></trkpt><trkpt lat="50.71307540504561" lon="5.689353701686425"><ele>106.4</ele><time>2026-04-29T11:46:21.001Z</time></trkpt><trkpt lat="50.71314422182392" lon="5.68944437534963"><ele>106.8</ele><time>2026-04-29T11:46:22.001Z</time></trkpt><trkpt lat="50.71323247063442" lon="5.689539306494941"><ele>107.20000000000002</ele><time>2026-04-29T11:46:23.001Z</time></trkpt><trkpt lat="50.71329953336656" lon="5.68965353402283"><ele>107.60000000000001</ele><time>2026-04-29T11:46:24.001Z</time></trkpt><trkpt lat="50.71337527604761" lon="5.689760378160946"><ele>108.0</ele><time>2026-04-29T11:46:25.001Z</time></trkpt><trkpt lat="50.7134597770575" lon="5.689858054878509"><ele>108.0</ele><time>2026-04-29T11:46:26.001Z</time></trkpt><trkpt lat="50.71355371063938" lon="5.689954609415033"><ele>108.00000000000001</ele><time>2026-04-29T11:46:27.001Z</time></trkpt><trkpt lat="50.71365337300303" lon="5.690011850624038"><ele>108.00000000000001</ele><time>2026-04-29T11:46:28.001Z</time></trkpt><trkpt lat="50.7137616470765" lon="5.690018691153525"><ele>108.0</ele><time>2026-04-29T11:46:29.001Z</time></trkpt><trkpt lat="50.71385277904945" lon="5.689989075002713"><ele>108.0</ele><time>2026-04-29T11:46:30.001Z</time></trkpt><trkpt lat="50.713929065951625" lon="5.6899450479974725"><ele>106.60000000000001</ele><time>2026-04-29T11:46:31.001Z</time></trkpt><trkpt lat="50.71401013561973" lon="5.689918145548425"><ele>105.20000000000002</ele><time>2026-04-29T11:46:32.001Z</time></trkpt><trkpt lat="50.714081655210826" lon="5.689889196523961"><ele>103.8</ele><time>2026-04-29T11:46:33.001Z</time></trkpt><trkpt lat="50.71414158120177" lon="5.689741817147049"><ele>102.4</ele><time>2026-04-29T11:46:35.001Z</time></trkpt><trkpt lat="50.71401515092501" lon="5.689630259606578"><ele>101.0</ele><time>2026-04-29T11:46:50.001Z</time></trkpt><trkpt lat="50.71389639146789" lon="5.68970406134695"><ele>100.99999999999999</ele><time>2026-04-29T11:46:52.001Z</time></trkpt><trkpt lat="50.71382706108603" lon="5.689725945422957"><ele>101.0</ele><time>2026-04-29T11:46:53.001Z</time></trkpt><trkpt lat="50.71376353826705" lon="5.689746666414819"><ele>101.0</ele><time>2026-04-29T11:46:54.001Z</time></trkpt><trkpt lat="50.713675180143184" lon="5.689721446676485"><ele>101.0</ele><time>2026-04-29T11:46:56.001Z</time></trkpt><trkpt lat="50.71361512253925" lon="5.6896374118094375"><ele>100.99999999999999</ele><time>2026-04-29T11:46:57.001Z</time></trkpt><trkpt lat="50.71353769513383" lon="5.689544352879522"><ele>101.0</ele><time>2026-04-29T11:46:58.001Z</time></trkpt><trkpt lat="50.713455962971096" lon="5.689406479913398"><ele>99.8</ele><time>2026-04-29T11:46:59.001Z</time></trkpt><trkpt lat="50.71340213656977" lon="5.689281776186069"><ele>98.6</ele><time>2026-04-29T11:47:00.001Z</time></trkpt><trkpt lat="50.71334030023127" lon="5.689169765056205"><ele>97.4</ele><time>2026-04-29T11:47:01.001Z</time></trkpt><trkpt lat="50.71326809429929" lon="5.6890569464848255"><ele>96.2</ele><time>2026-04-29T11:47:02.001Z</time></trkpt><trkpt lat="50.71319333606726" lon="5.688938638213299"><ele>95.0</ele><time>2026-04-29T11:47:03.001Z</time></trkpt><trkpt lat="50.71311510802684" lon="5.6888325387783665"><ele>95.0</ele><time>2026-04-29T11:47:04.001Z</time></trkpt><trkpt lat="50.713025698932846" lon="5.688737326975063"><ele>95.0</ele><time>2026-04-29T11:47:05.001Z</time></trkpt><trkpt lat="50.712931973224066" lon="5.688655721309737"><ele>95.0</ele><time>2026-04-29T11:47:06.001Z</time></trkpt><trkpt lat="50.712837612525256" lon="5.688584037217796"><ele>95.0</ele><time>2026-04-29T11:47:07.001Z</time></trkpt><trkpt lat="50.71275254276591" lon="5.688532168169334"><ele>95.0</ele><time>2026-04-29T11:47:08.001Z</time></trkpt><trkpt lat="50.71267072202035" lon="5.688486977971053"><ele>95.16666666666667</ele><time>2026-04-29T11:47:09.001Z</time></trkpt><trkpt lat="50.71260581846777" lon="5.688442024273506"><ele>95.33333333333334</ele><time>2026-04-29T11:47:10.001Z</time></trkpt><trkpt lat="50.712513607507276" lon="5.688336639799472"><ele>95.5</ele><time>2026-04-29T11:47:12.001Z</time></trkpt><trkpt lat="50.71250878332031" lon="5.688182951753965"><ele>95.66666666666667</ele><time>2026-04-29T11:47:14.001Z</time></trkpt><trkpt lat="50.71255952825883" lon="5.688119824575811"><ele>95.83333333333333</ele><time>2026-04-29T11:47:15.001Z</time></trkpt><trkpt lat="50.71261749193066" lon="5.68820468594644"><ele>96.0</ele><time>2026-04-29T11:47:16.001Z</time></trkpt><trkpt lat="50.712693340463716" lon="5.688246500514516"><ele>92.2</ele><time>2026-04-29T11:47:17.001Z</time></trkpt><trkpt lat="50.71277662013344" lon="5.68827208528041"><ele>88.39999999999999</ele><time>2026-04-29T11:47:18.001Z</time></trkpt><trkpt lat="50.71286110442044" lon="5.688318189751081"><ele>84.6</ele><time>2026-04-29T11:47:19.001Z</time></trkpt><trkpt lat="50.7129431119654" lon="5.688398136173876"><ele>80.8</ele><time>2026-04-29T11:47:20.001Z</time></trkpt><trkpt lat="50.713029333945244" lon="5.688438357392918"><ele>77.0</ele><time>2026-04-29T11:47:21.001Z</time></trkpt><trkpt lat="50.713095914938506" lon="5.688539113564769"><ele>80.6</ele><time>2026-04-29T11:47:22.001Z</time></trkpt><trkpt lat="50.713181463976056" lon="5.688638800851547"><ele>84.2</ele><time>2026-04-29T11:47:23.001Z</time></trkpt><trkpt lat="50.71328254256989" lon="5.688741502380924"><ele>87.8</ele><time>2026-04-29T11:47:24.001Z</time></trkpt><trkpt lat="50.71336426333507" lon="5.688839789298918"><ele>91.4</ele><time>2026-04-29T11:47:25.001Z</time></trkpt><trkpt lat="50.713449466359236" lon="5.688932800677032"><ele>95.0</ele><time>2026-04-29T11:47:26.002Z</time></trkpt><trkpt lat="50.713532693779406" lon="5.689030075372151"><ele>92.2</ele><time>2026-04-29T11:47:27.002Z</time></trkpt><trkpt lat="50.713633422869734" lon="5.689070753202717"><ele>89.4</ele><time>2026-04-29T11:47:28.002Z</time></trkpt><trkpt lat="50.71373618056278" lon="5.689103909018658"><ele>86.6</ele><time>2026-04-29T11:47:29.002Z</time></trkpt><trkpt lat="50.713820015650995" lon="5.689114914442927"><ele>83.8</ele><time>2026-04-29T11:47:30.002Z</time></trkpt><trkpt lat="50.71390071017936" lon="5.689142966869339"><ele>81.0</ele><time>2026-04-29T11:47:31.002Z</time></trkpt><trkpt lat="50.71402345654709" lon="5.689148306863932"><ele>81.0</ele><time>2026-04-29T11:47:33.002Z</time></trkpt><trkpt lat="50.714068775633024" lon="5.689025104115255"><ele>81.0</ele><time>2026-04-29T11:47:35.002Z</time></trkpt><trkpt lat="50.71398593258293" lon="5.688891562432534"><ele>81.0</ele><time>2026-04-29T11:47:37.002Z</time></trkpt><trkpt lat="50.7139103420458" lon="5.688884093022859"><ele>81.0</ele><time>2026-04-29T11:47:38.001Z</time></trkpt><trkpt lat="50.71383578942284" lon="5.688874696417337"><ele>81.0</ele><time>2026-04-29T11:47:39.001Z</time></trkpt><trkpt lat="50.713753844264424" lon="5.688848247752717"><ele>81.0</ele><time>2026-04-29T11:47:40.001Z</time></trkpt><trkpt lat="50.713674041787215" lon="5.688808271843989"><ele>81.0</ele><time>2026-04-29T11:47:41.001Z</time></trkpt><trkpt lat="50.71359928450356" lon="5.688743053580302"><ele>81.0</ele><time>2026-04-29T11:47:42.001Z</time></trkpt><trkpt lat="50.71353617985402" lon="5.688626194094563"><ele>81.0</ele><time>2026-04-29T11:47:43.001Z</time></trkpt><trkpt lat="50.71346620501849" lon="5.688509028544102"><ele>81.0</ele><time>2026-04-29T11:47:44.001Z</time></trkpt><trkpt lat="50.713396699258965" lon="5.688387261720523"><ele>81.0</ele><time>2026-04-29T11:47:45.001Z</time></trkpt><trkpt lat="50.71333258146201" lon="5.688275202358887"><ele>80.2</ele><time>2026-04-29T11:47:46.001Z</time></trkpt><trkpt lat="50.71326257304023" lon="5.6881677197110525"><ele>79.39999999999999</ele><time>2026-04-29T11:47:47.001Z</time></trkpt><trkpt lat="50.71318550438351" lon="5.688049276319848"><ele>78.6</ele><time>2026-04-29T11:47:48.001Z</time></trkpt><trkpt lat="50.713108990595344" lon="5.687923134376174"><ele>77.8</ele><time>2026-04-29T11:47:49.001Z</time></trkpt><trkpt lat="50.71303281393262" lon="5.68779419412183"><ele>77.0</ele><time>2026-04-29T11:47:50.001Z</time></trkpt><trkpt lat="50.71296005933908" lon="5.687663350110116"><ele>77.75</ele><time>2026-04-29T11:47:51.001Z</time></trkpt><trkpt lat="50.712877790400206" lon="5.6875195870381985"><ele>78.5</ele><time>2026-04-29T11:47:52.001Z</time></trkpt><trkpt lat="50.712799867181474" lon="5.687382074445078"><ele>79.25</ele><time>2026-04-29T11:47:53.001Z</time></trkpt><trkpt lat="50.712727977688346" lon="5.687243015761387"><ele>80.0</ele><time>2026-04-29T11:47:54.001Z</time></trkpt><trkpt lat="50.71266575963734" lon="5.687100315042189"><ele>80.0</ele><time>2026-04-29T11:47:55.001Z</time></trkpt><trkpt lat="50.71258748212489" lon="5.686993564574781"><ele>80.0</ele><time>2026-04-29T11:47:56.001Z</time></trkpt><trkpt lat="50.71253638607504" lon="5.686870067810816"><ele>80.0</ele><time>2026-04-29T11:47:57.001Z</time></trkpt><trkpt lat="50.71247628700757" lon="5.686757135031364"><ele>80.0</ele><time>2026-04-29T11:47:58.001Z</time></trkpt><trkpt lat="50.712414381595536" lon="5.686654671410097"><ele>80.0</ele><time>2026-04-29T11:47:59.001Z</time></trkpt><trkpt lat="50.71235750833857" lon="5.686550698758881"><ele>77.33333333333334</ele><time>2026-04-29T11:48:00.001Z</time></trkpt><trkpt lat="50.71230275773808" lon="5.686452770566863"><ele>74.66666666666667</ele><time>2026-04-29T11:48:01.001Z</time></trkpt><trkpt lat="50.71224892881428" lon="5.6863695918103465"><ele>72.0</ele><time>2026-04-29T11:48:02.001Z</time></trkpt><trkpt lat="50.71220319139136" lon="5.686295815579119"><ele>69.33333333333333</ele><time>2026-04-29T11:48:03.001Z</time></trkpt><trkpt lat="50.712135520525976" lon="5.6861704476716"><ele>66.66666666666666</ele><time>2026-04-29T11:48:05.001Z</time></trkpt><trkpt lat="50.71211010992768" lon="5.686075428379925"><ele>64.0</ele><time>2026-04-29T11:48:07.001Z</time></trkpt><trkpt lat="50.712131147186426" lon="5.685975897382927"><ele>63.49999999999999</ele><time>2026-04-29T11:48:18.001Z</time></trkpt><trkpt lat="50.712000138117865" lon="5.685933844301142"><ele>63.0</ele><time>2026-04-29T11:48:19.001Z</time></trkpt><trkpt lat="50.71192735123171" lon="5.685931970411579"><ele>62.5</ele><time>2026-04-29T11:48:20.001Z</time></trkpt><trkpt lat="50.71185580316329" lon="5.685915110978543"><ele>62.0</ele><time>2026-04-29T11:48:21.001Z</time></trkpt><trkpt lat="50.7117900598164" lon="5.685901932803904"><ele>61.49999999999999</ele><time>2026-04-29T11:48:22.001Z</time></trkpt><trkpt lat="50.711703607726854" lon="5.685885455989834"><ele>61.0</ele><time>2026-04-29T11:48:23.001Z</time></trkpt><trkpt lat="50.711616579605085" lon="5.685872560046727"><ele>61.0</ele><time>2026-04-29T11:48:24.001Z</time></trkpt><trkpt lat="50.71152349793619" lon="5.685856555467874"><ele>60.99999999999999</ele><time>2026-04-29T11:48:25.001Z</time></trkpt><trkpt lat="50.711425907746325" lon="5.685838862036663"><ele>60.99999999999999</ele><time>2026-04-29T11:48:26.001Z</time></trkpt><trkpt lat="50.71132587399947" lon="5.685823751152612"><ele>61.0</ele><time>2026-04-29T11:48:27.001Z</time></trkpt><trkpt lat="50.711231379734095" lon="5.685816313904342"><ele>61.0</ele><time>2026-04-29T11:48:28.001Z</time></trkpt><trkpt lat="50.711142723284524" lon="5.685813424458226"><ele>61.4</ele><time>2026-04-29T11:48:29.001Z</time></trkpt><trkpt lat="50.711044221449086" lon="5.685815869414432"><ele>61.8</ele><time>2026-04-29T11:48:30.001Z</time></trkpt><trkpt lat="50.71094618471574" lon="5.6858229870317825"><ele>62.199999999999996</ele><time>2026-04-29T11:48:31.001Z</time></trkpt><trkpt lat="50.710844970412815" lon="5.685829270541663"><ele>62.599999999999994</ele><time>2026-04-29T11:48:32.001Z</time></trkpt><trkpt lat="50.71074145271785" lon="5.685837341765183"><ele>63.0</ele><time>2026-04-29T11:48:33.001Z</time></trkpt><trkpt lat="50.71064370187898" lon="5.685842767415296"><ele>63.0</ele><time>2026-04-29T11:48:34.001Z</time></trkpt><trkpt lat="50.71055761283216" lon="5.685848285102991"><ele>63.0</ele><time>2026-04-29T11:48:35.001Z</time></trkpt><trkpt lat="50.710479020646176" lon="5.685851346305247"><ele>63.0</ele><time>2026-04-29T11:48:36.001Z</time></trkpt><trkpt lat="50.7103970877683" lon="5.685852242403478"><ele>63.0</ele><time>2026-04-29T11:48:37.001Z</time></trkpt><trkpt lat="50.71032730254774" lon="5.685851888446516"><ele>63.0</ele><time>2026-04-29T11:48:38.001Z</time></trkpt><trkpt lat="50.710218628577515" lon="5.685799021852422"><ele>63.0</ele><time>2026-04-29T11:48:40.001Z</time></trkpt><trkpt lat="50.71014373406402" lon="5.68568743122607"><ele>62.833333333333336</ele><time>2026-04-29T11:48:42.001Z</time></trkpt><trkpt lat="50.71008997448389" lon="5.685633827722459"><ele>62.66666666666667</ele><time>2026-04-29T11:48:43.001Z</time></trkpt><trkpt lat="50.71009300165346" lon="5.68548476571278"><ele>62.5</ele><time>2026-04-29T11:48:44.001Z</time></trkpt><trkpt lat="50.71007835252731" lon="5.685362013445281"><ele>62.333333333333336</ele><time>2026-04-29T11:48:45.001Z</time></trkpt><trkpt lat="50.71006702256533" lon="5.685236956234749"><ele>62.16666666666667</ele><time>2026-04-29T11:48:46.001Z</time></trkpt><trkpt lat="50.71006590272201" lon="5.685124860315057"><ele>62.0</ele><time>2026-04-29T11:48:47.001Z</time></trkpt><trkpt lat="50.710064562892875" lon="5.6849594762715245"><ele>61.333333333333336</ele><time>2026-04-29T11:48:49.001Z</time></trkpt><trkpt lat="50.71007030513346" lon="5.684852525522183"><ele>60.66666666666667</ele><time>2026-04-29T11:48:51.001Z</time></trkpt><trkpt lat="50.71009295947523" lon="5.684743166778079"><ele>60.0</ele><time>2026-04-29T11:49:06.001Z</time></trkpt><trkpt lat="50.71013881161766" lon="5.6846193545732016"><ele>59.33333333333333</ele><time>2026-04-29T11:49:08.001Z</time></trkpt><trkpt lat="50.7101770795101" lon="5.6844559322664185"><ele>58.666666666666664</ele><time>2026-04-29T11:49:10.001Z</time></trkpt><trkpt lat="50.710190905635095" lon="5.684297311719979"><ele>58.0</ele><time>2026-04-29T11:49:12.001Z</time></trkpt><trkpt lat="50.71014259082445" lon="5.68419777202528"><ele>57.599999999999994</ele><time>2026-04-29T11:49:14.001Z</time></trkpt><trkpt lat="50.710043474193306" lon="5.684180821492426"><ele>57.199999999999996</ele><time>2026-04-29T11:49:16.001Z</time></trkpt><trkpt lat="50.709905633581464" lon="5.6841573015342455"><ele>56.8</ele><time>2026-04-29T11:49:18.001Z</time></trkpt><trkpt lat="50.709810483592946" lon="5.684132105735562"><ele>56.4</ele><time>2026-04-29T11:49:19.001Z</time></trkpt><trkpt lat="50.709709900139465" lon="5.684104031335773"><ele>56.0</ele><time>2026-04-29T11:49:20.001Z</time></trkpt><trkpt lat="50.70958294239923" lon="5.684072018326855"><ele>56.0</ele><time>2026-04-29T11:49:21.001Z</time></trkpt><trkpt lat="50.70943561444114" lon="5.684031183671008"><ele>56.0</ele><time>2026-04-29T11:49:22.001Z</time></trkpt><trkpt lat="50.70928124521973" lon="5.683939944040772"><ele>56.0</ele><time>2026-04-29T11:49:23.001Z</time></trkpt><trkpt lat="50.7091038001314" lon="5.683905212481817"><ele>56.0</ele><time>2026-04-29T11:49:24.001Z</time></trkpt><trkpt lat="50.708929709771056" lon="5.683847338662092"><ele>56.0</ele><time>2026-04-29T11:49:25.001Z</time></trkpt><trkpt lat="50.70876003565061" lon="5.683797243392907"><ele>56.0</ele><time>2026-04-29T11:49:26.001Z</time></trkpt><trkpt lat="50.70859558300693" lon="5.683753141765804"><ele>56.0</ele><time>2026-04-29T11:49:27.001Z</time></trkpt><trkpt lat="50.7084177736933" lon="5.683707361377345"><ele>56.0</ele><time>2026-04-29T11:49:28.001Z</time></trkpt><trkpt lat="50.70823530295827" lon="5.683659319111837"><ele>56.0</ele><time>2026-04-29T11:49:29.001Z</time></trkpt><trkpt lat="50.70804811120341" lon="5.683609581250742"><ele>56.0</ele><time>2026-04-29T11:49:30.001Z</time></trkpt><trkpt lat="50.70785224658614" lon="5.683563687658961"><ele>56.0</ele><time>2026-04-29T11:49:31.001Z</time></trkpt><trkpt lat="50.707644799085" lon="5.683517279608837"><ele>56.0</ele><time>2026-04-29T11:49:32.001Z</time></trkpt><trkpt lat="50.70742873168901" lon="5.68347086811505"><ele>56.0</ele><time>2026-04-29T11:49:33.001Z</time></trkpt><trkpt lat="50.70720817722301" lon="5.683421831940076"><ele>56.0</ele><time>2026-04-29T11:49:34.001Z</time></trkpt><trkpt lat="50.70699500131092" lon="5.683371014007614"><ele>56.0</ele><time>2026-04-29T11:49:35.001Z</time></trkpt><trkpt lat="50.70677241923004" lon="5.6833152697267995"><ele>56.5</ele><time>2026-04-29T11:49:36.001Z</time></trkpt><trkpt lat="50.70654756325842" lon="5.683251938914294"><ele>57.0</ele><time>2026-04-29T11:49:37.001Z</time></trkpt><trkpt lat="50.70631993619365" lon="5.683166935665771"><ele>57.0</ele><time>2026-04-29T11:49:38.001Z</time></trkpt><trkpt lat="50.70609407664832" lon="5.683071348858393"><ele>57.0</ele><time>2026-04-29T11:49:39.001Z</time></trkpt><trkpt lat="50.70587098887109" lon="5.682968703440712"><ele>57.5</ele><time>2026-04-29T11:49:40.001Z</time></trkpt><trkpt lat="50.70564996298417" lon="5.682860303310438"><ele>58.0</ele><time>2026-04-29T11:49:41.002Z</time></trkpt><trkpt lat="50.70543486497413" lon="5.682744129321181"><ele>58.5</ele><time>2026-04-29T11:49:42.002Z</time></trkpt><trkpt lat="50.7052226639281" lon="5.682616918688645"><ele>59.0</ele><time>2026-04-29T11:49:43.002Z</time></trkpt><trkpt lat="50.705009236845974" lon="5.682468925893175"><ele>59.0</ele><time>2026-04-29T11:49:44.001Z</time></trkpt><trkpt lat="50.704789527492174" lon="5.682295160583386"><ele>59.0</ele><time>2026-04-29T11:49:45.001Z</time></trkpt><trkpt lat="50.70456568019196" lon="5.6821060903462834"><ele>59.0</ele><time>2026-04-29T11:49:46.001Z</time></trkpt><trkpt lat="50.70433652512903" lon="5.6819059041210025"><ele>59.0</ele><time>2026-04-29T11:49:47.001Z</time></trkpt><trkpt lat="50.704102118343634" lon="5.681695944193024"><ele>59.0</ele><time>2026-04-29T11:49:48.001Z</time></trkpt><trkpt lat="50.703863089183926" lon="5.681480741976725"><ele>59.0</ele><time>2026-04-29T11:49:49.001Z</time></trkpt><trkpt lat="50.70362819752709" lon="5.681271109083125"><ele>57.5</ele><time>2026-04-29T11:49:50.001Z</time></trkpt><trkpt lat="50.703389945250535" lon="5.681057953990529"><ele>56.0</ele><time>2026-04-29T11:49:51Z</time></trkpt><trkpt lat="50.70314223334003" lon="5.6808360664931286"><ele>56.0</ele><time>2026-04-29T11:49:52.001Z</time></trkpt><trkpt lat="50.702888533723964" lon="5.680613668127091"><ele>56.0</ele><time>2026-04-29T11:49:53Z</time></trkpt><trkpt lat="50.70263107618278" lon="5.680400373512728"><ele>56.0</ele><time>2026-04-29T11:49:54Z</time></trkpt><trkpt lat="50.70237002617977" lon="5.6802000736931335"><ele>56.0</ele><time>2026-04-29T11:49:55Z</time></trkpt><trkpt lat="50.70211132194867" lon="5.680002796145753"><ele>57.0</ele><time>2026-04-29T11:49:56Z</time></trkpt><trkpt lat="50.701854974344" lon="5.679809140671594"><ele>58.0</ele><time>2026-04-29T11:49:57Z</time></trkpt><trkpt lat="50.70159823740078" lon="5.679621699553397"><ele>58.0</ele><time>2026-04-29T11:49:58Z</time></trkpt><trkpt lat="50.70134166624894" lon="5.679438209084277"><ele>58.0</ele><time>2026-04-29T11:49:59Z</time></trkpt><trkpt lat="50.701085466668204" lon="5.679257067295519"><ele>58.0</ele><time>2026-04-29T11:50:00Z</time></trkpt><trkpt lat="50.70083190620963" lon="5.679075712857359"><ele>58.0</ele><time>2026-04-29T11:50:01Z</time></trkpt><trkpt lat="50.70058127444024" lon="5.6788932046450835"><ele>58.0</ele><time>2026-04-29T11:50:02Z</time></trkpt><trkpt lat="50.700331130880144" lon="5.678711744359865"><ele>58.0</ele><time>2026-04-29T11:50:03.001Z</time></trkpt><trkpt lat="50.70007889869406" lon="5.678530466899809"><ele>57.5</ele><time>2026-04-29T11:50:04.001Z</time></trkpt><trkpt lat="50.69982741455675" lon="5.678349686847854"><ele>57.0</ele><time>2026-04-29T11:50:05.001Z</time></trkpt><trkpt lat="50.69957746617663" lon="5.678169705014921"><ele>58.5</ele><time>2026-04-29T11:50:06.001Z</time></trkpt><trkpt lat="50.69932873088623" lon="5.677989998909055"><ele>60.0</ele><time>2026-04-29T11:50:07.001Z</time></trkpt><trkpt lat="50.69908052272934" lon="5.677809729184857"><ele>58.5</ele><time>2026-04-29T11:50:08.001Z</time></trkpt><trkpt lat="50.69883304389849" lon="5.677630341551032"><ele>57.0</ele><time>2026-04-29T11:50:09.001Z</time></trkpt><trkpt lat="50.69858510993955" lon="5.677452970631751"><ele>57.5</ele><time>2026-04-29T11:50:10.001Z</time></trkpt><trkpt lat="50.69833553375564" lon="5.677284940717007"><ele>58.0</ele><time>2026-04-29T11:50:11.001Z</time></trkpt><trkpt lat="50.69808483558227" lon="5.6771302181025"><ele>58.0</ele><time>2026-04-29T11:50:12.001Z</time></trkpt><trkpt lat="50.69783106168419" lon="5.676993842352426"><ele>58.0</ele><time>2026-04-29T11:50:13.001Z</time></trkpt><trkpt lat="50.697575322350815" lon="5.676874079988969"><ele>58.0</ele><time>2026-04-29T11:50:14.001Z</time></trkpt><trkpt lat="50.69731827531866" lon="5.676764726164241"><ele>58.0</ele><time>2026-04-29T11:50:15.001Z</time></trkpt><trkpt lat="50.69706057493821" lon="5.676663719981315"><ele>60.0</ele><time>2026-04-29T11:50:16.001Z</time></trkpt><trkpt lat="50.696804408958045" lon="5.67656273912328"><ele>62.0</ele><time>2026-04-29T11:50:17.001Z</time></trkpt><trkpt lat="50.6965483315325" lon="5.676463226212008"><ele>62.0</ele><time>2026-04-29T11:50:18.001Z</time></trkpt><trkpt lat="50.69628824167118" lon="5.6763641899552715"><ele>62.0</ele><time>2026-04-29T11:50:19.001Z</time></trkpt><trkpt lat="50.69602869697333" lon="5.6762688934741465"><ele>60.0</ele><time>2026-04-29T11:50:20.001Z</time></trkpt><trkpt lat="50.69576630014757" lon="5.676175338269081"><ele>58.0</ele><time>2026-04-29T11:50:21.001Z</time></trkpt><trkpt lat="50.69550186664493" lon="5.676082976688618"><ele>58.0</ele><time>2026-04-29T11:50:22.001Z</time></trkpt><trkpt lat="50.69523503506611" lon="5.675988524063948"><ele>58.0</ele><time>2026-04-29T11:50:23.001Z</time></trkpt><trkpt lat="50.694964182500705" lon="5.675883001388438"><ele>58.0</ele><time>2026-04-29T11:50:24.001Z</time></trkpt><trkpt lat="50.69469007638312" lon="5.675768718870226"><ele>58.0</ele><time>2026-04-29T11:50:25.001Z</time></trkpt><trkpt lat="50.69441427494165" lon="5.675657979106125"><ele>60.5</ele><time>2026-04-29T11:50:26.001Z</time></trkpt><trkpt lat="50.694137190536594" lon="5.675548464147838"><ele>63.0</ele><time>2026-04-29T11:50:27.001Z</time></trkpt><trkpt lat="50.69385752227365" lon="5.675438937131018"><ele>64.0</ele><time>2026-04-29T11:50:28.001Z</time></trkpt><trkpt lat="50.693577037113265" lon="5.675331384784378"><ele>65.0</ele><time>2026-04-29T11:50:29.001Z</time></trkpt><trkpt lat="50.69329582938021" lon="5.67522235747193"><ele>61.5</ele><time>2026-04-29T11:50:30.001Z</time></trkpt><trkpt lat="50.69301589155271" lon="5.6751112960103764"><ele>58.0</ele><time>2026-04-29T11:50:31.001Z</time></trkpt><trkpt lat="50.69273865438528" lon="5.674998615188707"><ele>58.0</ele><time>2026-04-29T11:50:32.001Z</time></trkpt><trkpt lat="50.692463708056714" lon="5.674886499948366"><ele>58.0</ele><time>2026-04-29T11:50:33.001Z</time></trkpt><trkpt lat="50.69219003176357" lon="5.674773626734172"><ele>59.0</ele><time>2026-04-29T11:50:34.001Z</time></trkpt><trkpt lat="50.69192092538864" lon="5.674658729468498"><ele>60.0</ele><time>2026-04-29T11:50:35.001Z</time></trkpt><trkpt lat="50.6916578520142" lon="5.674544597157312"><ele>58.5</ele><time>2026-04-29T11:50:36.001Z</time></trkpt><trkpt lat="50.69140350814596" lon="5.674424334117206"><ele>57.0</ele><time>2026-04-29T11:50:37.001Z</time></trkpt><trkpt lat="50.69115418227744" lon="5.674298071777192"><ele>57.5</ele><time>2026-04-29T11:50:38.001Z</time></trkpt><trkpt lat="50.690906691123516" lon="5.67416952793151"><ele>58.0</ele><time>2026-04-29T11:50:39.001Z</time></trkpt><trkpt lat="50.69066365486163" lon="5.67403398558033"><ele>58.0</ele><time>2026-04-29T11:50:40.001Z</time></trkpt><trkpt lat="50.690422444887204" lon="5.673890922004279"><ele>58.0</ele><time>2026-04-29T11:50:41.001Z</time></trkpt><trkpt lat="50.69018222593206" lon="5.673745831312519"><ele>58.5</ele><time>2026-04-29T11:50:42.001Z</time></trkpt><trkpt lat="50.689940507738335" lon="5.67359630757799"><ele>59.0</ele><time>2026-04-29T11:50:43.001Z</time></trkpt><trkpt lat="50.689699293439055" lon="5.673439284822826"><ele>59.0</ele><time>2026-04-29T11:50:44.001Z</time></trkpt><trkpt lat="50.689459164229206" lon="5.6732696318851135"><ele>59.0</ele><time>2026-04-29T11:50:45.001Z</time></trkpt><trkpt lat="50.68921954838424" lon="5.673098652525619"><ele>58.5</ele><time>2026-04-29T11:50:46.001Z</time></trkpt><trkpt lat="50.688982287017545" lon="5.672922104389858"><ele>58.0</ele><time>2026-04-29T11:50:47.001Z</time></trkpt><trkpt lat="50.68875269231778" lon="5.67273161295744"><ele>58.0</ele><time>2026-04-29T11:50:48.001Z</time></trkpt><trkpt lat="50.68853239319931" lon="5.672520718273746"><ele>58.0</ele><time>2026-04-29T11:50:49.001Z</time></trkpt><trkpt lat="50.68832240304791" lon="5.672289104303666"><ele>58.0</ele><time>2026-04-29T11:50:50.001Z</time></trkpt><trkpt lat="50.68811817309279" lon="5.6720445223377025"><ele>58.0</ele><time>2026-04-29T11:50:51.001Z</time></trkpt><trkpt lat="50.68792190270737" lon="5.671786795261188"><ele>58.0</ele><time>2026-04-29T11:50:52.001Z</time></trkpt><trkpt lat="50.68773046795361" lon="5.671511108039979"><ele>58.0</ele><time>2026-04-29T11:50:53.001Z</time></trkpt><trkpt lat="50.68754675319706" lon="5.671223033378577"><ele>58.0</ele><time>2026-04-29T11:50:54.001Z</time></trkpt><trkpt lat="50.68736683580028" lon="5.670927563985275"><ele>58.0</ele><time>2026-04-29T11:50:55.001Z</time></trkpt><trkpt lat="50.687192784004836" lon="5.670624253772508"><ele>58.0</ele><time>2026-04-29T11:50:56.001Z</time></trkpt><trkpt lat="50.68702276651011" lon="5.67030833325875"><ele>58.0</ele><time>2026-04-29T11:50:57.001Z</time></trkpt><trkpt lat="50.686855615430424" lon="5.669974463748745"><ele>58.0</ele><time>2026-04-29T11:50:58.001Z</time></trkpt><trkpt lat="50.6866893991156" lon="5.66963538352354"><ele>58.0</ele><time>2026-04-29T11:50:59.001Z</time></trkpt><trkpt lat="50.68652225090845" lon="5.669293909266106"><ele>58.0</ele><time>2026-04-29T11:51:00.001Z</time></trkpt><trkpt lat="50.686352258643176" lon="5.668958057584834"><ele>58.0</ele><time>2026-04-29T11:51:01.001Z</time></trkpt><trkpt lat="50.6861841100595" lon="5.668621780748702"><ele>58.0</ele><time>2026-04-29T11:51:02.001Z</time></trkpt><trkpt lat="50.68601546266813" lon="5.668282292108272"><ele>58.0</ele><time>2026-04-29T11:51:03.001Z</time></trkpt><trkpt lat="50.68585407477559" lon="5.667935772631871"><ele>57.5</ele><time>2026-04-29T11:51:04.001Z</time></trkpt><trkpt lat="50.6857052898488" lon="5.667577661122027"><ele>57.0</ele><time>2026-04-29T11:51:05.001Z</time></trkpt><trkpt lat="50.68556663804562" lon="5.667212332540613"><ele>57.5</ele><time>2026-04-29T11:51:06.001Z</time></trkpt><trkpt lat="50.68542822226178" lon="5.666841510189131"><ele>58.0</ele><time>2026-04-29T11:51:07.001Z</time></trkpt><trkpt lat="50.685289601903825" lon="5.6664679143155015"><ele>59.0</ele><time>2026-04-29T11:51:08.001Z</time></trkpt><trkpt lat="50.6851506342653" lon="5.666095682271894"><ele>60.0</ele><time>2026-04-29T11:51:09.001Z</time></trkpt><trkpt lat="50.68501350261691" lon="5.66572004173254"><ele>60.0</ele><time>2026-04-29T11:51:10.001Z</time></trkpt><trkpt lat="50.684874997795106" lon="5.665343379415865"><ele>60.0</ele><time>2026-04-29T11:51:11.001Z</time></trkpt><trkpt lat="50.684733046739225" lon="5.66497212183167"><ele>60.0</ele><time>2026-04-29T11:51:12.001Z</time></trkpt><trkpt lat="50.6845929926311" lon="5.664604920609641"><ele>60.0</ele><time>2026-04-29T11:51:13.001Z</time></trkpt><trkpt lat="50.68445667336722" lon="5.664244995222827"><ele>61.0</ele><time>2026-04-29T11:51:14.001Z</time></trkpt><trkpt lat="50.684321258494606" lon="5.663894584171603"><ele>62.0</ele><time>2026-04-29T11:51:15.001Z</time></trkpt><trkpt lat="50.68418082761966" lon="5.663557353225648"><ele>62.0</ele><time>2026-04-29T11:51:16.001Z</time></trkpt><trkpt lat="50.68403116553078" lon="5.663231903420305"><ele>62.0</ele><time>2026-04-29T11:51:17.001Z</time></trkpt><trkpt lat="50.68387015554077" lon="5.662919647365783"><ele>62.5</ele><time>2026-04-29T11:51:18.001Z</time></trkpt><trkpt lat="50.68369681727758" lon="5.662624819200032"><ele>63.0</ele><time>2026-04-29T11:51:19.001Z</time></trkpt><trkpt lat="50.68351559828595" lon="5.6623468114087006"><ele>63.0</ele><time>2026-04-29T11:51:20.001Z</time></trkpt><trkpt lat="50.683327183826684" lon="5.662079540052215"><ele>63.0</ele><time>2026-04-29T11:51:21.001Z</time></trkpt><trkpt lat="50.68313207495391" lon="5.661827665874468"><ele>62.5</ele><time>2026-04-29T11:51:22.001Z</time></trkpt><trkpt lat="50.68292950923428" lon="5.6615896968379475"><ele>62.0</ele><time>2026-04-29T11:51:23.001Z</time></trkpt><trkpt lat="50.68272093483492" lon="5.661358204812417"><ele>62.0</ele><time>2026-04-29T11:51:24.001Z</time></trkpt><trkpt lat="50.68250925655299" lon="5.661123641151464"><ele>62.0</ele><time>2026-04-29T11:51:25.001Z</time></trkpt><trkpt lat="50.682295326709614" lon="5.660884815016849"><ele>62.0</ele><time>2026-04-29T11:51:26.001Z</time></trkpt><trkpt lat="50.68207352495157" lon="5.660640651147695"><ele>62.0</ele><time>2026-04-29T11:51:27.001Z</time></trkpt><trkpt lat="50.68185015917913" lon="5.660391730365086"><ele>63.0</ele><time>2026-04-29T11:51:28.001Z</time></trkpt><trkpt lat="50.68162514022453" lon="5.660139263579678"><ele>64.0</ele><time>2026-04-29T11:51:29.001Z</time></trkpt><trkpt lat="50.6814048331989" lon="5.659890962498081"><ele>64.0</ele><time>2026-04-29T11:51:30.001Z</time></trkpt><trkpt lat="50.681184573717815" lon="5.659643940205001"><ele>64.0</ele><time>2026-04-29T11:51:31.001Z</time></trkpt><trkpt lat="50.68096582311255" lon="5.65939621182279"><ele>64.5</ele><time>2026-04-29T11:51:32.001Z</time></trkpt><trkpt lat="50.68074234686544" lon="5.659149045425089"><ele>65.0</ele><time>2026-04-29T11:51:33.001Z</time></trkpt><trkpt lat="50.680519296217966" lon="5.658901571074675"><ele>65.0</ele><time>2026-04-29T11:51:34.001Z</time></trkpt><trkpt lat="50.6802945356405" lon="5.658653630535368"><ele>65.0</ele><time>2026-04-29T11:51:35.001Z</time></trkpt><trkpt lat="50.68007109597674" lon="5.658406474474595"><ele>64.0</ele><time>2026-04-29T11:51:36.001Z</time></trkpt><trkpt lat="50.679846999150804" lon="5.658159457698529"><ele>63.0</ele><time>2026-04-29T11:51:37.001Z</time></trkpt><trkpt lat="50.67962144957932" lon="5.657922387292837"><ele>63.0</ele><time>2026-04-29T11:51:38.001Z</time></trkpt><trkpt lat="50.67940900005336" lon="5.6576893278768186"><ele>63.0</ele><time>2026-04-29T11:51:39.001Z</time></trkpt><trkpt lat="50.679199206183654" lon="5.657448029070322"><ele>63.0</ele><time>2026-04-29T11:51:40.001Z</time></trkpt><trkpt lat="50.678999511335654" lon="5.657187875071547"><ele>63.0</ele><time>2026-04-29T11:51:41.001Z</time></trkpt><trkpt lat="50.678809889429694" lon="5.656908124801146"><ele>62.5</ele><time>2026-04-29T11:51:42.001Z</time></trkpt><trkpt lat="50.67862880796174" lon="5.656617477973197"><ele>62.0</ele><time>2026-04-29T11:51:43.001Z</time></trkpt><trkpt lat="50.67845891065252" lon="5.656309711407898"><ele>62.5</ele><time>2026-04-29T11:51:44.001Z</time></trkpt><trkpt lat="50.67829854465715" lon="5.655988320836216"><ele>63.0</ele><time>2026-04-29T11:51:45.001Z</time></trkpt><trkpt lat="50.67814595666674" lon="5.655653388796211"><ele>63.0</ele><time>2026-04-29T11:51:46.001Z</time></trkpt><trkpt lat="50.67799897082126" lon="5.655308091225566"><ele>63.0</ele><time>2026-04-29T11:51:47.001Z</time></trkpt><trkpt lat="50.677852918804255" lon="5.654960474830907"><ele>63.0</ele><time>2026-04-29T11:51:48.001Z</time></trkpt><trkpt lat="50.67770512350758" lon="5.654612059351941"><ele>63.0</ele><time>2026-04-29T11:51:49.001Z</time></trkpt><trkpt lat="50.677555582883215" lon="5.654262378436797"><ele>63.0</ele><time>2026-04-29T11:51:50Z</time></trkpt><trkpt lat="50.67740569271835" lon="5.653910879017393"><ele>63.0</ele><time>2026-04-29T11:51:51Z</time></trkpt><trkpt lat="50.67725312003122" lon="5.653558614724907"><ele>62.0</ele><time>2026-04-29T11:51:52Z</time></trkpt><trkpt lat="50.67710151201605" lon="5.653204735405547"><ele>61.0</ele><time>2026-04-29T11:51:53Z</time></trkpt><trkpt lat="50.67694961048091" lon="5.6528524921454695"><ele>63.0</ele><time>2026-04-29T11:51:54Z</time></trkpt><trkpt lat="50.676802569067384" lon="5.652501105673967"><ele>65.0</ele><time>2026-04-29T11:51:55Z</time></trkpt><trkpt lat="50.67666371733427" lon="5.652153975534356"><ele>64.5</ele><time>2026-04-29T11:51:56Z</time></trkpt><trkpt lat="50.67652008434108" lon="5.651821565732603"><ele>64.0</ele><time>2026-04-29T11:51:57Z</time></trkpt><trkpt lat="50.67636814333167" lon="5.651513218995441"><ele>64.0</ele><time>2026-04-29T11:51:58Z</time></trkpt><trkpt lat="50.67620602220904" lon="5.651230505130904"><ele>64.0</ele><time>2026-04-29T11:51:59Z</time></trkpt><trkpt lat="50.676038529773756" lon="5.6509580735727685"><ele>63.5</ele><time>2026-04-29T11:52:00Z</time></trkpt><trkpt lat="50.67587224891048" lon="5.650694128981845"><ele>63.0</ele><time>2026-04-29T11:52:01Z</time></trkpt><trkpt lat="50.675705468392735" lon="5.6504456453129555"><ele>62.5</ele><time>2026-04-29T11:52:02Z</time></trkpt><trkpt lat="50.67553277776845" lon="5.65020156908725"><ele>62.0</ele><time>2026-04-29T11:52:03Z</time></trkpt><trkpt lat="50.67535322591178" lon="5.649966990185185"><ele>62.0</ele><time>2026-04-29T11:52:04Z</time></trkpt><trkpt lat="50.675170553921404" lon="5.649738964820452"><ele>62.0</ele><time>2026-04-29T11:52:05Z</time></trkpt><trkpt lat="50.674985930235685" lon="5.649516208840741"><ele>60.5</ele><time>2026-04-29T11:52:06Z</time></trkpt><trkpt lat="50.674798778353" lon="5.64929879141717"><ele>59.0</ele><time>2026-04-29T11:52:07Z</time></trkpt><trkpt lat="50.674613010434456" lon="5.649090507001567"><ele>60.333333333333336</ele><time>2026-04-29T11:52:08Z</time></trkpt><trkpt lat="50.67443195362479" lon="5.648895563128258"><ele>61.66666666666667</ele><time>2026-04-29T11:52:09Z</time></trkpt><trkpt lat="50.67424987218602" lon="5.648698065613502"><ele>63.0</ele><time>2026-04-29T11:52:10Z</time></trkpt><trkpt lat="50.674067438707866" lon="5.648502074699125"><ele>63.0</ele><time>2026-04-29T11:52:11Z</time></trkpt><trkpt lat="50.673891316705664" lon="5.648319594197688"><ele>63.0</ele><time>2026-04-29T11:52:12Z</time></trkpt><trkpt lat="50.67372262733375" lon="5.648152526341653"><ele>63.0</ele><time>2026-04-29T11:52:13Z</time></trkpt><trkpt lat="50.673559566734774" lon="5.647992861348333"><ele>63.33333333333333</ele><time>2026-04-29T11:52:14Z</time></trkpt><trkpt lat="50.67340458281708" lon="5.647838501029948"><ele>63.666666666666664</ele><time>2026-04-29T11:52:15Z</time></trkpt><trkpt lat="50.67324883296439" lon="5.647684895482591"><ele>64.0</ele><time>2026-04-29T11:52:16Z</time></trkpt><trkpt lat="50.67310324810046" lon="5.647540737334459"><ele>63.33333333333333</ele><time>2026-04-29T11:52:17Z</time></trkpt><trkpt lat="50.67296494743208" lon="5.647406409955288"><ele>62.66666666666667</ele><time>2026-04-29T11:52:18Z</time></trkpt><trkpt lat="50.67283694166467" lon="5.647278787601848"><ele>62.0</ele><time>2026-04-29T11:52:19Z</time></trkpt><trkpt lat="50.67271526189148" lon="5.647156299719491"><ele>62.0</ele><time>2026-04-29T11:52:20Z</time></trkpt><trkpt lat="50.67260678734938" lon="5.6470468200982635"><ele>62.0</ele><time>2026-04-29T11:52:21.001Z</time></trkpt><trkpt lat="50.67250383653048" lon="5.646944272720157"><ele>62.0</ele><time>2026-04-29T11:52:22.001Z</time></trkpt><trkpt lat="50.672407135214414" lon="5.64684843345005"><ele>62.0</ele><time>2026-04-29T11:52:23.001Z</time></trkpt><trkpt lat="50.672318202236134" lon="5.646760308079361"><ele>62.00000000000001</ele><time>2026-04-29T11:52:24.001Z</time></trkpt><trkpt lat="50.672239088886805" lon="5.646681338222514"><ele>62.0</ele><time>2026-04-29T11:52:25.001Z</time></trkpt><trkpt lat="50.6721696861967" lon="5.646613584827431"><ele>62.0</ele><time>2026-04-29T11:52:26.001Z</time></trkpt><trkpt lat="50.672105062719396" lon="5.6465579419471625"><ele>62.0</ele><time>2026-04-29T11:52:27.001Z</time></trkpt><trkpt lat="50.67200575394206" lon="5.64648085264137"><ele>62.00000000000001</ele><time>2026-04-29T11:52:29.001Z</time></trkpt><trkpt lat="50.67195227005784" lon="5.646415876278082"><ele>62.0</ele><time>2026-04-29T11:52:31.001Z</time></trkpt><trkpt lat="50.67180682883399" lon="5.646568197046644"><ele>62.0</ele><time>2026-04-29T11:52:40.001Z</time></trkpt><trkpt lat="50.67179749189424" lon="5.646721293455691"><ele>62.0</ele><time>2026-04-29T11:52:42.001Z</time></trkpt><trkpt lat="50.67177573435903" lon="5.64693125367078"><ele>62.0</ele><time>2026-04-29T11:52:44.001Z</time></trkpt><trkpt lat="50.67177288862093" lon="5.647056884019239"><ele>62.0</ele><time>2026-04-29T11:52:45.001Z</time></trkpt><trkpt lat="50.67177901454085" lon="5.647192214046341"><ele>62.0</ele><time>2026-04-29T11:52:46.001Z</time></trkpt><trkpt lat="50.671785981806075" lon="5.647320735630521"><ele>62.2</ele><time>2026-04-29T11:52:47.001Z</time></trkpt><trkpt lat="50.6717938137995" lon="5.647469065198416"><ele>62.400000000000006</ele><time>2026-04-29T11:52:48.001Z</time></trkpt><trkpt lat="50.67180490721001" lon="5.6476276842605095"><ele>62.599999999999994</ele><time>2026-04-29T11:52:49.001Z</time></trkpt><trkpt lat="50.67181581831959" lon="5.647787852462058"><ele>62.8</ele><time>2026-04-29T11:52:50.001Z</time></trkpt><trkpt lat="50.67183169108083" lon="5.647956268686272"><ele>63.0</ele><time>2026-04-29T11:52:51.001Z</time></trkpt><trkpt lat="50.67183775043665" lon="5.648109489597409"><ele>62.4</ele><time>2026-04-29T11:52:52.001Z</time></trkpt><trkpt lat="50.671857075107866" lon="5.648286075401753"><ele>61.8</ele><time>2026-04-29T11:52:53.001Z</time></trkpt><trkpt lat="50.67186604959516" lon="5.648450369076718"><ele>61.2</ele><time>2026-04-29T11:52:54.001Z</time></trkpt><trkpt lat="50.67187796279879" lon="5.648629975213166"><ele>60.6</ele><time>2026-04-29T11:52:55.001Z</time></trkpt><trkpt lat="50.67188717931687" lon="5.648802690640015"><ele>60.0</ele><time>2026-04-29T11:52:56.001Z</time></trkpt><trkpt lat="50.67189783933877" lon="5.64896188406724"><ele>59.666666666666664</ele><time>2026-04-29T11:52:57.001Z</time></trkpt><trkpt lat="50.67190607292953" lon="5.6491117129889155"><ele>59.33333333333333</ele><time>2026-04-29T11:52:58.001Z</time></trkpt><trkpt lat="50.67191344914389" lon="5.649250165352301"><ele>59.0</ele><time>2026-04-29T11:52:59.001Z</time></trkpt><trkpt lat="50.67191410659244" lon="5.649375817415889"><ele>58.666666666666664</ele><time>2026-04-29T11:53:00.001Z</time></trkpt><trkpt lat="50.671899408003746" lon="5.649485564628185"><ele>58.33333333333333</ele><time>2026-04-29T11:53:01.001Z</time></trkpt><trkpt lat="50.671893405784836" lon="5.6495881956820995"><ele>58.0</ele><time>2026-04-29T11:53:02.001Z</time></trkpt><trkpt lat="50.67173706436764" lon="5.649604626943102"><ele>58.0</ele><time>2026-04-29T11:53:04.001Z</time></trkpt><trkpt lat="50.67166541563" lon="5.649552695132867"><ele>58.0</ele><time>2026-04-29T11:53:05.001Z</time></trkpt><trkpt lat="50.67158461800764" lon="5.649489594871155"><ele>58.0</ele><time>2026-04-29T11:53:06.001Z</time></trkpt><trkpt lat="50.67149310208332" lon="5.649434487444856"><ele>58.0</ele><time>2026-04-29T11:53:07.001Z</time></trkpt><trkpt lat="50.67139768934696" lon="5.64937091116276"><ele>58.0</ele><time>2026-04-29T11:53:08.001Z</time></trkpt><trkpt lat="50.67129658861614" lon="5.649300666827298"><ele>58.0</ele><time>2026-04-29T11:53:09.001Z</time></trkpt><trkpt lat="50.671197699297466" lon="5.649230684932207"><ele>58.0</ele><time>2026-04-29T11:53:10.001Z</time></trkpt><trkpt lat="50.6710956804769" lon="5.649156274288717"><ele>58.0</ele><time>2026-04-29T11:53:11.001Z</time></trkpt><trkpt lat="50.67100691365374" lon="5.6490749633392925"><ele>58.0</ele><time>2026-04-29T11:53:12.001Z</time></trkpt><trkpt lat="50.67091566533432" lon="5.648981295726897"><ele>58.0</ele><time>2026-04-29T11:53:13.001Z</time></trkpt><trkpt lat="50.67083048661376" lon="5.64887307734936"><ele>58.25</ele><time>2026-04-29T11:53:14.001Z</time></trkpt><trkpt lat="50.67074861374607" lon="5.6487500493950655"><ele>58.5</ele><time>2026-04-29T11:53:15.001Z</time></trkpt><trkpt lat="50.67067240930549" lon="5.648616800283292"><ele>58.75</ele><time>2026-04-29T11:53:16.001Z</time></trkpt><trkpt lat="50.67060156069938" lon="5.648475930931042"><ele>59.0</ele><time>2026-04-29T11:53:17.001Z</time></trkpt><trkpt lat="50.670532319204874" lon="5.648333929957542"><ele>59.0</ele><time>2026-04-29T11:53:18.001Z</time></trkpt><trkpt lat="50.67045821286141" lon="5.6481966339624625"><ele>59.0</ele><time>2026-04-29T11:53:19.001Z</time></trkpt><trkpt lat="50.67037659449445" lon="5.648068177665922"><ele>59.0</ele><time>2026-04-29T11:53:20.001Z</time></trkpt><trkpt lat="50.670290837063206" lon="5.647944457747073"><ele>59.0</ele><time>2026-04-29T11:53:21.001Z</time></trkpt><trkpt lat="50.67020113050508" lon="5.647829157832122"><ele>59.25</ele><time>2026-04-29T11:53:22.001Z</time></trkpt><trkpt lat="50.67010468719651" lon="5.64772516424673"><ele>59.5</ele><time>2026-04-29T11:53:23.001Z</time></trkpt><trkpt lat="50.670005381222204" lon="5.64762978719238"><ele>59.75</ele><time>2026-04-29T11:53:24.001Z</time></trkpt><trkpt lat="50.66990187291906" lon="5.6475467782425195"><ele>60.0</ele><time>2026-04-29T11:53:25.001Z</time></trkpt><trkpt lat="50.669793806057804" lon="5.647474500128295"><ele>60.0</ele><time>2026-04-29T11:53:26.001Z</time></trkpt><trkpt lat="50.66968592203338" lon="5.647407896827128"><ele>60.0</ele><time>2026-04-29T11:53:27.001Z</time></trkpt><trkpt lat="50.669576488592654" lon="5.647346291316824"><ele>60.0</ele><time>2026-04-29T11:53:28.001Z</time></trkpt><trkpt lat="50.66946647750838" lon="5.647287236948927"><ele>60.0</ele><time>2026-04-29T11:53:29.001Z</time></trkpt><trkpt lat="50.66935745039007" lon="5.647228548177234"><ele>60.5</ele><time>2026-04-29T11:53:30.001Z</time></trkpt><trkpt lat="50.669247294483704" lon="5.647171677281144"><ele>61.0</ele><time>2026-04-29T11:53:31.001Z</time></trkpt><trkpt lat="50.66913416779039" lon="5.647116186914587"><ele>61.5</ele><time>2026-04-29T11:53:32.001Z</time></trkpt><trkpt lat="50.66902241926116" lon="5.647060168672148"><ele>62.0</ele><time>2026-04-29T11:53:33.001Z</time></trkpt><trkpt lat="50.66890974108235" lon="5.647006095780698"><ele>62.25</ele><time>2026-04-29T11:53:34.001Z</time></trkpt><trkpt lat="50.66879582350057" lon="5.646952403580824"><ele>62.5</ele><time>2026-04-29T11:53:35.001Z</time></trkpt><trkpt lat="50.668680653689194" lon="5.646899996877015"><ele>62.75</ele><time>2026-04-29T11:53:36.001Z</time></trkpt><trkpt lat="50.668564556716184" lon="5.646850474006862"><ele>63.0</ele><time>2026-04-29T11:53:37.001Z</time></trkpt><trkpt lat="50.668447308007515" lon="5.64680126039706"><ele>62.25</ele><time>2026-04-29T11:53:38.001Z</time></trkpt><trkpt lat="50.66832903497052" lon="5.646752294793552"><ele>61.5</ele><time>2026-04-29T11:53:39.001Z</time></trkpt><trkpt lat="50.66820972371951" lon="5.646704306583362"><ele>60.75</ele><time>2026-04-29T11:53:40.001Z</time></trkpt><trkpt lat="50.668093136342" lon="5.646660953140053"><ele>60.0</ele><time>2026-04-29T11:53:41.001Z</time></trkpt><trkpt lat="50.66797601602141" lon="5.646619500964537"><ele>60.0</ele><time>2026-04-29T11:53:42.001Z</time></trkpt><trkpt lat="50.667859415067646" lon="5.646580265567654"><ele>60.0</ele><time>2026-04-29T11:53:43.001Z</time></trkpt><trkpt lat="50.66774395056404" lon="5.646540194915895"><ele>60.0</ele><time>2026-04-29T11:53:44.001Z</time></trkpt><trkpt lat="50.66762736917296" lon="5.646501273522316"><ele>60.0</ele><time>2026-04-29T11:53:45.001Z</time></trkpt><trkpt lat="50.66751053349101" lon="5.646462292801293"><ele>60.25</ele><time>2026-04-29T11:53:46.001Z</time></trkpt><trkpt lat="50.66739356747442" lon="5.646424660449976"><ele>60.5</ele><time>2026-04-29T11:53:47.001Z</time></trkpt><trkpt lat="50.66727681962819" lon="5.646387206083516"><ele>60.75</ele><time>2026-04-29T11:53:48.001Z</time></trkpt><trkpt lat="50.66715922522472" lon="5.646350778023019"><ele>61.0</ele><time>2026-04-29T11:53:49.001Z</time></trkpt><trkpt lat="50.667042926433204" lon="5.646313531654376"><ele>61.25</ele><time>2026-04-29T11:53:50.001Z</time></trkpt><trkpt lat="50.666926377894214" lon="5.646276172109392"><ele>61.5</ele><time>2026-04-29T11:53:51.001Z</time></trkpt><trkpt lat="50.666808569289415" lon="5.646240673788608"><ele>61.75</ele><time>2026-04-29T11:53:52.001Z</time></trkpt><trkpt lat="50.66669210087815" lon="5.646207519249574"><ele>62.0</ele><time>2026-04-29T11:53:53.001Z</time></trkpt><trkpt lat="50.66657421825373" lon="5.6461798445811695"><ele>62.0</ele><time>2026-04-29T11:53:54.001Z</time></trkpt><trkpt lat="50.66645616125324" lon="5.646158500291896"><ele>62.0</ele><time>2026-04-29T11:53:55.001Z</time></trkpt><trkpt lat="50.66634178606283" lon="5.646144922437261"><ele>62.0</ele><time>2026-04-29T11:53:56Z</time></trkpt><trkpt lat="50.66622317271188" lon="5.646138741913979"><ele>62.0</ele><time>2026-04-29T11:53:57Z</time></trkpt><trkpt lat="50.66610338437564" lon="5.646138636516928"><ele>61.75</ele><time>2026-04-29T11:53:58Z</time></trkpt><trkpt lat="50.665983722644725" lon="5.646143553286713"><ele>61.5</ele><time>2026-04-29T11:53:59Z</time></trkpt><trkpt lat="50.66586601319409" lon="5.646160291105159"><ele>61.25</ele><time>2026-04-29T11:54:00Z</time></trkpt><trkpt lat="50.66574761580811" lon="5.646180732490447"><ele>61.0</ele><time>2026-04-29T11:54:01Z</time></trkpt><trkpt lat="50.66563028185512" lon="5.646205133745293"><ele>61.0</ele><time>2026-04-29T11:54:02Z</time></trkpt><trkpt lat="50.665511380088695" lon="5.646233010445716"><ele>61.0</ele><time>2026-04-29T11:54:03Z</time></trkpt><trkpt lat="50.66539421233443" lon="5.646267552153674"><ele>61.0</ele><time>2026-04-29T11:54:04Z</time></trkpt><trkpt lat="50.66527614149141" lon="5.64630827289226"><ele>61.0</ele><time>2026-04-29T11:54:05Z</time></trkpt><trkpt lat="50.66515861332625" lon="5.64635342434605"><ele>60.25</ele><time>2026-04-29T11:54:06Z</time></trkpt><trkpt lat="50.6650415887708" lon="5.646398770748028"><ele>59.5</ele><time>2026-04-29T11:54:07Z</time></trkpt><trkpt lat="50.66492578775947" lon="5.646449470964352"><ele>58.75</ele><time>2026-04-29T11:54:08Z</time></trkpt><trkpt lat="50.66481094070684" lon="5.646505536131901"><ele>58.0</ele><time>2026-04-29T11:54:09Z</time></trkpt><trkpt lat="50.66469599639602" lon="5.64656179869263"><ele>58.0</ele><time>2026-04-29T11:54:10Z</time></trkpt><trkpt lat="50.6645816380248" lon="5.646617371988552"><ele>58.0</ele><time>2026-04-29T11:54:11Z</time></trkpt><trkpt lat="50.66446668866017" lon="5.646673100858386"><ele>58.0</ele><time>2026-04-29T11:54:12Z</time></trkpt><trkpt lat="50.664352125904415" lon="5.646730119733889"><ele>58.0</ele><time>2026-04-29T11:54:13Z</time></trkpt><trkpt lat="50.66423891012832" lon="5.646787711748816"><ele>58.25</ele><time>2026-04-29T11:54:14Z</time></trkpt><trkpt lat="50.66412553953934" lon="5.646843471916562"><ele>58.5</ele><time>2026-04-29T11:54:15Z</time></trkpt><trkpt lat="50.6640118921148" lon="5.646898066972498"><ele>58.75</ele><time>2026-04-29T11:54:16Z</time></trkpt><trkpt lat="50.663897044262434" lon="5.646951474960663"><ele>59.0</ele><time>2026-04-29T11:54:17Z</time></trkpt><trkpt lat="50.6637834448215" lon="5.647005307830444"><ele>58.75</ele><time>2026-04-29T11:54:18Z</time></trkpt><trkpt lat="50.66367150158641" lon="5.647064030051975"><ele>58.5</ele><time>2026-04-29T11:54:19Z</time></trkpt><trkpt lat="50.66355763800597" lon="5.647122187803796"><ele>58.25</ele><time>2026-04-29T11:54:20Z</time></trkpt><trkpt lat="50.66344390958217" lon="5.647173290647921"><ele>58.0</ele><time>2026-04-29T11:54:21Z</time></trkpt><trkpt lat="50.66333162129661" lon="5.647225413793552"><ele>58.0</ele><time>2026-04-29T11:54:22Z</time></trkpt><trkpt lat="50.663217992447024" lon="5.647281958712421"><ele>58.0</ele><time>2026-04-29T11:54:23Z</time></trkpt><trkpt lat="50.66310483767711" lon="5.647332273204244"><ele>58.0</ele><time>2026-04-29T11:54:24Z</time></trkpt><trkpt lat="50.662991352543" lon="5.647378878255809"><ele>58.0</ele><time>2026-04-29T11:54:25Z</time></trkpt><trkpt lat="50.66287538502455" lon="5.647425220484835"><ele>58.5</ele><time>2026-04-29T11:54:26Z</time></trkpt><trkpt lat="50.662761344694914" lon="5.64746937026738"><ele>59.0</ele><time>2026-04-29T11:54:27Z</time></trkpt><trkpt lat="50.662647627517494" lon="5.647513734099615"><ele>59.5</ele><time>2026-04-29T11:54:28Z</time></trkpt><trkpt lat="50.66253522425811" lon="5.64755774091946"><ele>60.0</ele><time>2026-04-29T11:54:29Z</time></trkpt><trkpt lat="50.662423485989244" lon="5.6475991303230035"><ele>60.0</ele><time>2026-04-29T11:54:30Z</time></trkpt><trkpt lat="50.662311812224" lon="5.647638331071734"><ele>60.0</ele><time>2026-04-29T11:54:31Z</time></trkpt><trkpt lat="50.662210625874955" lon="5.6476740347466645"><ele>60.0</ele><time>2026-04-29T11:54:32Z</time></trkpt><trkpt lat="50.662118058816176" lon="5.647705985418343"><ele>60.0</ele><time>2026-04-29T11:54:33Z</time></trkpt><trkpt lat="50.66202230837848" lon="5.6477385559935"><ele>60.0</ele><time>2026-04-29T11:54:34Z</time></trkpt><trkpt lat="50.66192069123852" lon="5.647773126481504"><ele>59.75</ele><time>2026-04-29T11:54:35Z</time></trkpt><trkpt lat="50.66181262076569" lon="5.6478072116705125"><ele>59.5</ele><time>2026-04-29T11:54:36Z</time></trkpt><trkpt lat="50.66170094443713" lon="5.647841481241188"><ele>59.25</ele><time>2026-04-29T11:54:37Z</time></trkpt><trkpt lat="50.66158584276969" lon="5.647874068504799"><ele>59.0</ele><time>2026-04-29T11:54:38Z</time></trkpt><trkpt lat="50.66146875749524" lon="5.647901824305447"><ele>59.0</ele><time>2026-04-29T11:54:39Z</time></trkpt><trkpt lat="50.66134986752148" lon="5.647933178325453"><ele>59.0</ele><time>2026-04-29T11:54:40Z</time></trkpt><trkpt lat="50.661230746353425" lon="5.64796176303178"><ele>59.0</ele><time>2026-04-29T11:54:41Z</time></trkpt><trkpt lat="50.66111094637702" lon="5.647984181863626"><ele>59.0</ele><time>2026-04-29T11:54:42Z</time></trkpt><trkpt lat="50.66099402463074" lon="5.648000029392671"><ele>59.25</ele><time>2026-04-29T11:54:43Z</time></trkpt><trkpt lat="50.660877038245296" lon="5.648019808404874"><ele>59.5</ele><time>2026-04-29T11:54:44Z</time></trkpt><trkpt lat="50.660757856973454" lon="5.648036842108213"><ele>59.75</ele><time>2026-04-29T11:54:45Z</time></trkpt><trkpt lat="50.6606384380923" lon="5.64805165272043"><ele>60.0</ele><time>2026-04-29T11:54:46Z</time></trkpt><trkpt lat="50.66051803210943" lon="5.64806333605649"><ele>60.0</ele><time>2026-04-29T11:54:47Z</time></trkpt><trkpt lat="50.66039723893204" lon="5.648075036013119"><ele>60.0</ele><time>2026-04-29T11:54:48.001Z</time></trkpt><trkpt lat="50.660276015212546" lon="5.648079372136913"><ele>60.0</ele><time>2026-04-29T11:54:49.001Z</time></trkpt><trkpt lat="50.660156102757334" lon="5.648081810023206"><ele>60.0</ele><time>2026-04-29T11:54:50.001Z</time></trkpt><trkpt lat="50.660035647825254" lon="5.648085565991197"><ele>60.0</ele><time>2026-04-29T11:54:51.001Z</time></trkpt><trkpt lat="50.65991507791207" lon="5.648082255475963"><ele>60.0</ele><time>2026-04-29T11:54:52.001Z</time></trkpt><trkpt lat="50.65979638439716" lon="5.648079210698051"><ele>60.0</ele><time>2026-04-29T11:54:53.001Z</time></trkpt><trkpt lat="50.65967737391941" lon="5.648071184102995"><ele>60.0</ele><time>2026-04-29T11:54:54.001Z</time></trkpt><trkpt lat="50.659558884911036" lon="5.648060065230315"><ele>60.25</ele><time>2026-04-29T11:54:55.001Z</time></trkpt><trkpt lat="50.65944012590694" lon="5.648050847731726"><ele>60.5</ele><time>2026-04-29T11:54:56.001Z</time></trkpt><trkpt lat="50.659321441715264" lon="5.64803752458144"><ele>60.75</ele><time>2026-04-29T11:54:57.001Z</time></trkpt><trkpt lat="50.65920311309396" lon="5.64802090049148"><ele>61.0</ele><time>2026-04-29T11:54:58.001Z</time></trkpt><trkpt lat="50.659083683394485" lon="5.648000720647575"><ele>61.0</ele><time>2026-04-29T11:54:59.001Z</time></trkpt><trkpt lat="50.65896327630903" lon="5.647979438510249"><ele>61.0</ele><time>2026-04-29T11:55:00.001Z</time></trkpt><trkpt lat="50.65884249708568" lon="5.647957278269576"><ele>61.0</ele><time>2026-04-29T11:55:01.001Z</time></trkpt><trkpt lat="50.6587222441699" lon="5.647932365867487"><ele>61.0</ele><time>2026-04-29T11:55:02.001Z</time></trkpt><trkpt lat="50.65859969382235" lon="5.647904826838707"><ele>60.75</ele><time>2026-04-29T11:55:03.001Z</time></trkpt><trkpt lat="50.65847671909894" lon="5.6478788263236535"><ele>60.5</ele><time>2026-04-29T11:55:04.001Z</time></trkpt><trkpt lat="50.65835385949792" lon="5.647852040294705"><ele>60.25</ele><time>2026-04-29T11:55:05.001Z</time></trkpt><trkpt lat="50.65823201154124" lon="5.647824398619477"><ele>60.0</ele><time>2026-04-29T11:55:06.001Z</time></trkpt><trkpt lat="50.65811416625434" lon="5.647790778202042"><ele>59.75</ele><time>2026-04-29T11:55:07.001Z</time></trkpt><trkpt lat="50.65799713801343" lon="5.647758015138334"><ele>59.5</ele><time>2026-04-29T11:55:08.001Z</time></trkpt><trkpt lat="50.65787879246815" lon="5.647722564143095"><ele>59.25</ele><time>2026-04-29T11:55:09.001Z</time></trkpt><trkpt lat="50.657760954690566" lon="5.647682579667291"><ele>59.0</ele><time>2026-04-29T11:55:10.001Z</time></trkpt><trkpt lat="50.657643717756116" lon="5.6476377745467845"><ele>60.25</ele><time>2026-04-29T11:55:11.001Z</time></trkpt><trkpt lat="50.65752815993742" lon="5.6475916025634705"><ele>61.5</ele><time>2026-04-29T11:55:12.001Z</time></trkpt><trkpt lat="50.65741161570224" lon="5.6475491474617705"><ele>62.75</ele><time>2026-04-29T11:55:13.001Z</time></trkpt><trkpt lat="50.65730588242236" lon="5.647505451165626"><ele>64.0</ele><time>2026-04-29T11:55:14.001Z</time></trkpt><trkpt lat="50.65720600215642" lon="5.64746869475867"><ele>64.0</ele><time>2026-04-29T11:55:15.001Z</time></trkpt><trkpt lat="50.65710854238143" lon="5.647429283190709"><ele>64.0</ele><time>2026-04-29T11:55:16.001Z</time></trkpt><trkpt lat="50.657007360815776" lon="5.647389091121603"><ele>64.0</ele><time>2026-04-29T11:55:17.001Z</time></trkpt><trkpt lat="50.65691641888302" lon="5.647349922747577"><ele>64.0</ele><time>2026-04-29T11:55:18.001Z</time></trkpt><trkpt lat="50.65683245050588" lon="5.647315308796892"><ele>64.0</ele><time>2026-04-29T11:55:19.001Z</time></trkpt><trkpt lat="50.656757510954144" lon="5.647283333542665"><ele>63.666666666666664</ele><time>2026-04-29T11:55:20.001Z</time></trkpt><trkpt lat="50.6566898568857" lon="5.647251547773185"><ele>63.33333333333333</ele><time>2026-04-29T11:55:21.001Z</time></trkpt><trkpt lat="50.65658286838417" lon="5.647207322665851"><ele>63.0</ele><time>2026-04-29T11:55:23.001Z</time></trkpt><trkpt lat="50.656498378483285" lon="5.647226994179381"><ele>62.66666666666667</ele><time>2026-04-29T11:55:25.001Z</time></trkpt><trkpt lat="50.65643922013873" lon="5.647314894226702"><ele>62.333333333333336</ele><time>2026-04-29T11:55:27.001Z</time></trkpt><trkpt lat="50.65637913419589" lon="5.647411264979984"><ele>62.0</ele><time>2026-04-29T11:55:29.001Z</time></trkpt><trkpt lat="50.65628149415188" lon="5.647406435521678"><ele>62.00000000000001</ele><time>2026-04-29T11:55:31.001Z</time></trkpt><trkpt lat="50.65620026821212" lon="5.647357897996172"><ele>62.0</ele><time>2026-04-29T11:55:33.001Z</time></trkpt><trkpt lat="50.65611302694911" lon="5.647305400196912"><ele>62.0</ele><time>2026-04-29T11:55:35.001Z</time></trkpt><trkpt lat="50.6560330293246" lon="5.6472530045009215"><ele>62.0</ele><time>2026-04-29T11:55:37.001Z</time></trkpt><trkpt lat="50.65596281043084" lon="5.647261426898951"><ele>62.00000000000001</ele><time>2026-04-29T11:55:39.001Z</time></trkpt><trkpt lat="50.65592549483168" lon="5.647386095158593"><ele>62.0</ele><time>2026-04-29T11:55:41.001Z</time></trkpt><trkpt lat="50.65591298764728" lon="5.647510924307017"><ele>62.00000000000001</ele><time>2026-04-29T11:55:43.001Z</time></trkpt><trkpt lat="50.655939791092855" lon="5.647607855869242"><ele>62.0</ele><time>2026-04-29T11:55:45.001Z</time></trkpt><trkpt lat="50.656024177441104" lon="5.647648538035356"><ele>62.0</ele><time>2026-04-29T11:55:47.001Z</time></trkpt><trkpt lat="50.65609773093476" lon="5.647679914310761"><ele>62.0</ele><time>2026-04-29T11:55:49.001Z</time></trkpt><trkpt lat="50.656168472155834" lon="5.647733052325233"><ele>62.00000000000001</ele><time>2026-04-29T11:55:52.001Z</time></trkpt><trkpt lat="50.65627860567219" lon="5.647764535187308"><ele>62.0</ele><time>2026-04-29T11:58:25Z</time></trkpt><trkpt lat="50.6563445841145" lon="5.6478258314519385"><ele>62.0</ele><time>2026-04-29T11:58:30Z</time></trkpt><trkpt lat="50.656404761219775" lon="5.647865078449034"><ele>62.00000000000001</ele><time>2026-04-29T11:58:37Z</time></trkpt><trkpt lat="50.65647009564341" lon="5.647895932480788"><ele>62.0</ele><time>2026-04-29T11:59:10Z</time></trkpt><trkpt lat="50.65653096169017" lon="5.647844193972154"><ele>62.0</ele><time>2026-04-29T11:59:22Z</time></trkpt><trkpt lat="50.65655209946364" lon="5.64773816208696"><ele>62.00000000000001</ele><time>2026-04-29T11:59:31.001Z</time></trkpt><trkpt lat="50.65659762481403" lon="5.647667530514311"><ele>62.0</ele><time>2026-04-29T11:59:39.001Z</time></trkpt><trkpt lat="50.65654128488955" lon="5.647731001555265"><ele>62.0</ele><time>2026-04-29T12:00:18Z</time></trkpt><trkpt lat="50.65653275184251" lon="5.647865591419426"><ele>62.00000000000001</ele><time>2026-04-29T12:00:23Z</time></trkpt><trkpt lat="50.65664488181197" lon="5.647931494583333"><ele>62.0</ele><time>2026-04-29T12:00:39Z</time></trkpt><trkpt lat="50.656669139537" lon="5.647828518521982"><ele>62.0</ele><time>2026-04-29T12:00:44Z</time></trkpt><trkpt lat="50.65668217291053" lon="5.647717268754704"><ele>62.0</ele><time>2026-04-29T12:00:49Z</time></trkpt><trkpt lat="50.656722077363376" lon="5.647624344384953"><ele>62.00000000000001</ele><time>2026-04-29T12:00:54Z</time></trkpt><trkpt lat="50.65676795999338" lon="5.647547152500287"><ele>62.0</ele><time>2026-04-29T12:00:59Z</time></trkpt><trkpt lat="50.65682392494364" lon="5.647486262116325"><ele>62.0</ele><time>2026-04-29T12:01:04Z</time></trkpt><trkpt lat="50.656895524465824" lon="5.647450445120952"><ele>62.00000000000001</ele><time>2026-04-29T12:01:09Z</time></trkpt><trkpt lat="50.65696818393501" lon="5.647465787992902"><ele>62.0</ele><time>2026-04-29T12:01:14Z</time></trkpt><trkpt lat="50.65704012853612" lon="5.647502296169288"><ele>62.0</ele><time>2026-04-29T12:01:19Z</time></trkpt><trkpt lat="50.65711391321016" lon="5.64752055122454"><ele>62.00000000000001</ele><time>2026-04-29T12:01:24Z</time></trkpt><trkpt lat="50.65718166931562" lon="5.647553001970319"><ele>62.0</ele><time>2026-04-29T12:01:29Z</time></trkpt><trkpt lat="50.65723307696764" lon="5.647631244750539"><ele>62.0</ele><time>2026-04-29T12:01:34Z</time></trkpt><trkpt lat="50.657242814128075" lon="5.647741971840696"><ele>61.85714285714286</ele><time>2026-04-29T12:01:39Z</time></trkpt><trkpt lat="50.65730752637307" lon="5.647783833364285"><ele>61.71428571428572</ele><time>2026-04-29T12:01:44.001Z</time></trkpt><trkpt lat="50.6573720216926" lon="5.647836488792769"><ele>61.57142857142857</ele><time>2026-04-29T12:01:49.001Z</time></trkpt><trkpt lat="50.65743624194252" lon="5.647889509407338"><ele>61.42857142857143</ele><time>2026-04-29T12:01:54.001Z</time></trkpt><trkpt lat="50.65749174052042" lon="5.647949327048788"><ele>61.285714285714285</ele><time>2026-04-29T12:01:59.001Z</time></trkpt><trkpt lat="50.65755046104733" lon="5.647992920478195"><ele>61.14285714285714</ele><time>2026-04-29T12:02:04.001Z</time></trkpt><trkpt lat="50.65761176256143" lon="5.648029622278721"><ele>60.99999999999999</ele><time>2026-04-29T12:02:09.001Z</time></trkpt><trkpt lat="50.65767244459872" lon="5.648080243721199"><ele>60.99999999999999</ele><time>2026-04-29T12:02:14.001Z</time></trkpt><trkpt lat="50.65773349005505" lon="5.648109576846372"><ele>61.0</ele><time>2026-04-29T12:02:22Z</time></trkpt><trkpt lat="50.657672247392384" lon="5.648078539502675"><ele>60.99999999999999</ele><time>2026-04-29T12:02:37Z</time></trkpt><trkpt lat="50.6577414802951" lon="5.648110853079425"><ele>60.99999999999999</ele><time>2026-04-29T12:02:56Z</time></trkpt><trkpt lat="50.65779596520444" lon="5.64816308056208"><ele>61.0</ele><time>2026-04-29T12:03:01Z</time></trkpt><trkpt lat="50.657859402927" lon="5.648192488832447"><ele>60.99999999999999</ele><time>2026-04-29T12:03:05Z</time></trkpt><trkpt lat="50.657928603054806" lon="5.648239065521106"><ele>60.99999999999999</ele><time>2026-04-29T12:03:10Z</time></trkpt><trkpt lat="50.65787392167942" lon="5.648184858058459"><ele>60.85714285714285</ele><time>2026-04-29T12:03:38Z</time></trkpt><trkpt lat="50.65782166643216" lon="5.648105813714457"><ele>60.71428571428571</ele><time>2026-04-29T12:03:44Z</time></trkpt><trkpt lat="50.6578456136775" lon="5.647987589888182"><ele>60.57142857142857</ele><time>2026-04-29T12:03:53.001Z</time></trkpt><trkpt lat="50.65785172564528" lon="5.6478851229646345"><ele>60.42857142857142</ele><time>2026-04-29T12:03:59.001Z</time></trkpt><trkpt lat="50.657806687498926" lon="5.647812823528964"><ele>60.28571428571428</ele><time>2026-04-29T12:04:04.001Z</time></trkpt><trkpt lat="50.657733851403776" lon="5.647791089206333"><ele>60.142857142857146</ele><time>2026-04-29T12:04:09.001Z</time></trkpt><trkpt lat="50.65765985791586" lon="5.64775866527895"><ele>60.0</ele><time>2026-04-29T12:04:14.001Z</time></trkpt><trkpt lat="50.65758509471283" lon="5.647745746337572"><ele>64.0</ele><time>2026-04-29T12:04:19.001Z</time></trkpt><trkpt lat="50.65751604954253" lon="5.647733757037445"><ele>64.0</ele><time>2026-04-29T12:04:24Z</time></trkpt></trkseg></trk></gpx>